[[{"header":{"parameterUnit":"m.s-1","parameterCategory":1,"la1":30.6,"la2":28.766,"lo1":-90.7593,"lo2":-88.6598,"dx":0.0162,"dy":0.0183,"nx":116,"ny":114,"refTime":"2023-02-01T06:00:00:Z","depth":0,"parameterNumber":2,"parameterNumberName":"U-component_of_WINDS"},"data":[0.0,0.0,0.0,0.0,0.0,0.0,0.0,0.0,0.0,0.0,0.0,0.0,0.0,0.0,0.0,0.0,0.0,0.0,0.0,0.0,0.0,0.0,0.0,0.0,0.0,0.0,0.0,0.0,0.0,0.0,0.0,0.0,0.0,0.0,0.0,0.0,0.0,0.0,0.0,0.0,0.0,0.0,0.0,0.0,0.0,0.0,0.0,0.0,0.0,0.0,0.0,0.0,0.0,0.0,0.0,0.0,0.0,0.0,0.0,0.0,0.0,0.0,0.0,0.0,0.0,0.0,0.0,0.0,0.0,0.0,0.0,0.0,0.0,0.0,0.0,0.0,0.0,0.0,0.0,0.0,0.0,0.0,0.0,0.0,0.0,0.0,0.0,0.0,0.0,0.0,0.0,0.0,0.0,0.0,0.0,0.0,0.0,0.0,0.0,0.0,0.0,0.0,0.0,0.0,0.0,0.0,0.0,0.0,0.0,0.0,0.0,0.0,0.0,0.0,0.0,0.0,0.0,0.0,0.0,0.0,0.0,0.0,0.0,0.0,0.0,0.0,0.0,0.0,0.0,0.0,0.0,0.0,0.0,0.0,0.0,0.0,0.0,0.0,0.0,0.0,0.0,0.0,0.0,0.0,0.0,0.0,0.0,0.0,0.0,0.0,0.0,0.0,0.0,0.0,0.0,0.0,0.0,0.0,0.0,0.0,0.0,0.0,0.0,0.0,0.0,0.0,0.0,0.0,0.0,0.0,0.0,0.0,0.0,0.0,0.0,0.0,0.0,0.0,0.0,0.0,0.0,0.0,0.0,0.0,0.0,0.0,0.0,0.0,0.0,0.0,0.0,0.0,0.0,0.0,0.0,0.0,0.0,0.0,0.0,0.0,0.0,0.0,0.0,0.0,0.0,0.0,0.0,0.0,0.0,0.0,0.0,0.0,0.0,0.0,0.0,0.0,0.0,0.0,0.0,0.0,0.0,0.0,0.0,0.0,0.0,0.0,0.0,0.0,0.0,0.0,0.0,0.0,0.0,0.0,0.0,0.0,0.0,0.0,0.0,0.0,0.0,0.0,0.0,0.0,0.0,0.0,0.0,0.0,0.0,0.0,0.0,0.0,0.0,0.0,0.0,0.0,0.0,0.0,0.0,0.0,0.0,0.0,0.0,0.0,0.0,0.0,0.0,0.0,0.0,0.0,0.0,0.0,0.0,0.0,0.0,0.0,0.0,0.0,0.0,0.0,0.0,0.0,0.0,0.0,0.0,0.0,0.0,0.0,0.0,0.0,0.0,0.0,0.0,0.0,0.0,0.0,0.0,0.0,0.0,0.0,0.0,0.0,0.0,0.0,0.0,0.0,0.0,0.0,0.0,0.0,0.0,0.0,0.0,0.0,0.0,0.0,0.0,0.0,0.0,0.0,0.0,0.0,0.0,0.0,0.0,0.0,0.0,0.0,0.0,0.0,0.0,0.0,0.0,0.0,0.0,0.0,0.0,0.0,0.0,0.0,0.0,0.0,0.0,0.0,0.0,0.0,0.0,0.0,0.0,0.0,0.0,0.0,0.0,0.0,0.0,0.0,0.0,0.0,0.0,0.0,0.0,0.0,0.0,0.0,0.0,0.0,0.0,0.0,0.0,0.0,0.0,0.0,0.0,0.0,0.0,0.0,0.0,0.0,0.0,0.0,0.0,0.0,0.0,0.0,0.0,0.0,0.0,0.0,0.0,0.0,0.0,0.0,0.0,0.0,0.0,0.0,0.0,0.0,0.0,0.0,0.0,0.0,0.0,0.0,0.0,0.0,0.0,0.0,0.0,0.0,0.0,0.0,0.0,0.0,0.0,0.0,0.0,0.0,0.0,0.0,0.0,0.0,0.0,0.0,0.0,0.0,0.0,0.0,0.0,0.0,0.0,0.0,0.0,0.0,0.0,0.0,0.0,0.0,0.0,0.0,0.0,0.0,0.0,0.0,0.0,0.0,0.0,0.0,0.0,0.0,0.0,0.0,0.0,0.0,0.0,0.0,0.0,0.0,0.0,0.0,0.0,0.0,0.0,0.0,0.0,0.0,0.0,0.0,0.0,0.0,0.0,0.0,0.0,0.0,0.0,0.0,0.0,0.0,0.0,0.0,0.0,0.0,0.0,0.0,0.0,0.0,0.0,0.0,0.0,0.0,0.0,0.0,0.0,0.0,0.0,0.0,0.0,0.0,0.0,0.0,0.0,0.0,0.0,0.0,0.0,0.0,0.0,0.0,0.0,0.0,0.0,0.0,0.0,0.0,0.0,0.0,0.0,0.0,0.0,0.0,0.0,0.0,0.0,0.0,0.0,0.0,0.0,0.0,0.0,0.0,0.0,0.0,0.0,0.0,0.0,0.0,0.0,0.0,0.0,0.0,0.0,0.0,0.0,0.0,0.0,0.0,0.0,0.0,0.0,0.0,0.0,0.0,0.0,0.0,0.0,0.0,0.0,0.0,0.0,0.0,0.0,0.0,0.0,0.0,0.0,0.0,0.0,0.0,0.0,0.0,0.0,0.0,0.0,0.0,0.0,0.0,0.0,0.0,0.0,0.0,0.0,0.0,0.0,0.0,0.0,0.0,0.0,0.0,0.0,0.0,0.0,0.0,0.0,0.0,0.0,0.0,0.0,0.0,0.0,0.0,0.0,0.0,0.0,0.0,0.0,0.0,0.0,0.0,0.0,0.0,0.0,0.0,0.0,0.0,0.0,0.0,0.0,0.0,0.0,0.0,0.0,0.0,0.0,0.0,0.0,0.0,0.0,0.0,0.0,0.0,0.0,0.0,0.0,0.0,0.0,0.0,0.0,0.0,0.0,0.0,0.0,0.0,0.0,0.0,0.0,0.0,0.0,0.0,0.0,0.0,0.0,0.0,0.0,0.0,0.0,0.0,0.0,0.0,0.0,0.0,0.0,0.0,0.0,0.0,0.0,0.0,0.0,0.0,0.0,0.0,0.0,0.0,0.0,0.0,0.0,0.0,0.0,0.0,0.0,0.0,0.0,0.0,0.0,0.0,0.0,0.0,0.0,0.0,0.0,0.0,0.0,0.0,0.0,0.0,0.0,0.0,0.0,0.0,0.0,0.0,0.0,0.0,0.0,0.0,0.0,0.0,0.0,0.0,0.0,0.0,0.0,0.0,0.0,0.0,0.0,0.0,0.0,0.0,0.0,0.0,0.0,0.0,0.0,0.0,0.0,0.0,0.0,0.0,0.0,0.0,0.0,0.0,0.0,0.0,0.0,0.0,0.0,0.0,0.0,0.0,0.0,0.0,0.0,0.0,0.0,0.0,0.0,0.0,0.0,0.0,0.0,0.0,0.0,0.0,0.0,0.0,0.0,0.0,0.0,0.0,0.0,0.0,0.0,0.0,0.0,0.0,0.0,0.0,0.0,0.0,0.0,0.0,0.0,0.0,0.0,0.0,0.0,0.0,0.0,0.0,0.0,0.0,0.0,0.0,0.0,0.0,0.0,0.0,0.0,0.0,0.0,0.0,0.0,0.0,0.0,0.0,0.0,0.0,0.0,0.0,0.0,0.0,0.0,0.0,0.0,0.0,0.0,0.0,0.0,0.0,0.0,0.0,0.0,0.0,0.0,0.0,0.0,0.0,0.0,0.0,0.0,0.0,0.0,0.0,0.0,0.0,0.0,0.0,0.0,0.0,0.0,0.0,0.0,0.0,0.0,0.0,0.0,0.0,0.0,0.0,0.0,0.0,0.0,0.0,0.0,0.0,0.0,0.0,0.0,0.0,0.0,0.0,0.0,0.0,0.0,0.0,0.0,0.0,0.0,0.0,0.0,0.0,0.0,0.0,0.0,0.0,0.0,0.0,0.0,0.0,0.0,0.0,0.0,0.0,0.0,0.0,0.0,0.0,0.0,0.0,0.0,0.0,0.0,0.0,0.0,0.0,0.0,0.0,0.0,0.0,0.0,0.0,0.0,0.0,0.0,0.0,0.0,0.0,0.0,0.0,0.0,0.0,0.0,0.0,0.0,0.0,0.0,0.0,0.0,0.0,0.0,0.0,0.0,0.0,0.0,0.0,0.0,0.0,0.0,0.0,0.0,0.0,0.0,0.0,0.0,0.0,0.0,0.0,0.0,0.0,0.0,0.0,0.0,0.0,0.0,0.0,0.0,0.0,0.0,0.0,0.0,0.0,0.0,0.0,0.0,0.0,0.0,0.0,0.0,0.0,0.0,0.0,0.0,0.0,0.0,0.0,0.0,0.0,0.0,0.0,0.0,0.0,0.0,0.0,0.0,0.0,0.0,0.0,0.0,0.0,0.0,0.0,0.0,0.0,0.0,0.0,0.0,0.0,0.0,0.0,0.0,0.0,0.0,0.0,0.0,0.0,0.0,0.0,0.0,0.0,0.0,0.0,0.0,0.0,0.0,0.0,0.0,0.0,0.0,0.0,0.0,0.0,0.0,0.0,0.0,0.0,0.0,0.0,0.0,0.0,0.0,0.0,0.0,0.0,0.0,0.0,0.0,0.0,0.0,0.0,0.0,0.0,0.0,0.0,0.0,0.0,0.0,0.0,0.0,0.0,0.0,0.0,0.0,0.0,0.0,0.0,0.0,0.0,0.0,0.0,0.0,0.0,0.0,0.0,0.0,0.0,0.0,0.0,0.0,0.0,0.0,0.0,0.0,0.0,0.0,0.0,0.0,0.0,0.0,0.0,0.0,0.0,0.0,0.0,0.0,0.0,0.0,0.0,0.0,0.0,0.0,0.0,0.0,0.0,0.0,0.0,0.0,0.0,0.0,0.0,0.0,0.0,0.0,0.0,0.0,0.0,0.0,0.0,0.0,0.0,0.0,0.0,0.0,0.0,0.0,0.0,0.0,0.0,0.0,0.0,0.0,0.0,0.0,0.0,0.0,0.0,0.0,0.0,0.0,0.0,0.0,0.0,0.0,0.0,0.0,0.0,0.0,0.0,0.0,0.0,0.0,0.0,0.0,0.0,0.0,0.0,0.0,0.0,0.0,0.0,0.0,0.0,0.0,0.0,0.0,0.0,0.0,0.0,0.0,0.0,0.0,0.0,0.0,0.0,0.0,0.0,0.0,0.0,0.0,0.0,0.0,0.0,0.0,0.0,0.0,0.0,0.0,0.0,0.0,0.0,0.0,0.0,0.0,0.0,0.0,0.0,0.0,0.0,0.0,0.0,0.0,0.0,0.0,0.0,0.0,0.0,0.0,0.0,0.0,0.0,0.0,0.0,0.0,0.0,0.0,0.0,0.0,0.0,0.0,0.0,0.0,0.0,0.0,0.0,0.0,0.0,0.0,0.0,0.0,0.0,0.0,0.0,0.0,0.0,0.0,0.0,0.0,0.0,0.0,0.0,0.0,0.0,0.0,0.0,0.0,0.0,0.0,0.0,0.0,0.0,0.0,0.0,0.0,0.0,0.0,0.0,0.0,0.0,0.0,0.0,0.0,0.0,0.0,0.0,0.0,0.0,0.0,0.0,0.0,0.0,0.0,0.0,0.0,0.0,0.0,0.0,0.0,0.0,0.0,0.0,0.0,0.0,0.0,0.0,0.0,0.0,0.0,0.0,0.0,0.0,0.0,0.0,0.0,0.0,0.0,0.0,0.0,0.0,0.0,0.0,0.0,0.0,0.0,0.0,0.0,0.0,0.0,0.0,0.0,0.0,0.0,0.0,0.0,0.0,0.0,0.0,0.0,0.0,0.0,0.0,0.0,0.0,0.0,0.0,0.0,0.0,0.0,0.0,0.0,0.0,0.0,0.0,0.0,0.0,0.0,0.0,0.0,0.0,0.0,0.0,0.0,0.0,0.0,0.0,0.0,0.0,0.0,0.0,0.0,0.0,0.0,0.0,0.0,0.0,0.0,0.0,0.0,0.0,0.0,0.0,0.0,0.0,0.0,0.0,0.0,0.0,0.0,0.0,0.0,0.0,0.0,0.0,0.0,0.0,0.0,0.0,0.0,0.0,0.0,0.0,0.0,0.0,0.0,0.0,0.0,0.0,0.0,0.0,0.0,0.0,0.0,0.0,0.0,0.0,0.0,0.0,0.0,0.0,0.0,0.0,0.0,0.0,0.0,0.0,0.0,0.0,0.0,0.0,0.0,0.0,6.7504,0.0,0.0,0.0,0.0,0.0,0.0,0.0,0.0,0.0,0.0,0.0,0.0,0.0,0.0,0.0,0.0,0.0,0.0,0.0,0.0,0.0,0.0,0.0,0.0,0.0,0.0,0.0,0.0,0.0,0.0,0.0,0.0,0.0,0.0,0.0,0.0,0.0,0.0,0.0,0.0,0.0,0.0,0.0,0.0,0.0,0.0,0.0,0.0,0.0,0.0,0.0,0.0,0.0,0.0,0.0,0.0,0.0,0.0,0.0,0.0,0.0,0.0,0.0,0.0,0.0,0.0,0.0,0.0,0.0,0.0,0.0,0.0,0.0,0.0,0.0,0.0,0.0,0.0,0.0,0.0,0.0,0.0,0.0,0.0,0.0,0.0,0.0,0.0,0.0,0.0,0.0,0.0,0.0,0.0,0.0,0.0,0.0,0.0,0.0,0.0,0.0,0.0,0.0,0.0,0.0,0.0,0.0,0.0,0.0,0.0,0.0,0.0,0.0,0.0,0.0,0.0,7.011,0.0,0.0,0.0,0.0,0.0,0.0,0.0,0.0,0.0,0.0,0.0,0.0,0.0,0.0,0.0,0.0,0.0,0.0,0.0,0.0,0.0,0.0,0.0,0.0,0.0,0.0,0.0,0.0,0.0,0.0,0.0,0.0,0.0,0.0,0.0,0.0,0.0,0.0,0.0,0.0,0.0,0.0,0.0,0.0,0.0,0.0,0.0,0.0,0.0,0.0,0.0,0.0,0.0,0.0,0.0,0.0,0.0,0.0,0.0,0.0,0.0,0.0,0.0,0.0,0.0,0.0,0.0,0.0,0.0,0.0,0.0,0.0,0.0,0.0,0.0,0.0,0.0,0.0,0.0,0.0,0.0,0.0,0.0,0.0,0.0,0.0,0.0,0.0,0.0,0.0,0.0,0.0,0.0,0.0,0.0,0.0,0.0,0.0,0.0,0.0,0.0,0.0,0.0,0.0,0.0,0.0,0.0,0.0,0.0,7.6937,7.8369,7.8369,7.9213,8.0351,7.5652,7.3597,7.3487,0.0,0.0,0.0,0.0,0.0,0.0,0.0,0.0,0.0,0.0,0.0,0.0,0.0,0.0,0.0,0.0,0.0,0.0,0.0,0.0,0.0,0.0,0.0,0.0,0.0,0.0,0.0,0.0,0.0,0.0,0.0,0.0,0.0,0.0,0.0,0.0,0.0,0.0,0.0,0.0,0.0,0.0,0.0,0.0,0.0,0.0,0.0,0.0,0.0,0.0,0.0,0.0,0.0,0.0,0.0,0.0,0.0,0.0,0.0,0.0,0.0,0.0,0.0,0.0,0.0,0.0,0.0,0.0,0.0,0.0,0.0,0.0,0.0,0.0,0.0,0.0,0.0,0.0,0.0,0.0,0.0,0.0,0.0,0.0,0.0,0.0,0.0,6.5088,6.6846,0.0,0.0,0.0,0.0,0.0,0.0,0.0,0.0,0.0,0.0,0.0,0.0,0.0,0.0,7.7781,7.9066,7.9837,8.0057,8.0865,8.1709,8.2627,8.2627,8.3104,8.3948,8.3177,0.0,7.7745,7.6864,0.0,0.0,0.0,0.0,0.0,0.0,0.0,0.0,0.0,0.0,0.0,0.0,0.0,0.0,0.0,0.0,0.0,0.0,0.0,0.0,0.0,0.0,0.0,0.0,0.0,0.0,0.0,0.0,0.0,0.0,0.0,0.0,0.0,0.0,0.0,0.0,0.0,0.0,0.0,0.0,0.0,0.0,8.0424,7.8185,7.6166,7.4661,0.0,0.0,0.0,0.0,0.0,0.0,0.0,0.0,0.0,0.0,0.0,0.0,0.0,0.0,0.0,0.0,0.0,0.0,0.0,0.0,0.0,0.0,0.0,0.0,0.0,0.0,0.0,0.0,0.0,0.0,0.0,0.0,0.0,0.0,0.0,0.0,0.0,0.0,0.0,6.459,6.6505,6.7869,6.8289,6.7994,0.0,0.0,0.0,0.0,0.0,0.0,0.0,0.0,0.0,7.8295,7.947,8.0241,8.0608,8.2223,8.3471,8.4389,8.5673,8.6921,8.8133,8.8133,8.8573,8.9381,8.9381,8.7582,8.4352,8.0351,7.7818,7.6276,0.0,0.0,0.0,0.0,0.0,7.558,0.0,0.0,0.0,0.0,0.0,0.0,0.0,0.0,0.0,0.0,0.0,0.0,0.0,0.0,0.0,0.0,0.0,0.0,0.0,0.0,0.0,0.0,0.0,0.0,0.0,0.0,0.0,0.0,0.0,0.0,0.0,0.0,0.0,0.0,8.7288,8.4572,7.969,7.7818,7.6019,0.0,0.0,0.0,0.0,0.0,0.0,0.0,0.0,0.0,0.0,0.0,0.0,0.0,0.0,0.0,0.0,0.0,0.0,0.0,0.0,0.0,0.0,0.0,0.0,0.0,0.0,0.0,0.0,0.0,0.0,0.0,0.0,0.0,0.0,0.0,0.0,0.0,0.0,6.6279,6.8051,6.8999,6.991,6.9817,0.0,0.0,0.0,0.0,0.0,0.0,7.8636,7.969,8.0975,8.2774,8.3618,8.4132,8.4352,8.5967,8.7399,8.8573,9.0005,9.14,9.2758,9.2758,9.2903,9.3261,9.3261,9.1793,8.8974,8.4222,8.1415,7.9947,7.8112,7.7155,0.0,7.6929,7.7466,7.8082,0.0,0.0,0.0,0.0,0.0,0.0,0.0,0.0,0.0,0.0,0.0,0.0,0.0,0.0,0.0,0.0,0.0,0.0,0.0,0.0,0.0,0.0,0.0,0.0,0.0,0.0,0.0,0.0,0.0,0.0,0.0,0.0,0.0,0.0,9.463,9.1803,8.6224,8.1562,7.9543,7.8993,0.0,0.0,0.0,0.0,0.0,0.0,0.0,0.0,0.0,0.0,0.0,0.0,0.0,0.0,0.0,0.0,0.0,0.0,0.0,0.0,0.0,0.0,0.0,0.0,0.0,0.0,0.0,0.0,0.0,0.0,0.0,0.0,0.0,0.0,0.0,0.0,0.0,0.0,0.0,7.066,7.2424,0.0,0.0,0.0,0.0,7.4488,7.7559,8.0498,8.2957,8.3875,8.538,8.7766,8.8647,8.9417,9.0188,9.184,9.2721,9.2794,9.3639,9.452,9.5327,9.5327,9.4677,9.3591,9.3591,9.1936,8.9253,8.9047,8.7105,8.4278,8.4168,8.3368,8.2389,8.2389,8.1699,8.0576,0.0,0.0,0.0,0.0,0.0,0.0,0.0,0.0,0.0,0.0,0.0,0.0,0.0,0.0,0.0,0.0,0.0,0.0,0.0,0.0,0.0,0.0,0.0,0.0,0.0,0.0,0.0,0.0,0.0,0.0,0.0,0.0,9.507,9.5144,9.6465,9.5914,9.3639,8.828,8.4168,8.1012,7.7157,7.3964,0.0,0.0,0.0,0.0,0.0,0.0,0.0,0.0,0.0,0.0,0.0,0.0,0.0,0.0,0.0,0.0,0.0,0.0,0.0,0.0,0.0,0.0,0.0,0.0,0.0,0.0,0.0,0.0,0.0,0.0,0.0,0.0,0.0,0.0,0.0,0.0,0.0,7.4747,7.6644,0.0,7.754,7.7178,7.7861,8.0081,8.1897,8.4389,8.7876,8.8793,9.0372,9.2831,9.3198,9.3492,9.3749,9.4373,9.4923,9.5437,9.5694,9.6539,9.7787,9.6413,9.5507,9.513,9.4177,9.2738,9.0878,9.0836,8.8386,8.4434,8.3431,8.2477,8.1612,8.1612,8.1686,8.1641,0.0,0.0,0.0,0.0,0.0,0.0,0.0,0.0,0.0,0.0,0.0,0.0,0.0,0.0,0.0,0.0,0.0,0.0,0.0,0.0,0.0,0.0,0.0,0.0,0.0,0.0,0.0,0.0,0.0,0.0,0.0,9.6759,9.753,9.7603,9.9475,10.0209,9.9659,9.5621,9.0482,8.4646,8.0314,7.7598,7.5763,0.0,0.0,0.0,0.0,0.0,0.0,0.0,0.0,0.0,0.0,0.0,0.0,0.0,0.0,0.0,0.0,0.0,0.0,0.0,0.0,0.0,0.0,0.0,0.0,0.0,0.0,0.0,0.0,0.0,0.0,0.0,0.0,0.0,0.0,0.0,7.6571,7.7731,8.0542,8.2371,8.2101,8.198,8.2948,8.5675,8.719,8.9422,9.2905,9.4079,9.5437,9.7089,9.7383,9.7383,9.7126,9.6661,9.6465,9.6429,9.5985,9.6327,9.7343,9.5914,9.5142,9.5022,9.3881,9.2525,9.1181,9.0937,8.8746,8.561,8.4898,8.4124,8.3486,8.305,8.3096,8.3334,0.0,0.0,0.0,0.0,0.0,0.0,0.0,0.0,0.0,0.0,0.0,0.0,0.0,0.0,0.0,0.0,0.0,0.0,0.0,0.0,0.0,0.0,0.0,0.0,0.0,0.0,0.0,0.0,0.0,0.0,9.6869,10.0099,10.1567,10.1677,10.41,10.4724,10.399,10.3182,9.8264,9.0482,8.3948,8.1232,8.0571,0.0,0.0,0.0,0.0,0.0,0.0,0.0,0.0,0.0,0.0,0.0,0.0,0.0,0.0,0.0,0.0,0.0,0.0,0.0,0.0,0.0,0.0,0.0,0.0,0.0,0.0,0.0,0.0,0.0,0.0,0.0,0.0,0.0,7.0432,7.554,7.9329,7.9431,8.3998,8.6321,8.4466,8.629,8.868,9.1151,9.3445,9.5652,9.7892,9.9432,10.0276,10.0276,10.101,10.101,10.0276,9.894,9.746,9.6069,9.4702,9.4039,9.4075,9.4039,9.3776,9.3168,9.2372,9.1383,9.0154,8.9376,8.8666,8.8074,8.9004,8.9021,8.8461,8.6939,8.6131,8.5554,0.0,0.0,0.0,0.0,0.0,0.0,0.0,0.0,0.0,0.0,0.0,0.0,0.0,0.0,0.0,0.0,0.0,0.0,0.0,0.0,0.0,0.0,0.0,0.0,0.0,0.0,0.0,0.0,9.7199,9.8741,9.9365,10.2008,10.3182,10.3293,10.5789,10.678,10.6486,10.5678,10.3696,10.0319,9.151,8.6224,8.3141,0.0,0.0,0.0,0.0,0.0,0.0,0.0,0.0,0.0,0.0,0.0,0.0,0.0,0.0,0.0,0.0,0.0,0.0,0.0,0.0,0.0,0.0,0.0,0.0,0.0,0.0,0.0,0.0,0.0,0.0,0.0,0.0,7.5845,7.5845,8.004,8.4133,8.6839,8.9884,9.2112,9.2989,9.3165,9.3903,9.5436,9.7079,9.8559,9.9744,10.0303,10.0811,10.1391,10.0084,9.9509,9.9687,9.7703,9.7109,9.7657,9.5735,9.5383,9.6444,9.491,9.4181,9.393,9.2296,9.0969,9.0154,8.9376,8.897,8.8777,8.8521,8.794,8.7313,8.6904,8.635,8.5655,0.0,0.0,0.0,0.0,0.0,0.0,0.0,0.0,0.0,0.0,0.0,0.0,0.0,0.0,0.0,0.0,0.0,0.0,0.0,0.0,0.0,0.0,0.0,0.0,0.0,0.0,9.485,9.8704,10.0319,10.1494,10.2412,10.4504,10.5385,10.5568,10.7991,10.9092,10.9092,10.8615,10.7918,10.6523,9.9512,9.4263,9.0115,8.5049,8.2215,8.0677,7.9389,7.7721,7.579,7.423,0.0,0.0,0.0,0.0,0.0,0.0,0.0,0.0,0.0,0.0,0.0,0.0,0.0,0.0,0.0,0.0,0.0,0.0,0.0,0.0,0.0,0.0,0.0,0.0,7.7096,8.0953,8.2847,8.5317,8.8125,9.1237,9.3876,9.5926,9.7056,9.7296,9.7769,9.8899,9.9952,10.0913,10.1614,10.1971,10.214,10.1997,10.1061,10.0422,10.0136,9.8223,9.7314,9.7119,9.5645,9.5294,9.585,9.4944,9.4463,0.0,9.253,9.1338,9.0594,8.9512,8.9072,0.0,0.0,0.0,0.0,0.0,8.6433,8.5655,0.0,0.0,0.0,0.0,0.0,0.0,0.0,0.0,0.0,0.0,0.0,0.0,0.0,0.0,0.0,0.0,0.0,0.0,0.0,0.0,0.0,7.8781,8.2922,8.7421,9.2535,9.6535,9.9695,10.2081,10.3586,10.4687,10.5422,10.7183,10.7991,10.8101,11.0414,11.1515,11.1515,11.1515,11.1111,11.0083,10.711,10.3293,9.8704,9.2574,9.0078,8.9454,8.6371,8.3434,8.0764,7.8758,0.0,0.0,0.0,0.0,0.0,0.0,0.0,0.0,0.0,0.0,0.0,0.0,0.0,0.0,0.0,0.0,0.0,0.0,0.0,0.0,0.0,0.0,0.0,0.0,8.1291,8.5655,9.0087,9.0932,9.1812,9.374,9.6514,9.8273,9.8273,9.9593,10.0725,10.1159,10.2028,10.257,10.3127,0.0,0.0,0.0,0.0,10.2352,10.0975,9.9646,9.8014,9.5908,9.5225,9.4552,9.3842,9.4518,9.4789,9.462,9.3199,9.2083,9.1169,8.9782,8.9173,8.9004,8.8361,8.8497,8.8903,8.755,8.6569,0.0,0.0,0.0,0.0,0.0,0.0,0.0,0.0,0.0,0.0,0.0,0.0,0.0,0.0,0.0,8.437,8.711,8.3355,7.9837,0.0,0.0,7.8715,8.2796,8.8932,9.4074,9.7847,10.1075,10.3586,10.5495,10.6376,10.6963,10.7183,10.9386,11.0487,11.0597,11.2286,11.3093,11.3093,11.3093,11.2983,11.28,11.1478,10.7,10.0613,9.6759,9.4079,9.2134,9.0152,8.905,8.8096,8.5133,8.3119,8.1088,7.6873,0.0,0.0,0.0,0.0,0.0,0.0,0.0,0.0,0.0,0.0,0.0,0.0,0.0,0.0,0.0,0.0,0.0,0.0,0.0,0.0,8.1562,8.5486,8.9376,9.33,9.5364,9.6447,9.6277,9.8341,9.9796,9.9796,10.1216,10.1886,10.1451,10.2455,10.3058,10.249,10.256,0.0,10.2282,10.1321,10.0858,10.1135,9.9727,9.8787,9.8221,0.0,0.0,9.5364,9.5499,9.5263,9.4654,9.374,9.2556,9.1237,9.0357,8.9647,8.9072,8.8937,8.897,8.897,8.8091,8.7313,8.6602,0.0,0.0,0.0,0.0,0.0,0.0,0.0,0.0,0.0,0.0,0.0,7.1041,7.3274,7.6826,7.9532,8.0648,7.8348,0.0,0.0,7.881,8.2639,8.8095,9.2978,9.7158,10.0561,10.3255,10.5542,10.7108,10.8647,10.9606,10.9973,11.1588,11.2396,11.2506,11.3681,11.4194,11.4194,11.4598,11.4598,11.4194,11.3791,11.1184,10.7183,10.3476,10.0171,9.7268,9.5595,9.3515,9.1164,8.8788,8.6514,8.4157,8.1365,7.8311,7.5527,0.0,0.0,0.0,0.0,0.0,0.0,0.0,0.0,0.0,0.0,0.0,0.0,0.0,0.0,7.4221,0.0,0.0,8.2678,8.6738,9.0222,9.347,9.648,9.8172,9.8984,9.8612,9.9897,10.0912,10.1318,10.2028,10.2299,10.1995,10.2586,10.2844,10.2467,10.2467,10.2262,10.1919,10.1155,10.0816,10.0668,10.0001,9.9424,9.8958,9.8711,9.8172,9.7428,9.7428,9.7056,9.6277,9.4789,9.3503,9.2319,9.0831,8.9985,8.9613,8.9241,8.9072,8.9004,8.826,8.7753,8.7279,0.0,0.0,0.0,0.0,0.0,0.0,0.0,0.0,0.0,0.0,0.0,6.8808,7.0263,7.2935,7.4322,0.0,0.0,0.0,0.0,8.1278,8.6646,9.2884,9.6342,9.9523,10.2384,10.4665,10.6711,10.8519,11.0332,11.1759,11.291,11.3497,11.3974,11.4305,11.5002,11.5406,11.5589,11.6397,11.6213,11.5516,11.5699,11.5185,11.3901,11.0487,10.6632,10.2724,10.068,9.6898,9.2858,9.1587,8.9072,8.6228,8.5329,8.3126,8.0287,7.7594,7.6368,0.0,0.0,0.0,0.0,0.0,0.0,0.0,0.0,0.0,7.3274,7.4897,7.6927,7.9295,8.2272,8.5012,8.8057,9.1778,9.4552,9.6988,9.9221,10.01,10.0506,10.0641,10.1081,10.1589,10.2198,10.2401,10.2502,10.2502,10.2502,10.2502,10.2502,10.2502,10.2198,10.1589,10.1589,10.1284,10.0709,10.0641,10.0303,9.9559,10.0134,10.0032,9.9322,9.9153,9.8713,9.7867,9.5533,9.4146,9.3402,9.1135,9.0222,9.0121,8.9376,8.9072,8.9004,8.8429,8.8125,8.782,0.0,0.0,0.0,0.0,0.0,0.0,0.0,0.0,0.0,0.0,0.0,0.0,0.0,0.0,0.0,0.0,0.0,0.0,7.9596,8.5648,9.1014,9.5229,10.0558,10.3782,10.4286,10.6506,10.8733,11.0937,11.1182,11.2377,11.4525,11.4598,11.5406,11.6801,11.6911,11.7314,11.8012,11.8893,11.8709,11.8085,11.8783,11.8195,11.669,11.5479,11.1811,10.6665,10.3143,9.8773,9.4817,9.4641,9.2238,8.9284,8.842,8.7195,8.526,8.0986,7.8311,7.6082,7.2902,7.1244,7.0364,7.0128,7.1041,7.2563,0.0,0.0,7.8855,8.0987,8.2678,8.4674,8.7651,8.9545,9.1913,9.5635,9.7123,9.8544,10.0777,10.1183,10.1487,10.2198,10.169,10.1386,10.1487,10.2096,10.2502,10.2502,10.2502,10.2502,10.2502,10.2502,10.2502,10.2401,10.2401,10.2299,10.2231,10.2231,10.1893,10.1081,10.1183,10.0811,10.01,9.939,9.8713,9.7834,9.4958,9.3673,9.3402,9.1135,9.0222,9.0121,8.9376,8.9072,8.9072,8.9004,8.8564,8.7888,0.0,0.0,0.0,0.0,0.0,0.0,0.0,0.0,0.0,0.0,0.0,0.0,0.0,0.0,0.0,0.0,0.0,0.0,7.9938,8.7692,9.4168,9.8815,10.2536,10.464,10.4647,10.6388,10.7845,10.8663,11.1372,11.3226,11.4158,11.5986,11.7314,11.7902,11.8416,11.8489,11.8489,12.0288,12.0288,11.9055,11.9478,11.8701,11.6928,11.3378,10.9296,10.5037,10.1959,9.7499,0.0,0.0,8.9704,8.8282,8.9272,8.7715,8.5114,8.2813,7.9938,7.6961,7.439,7.2902,7.2326,7.3172,7.5168,7.7401,7.9194,8.1697,8.4167,8.5926,8.782,9.0087,9.3064,9.4485,9.6142,0.0,9.9762,10.0608,10.2401,10.2299,10.1995,10.1893,10.1589,10.1589,10.1995,10.2299,10.2502,10.2502,10.2502,10.2502,10.2502,10.2502,10.2502,10.2502,10.2502,10.2502,10.2502,10.2502,10.2299,10.1995,10.1995,10.1893,10.1521,10.0777,9.9559,9.7935,9.6683,9.5669,9.4755,9.3402,9.2556,9.2083,9.1338,9.0493,8.9681,8.9241,8.8869,8.8531,0.0,0.0,0.0,0.0,0.0,0.0,0.0,0.0,0.0,0.0,0.0,0.0,0.0,0.0,0.0,0.0,0.0,0.0,0.0,8.7786,9.5093,10.0506,10.3077,10.4566,10.4971,10.6175,10.723,10.7739,11.1298,11.3737,11.5088,11.6901,11.8474,11.9811,11.9884,11.9619,11.9156,12.1165,12.0964,11.9246,11.9309,11.8186,11.6139,11.0852,10.5981,10.1552,9.8934,9.4276,0.0,8.6602,8.5351,8.5114,8.711,8.6163,8.4031,8.2678,7.9498,7.6183,7.4965,7.4525,7.4931,7.7029,7.9667,8.2272,8.437,8.6873,8.9275,9.1169,9.2996,9.506,9.7631,9.8578,9.9593,10.169,10.1995,10.2468,10.3686,10.3111,10.213,10.1183,10.0506,10.0405,10.1216,10.1825,10.2299,10.2502,10.2705,10.2705,10.2502,10.2908,10.2908,10.2502,10.2908,10.2908,10.2502,10.2908,10.2908,10.2502,10.2705,10.2705,10.2502,10.169,10.0269,9.8307,9.8104,9.7292,9.6007,9.4857,9.4079,9.347,9.2489,9.1338,9.0154,8.9579,8.9241,8.897,0.0,0.0,0.0,0.0,0.0,0.0,0.0,0.0,0.0,0.0,0.0,0.0,0.0,0.0,0.0,0.0,0.0,0.0,0.0,8.5757,9.2962,9.8916,10.1995,10.4295,10.5716,10.646,10.8,11.0218,11.1141,11.3748,11.83,11.6892,11.8737,12.3114,12.1499,12.0846,12.0754,12.1548,12.0621,11.8245,11.8435,11.7124,11.4573,10.9966,10.358,9.6745,9.3771,0.0,0.0,0.0,7.9938,7.96,8.1088,8.2475,8.2983,8.0107,7.6082,7.2868,7.4255,0.0,7.7671,8.1291,8.393,8.6569,9.0188,9.2252,9.4214,9.7123,9.8341,9.9356,10.098,10.1284,10.1792,10.328,10.3517,10.3787,10.4566,10.3415,10.1927,10.0438,9.8341,9.7326,0.0,10.01,10.169,10.2434,10.3179,10.328,10.2502,10.3889,10.399,10.2502,10.3889,10.3889,10.2502,10.3889,10.3889,10.2502,10.3212,10.3212,10.2502,10.169,10.0506,9.9018,9.8307,9.7563,9.6683,9.4518,9.3605,9.3436,9.1913,9.0865,9.0222,9.0188,8.9715,8.897,0.0,0.0,0.0,0.0,0.0,0.0,0.0,0.0,0.0,0.0,0.0,0.0,0.0,0.0,0.0,0.0,0.0,0.0,0.0,8.2543,8.897,9.4417,9.9457,10.2603,10.3618,10.531,10.6761,10.8035,10.992,11.1813,11.3889,11.5443,11.7197,11.9259,11.9796,11.967,11.917,12.0641,12.0712,11.9751,11.7244,11.5376,11.3331,10.6406,9.9038,9.1724,0.0,0.0,0.0,0.0,0.0,7.5743,7.7739,7.8348,7.7739,7.4796,7.4965,7.6217,0.0,0.0,8.3558,8.6771,9.0019,9.303,9.5229,9.7326,9.9051,10.0066,9.9254,9.8544,9.9051,9.8713,9.8882,10.0371,10.1893,10.3483,10.5208,10.4599,10.2806,9.9829,9.9254,0.0,0.0,0.0,0.0,10.1589,10.2502,10.3009,10.3212,10.3686,10.399,10.399,10.4396,10.4464,10.399,10.4464,10.4193,10.3212,10.3009,10.2705,10.2502,10.169,10.0811,9.9796,9.9051,9.8307,9.7563,9.6819,9.5939,9.4992,9.4485,9.3233,9.1609,9.1102,9.0459,8.9715,0.0,0.0,0.0,0.0,0.0,0.0,0.0,0.0,0.0,0.0,0.0,0.0,0.0,0.0,0.0,0.0,0.0,0.0,0.0,0.0,8.3016,8.8226,9.2658,9.5736,9.7292,9.8442,9.9931,10.169,10.3747,10.6057,10.8747,11.1023,11.3175,11.5423,11.6451,11.6519,11.5983,11.6844,11.6122,11.4343,11.0669,10.7909,10.4964,9.7745,9.0831,0.0,0.0,0.0,0.0,0.0,7.1075,7.2157,7.3646,7.4119,7.3916,7.28,7.51,7.8382,0.0,8.42,8.8598,9.2116,9.5195,9.7834,9.9593,10.0912,10.1589,10.1081,9.9187,9.736,9.6582,9.5161,9.4857,9.7157,9.8781,10.0912,10.4193,10.372,10.2299,10.0168,9.9153,9.8104,0.0,0.0,0.0,10.1183,10.2096,10.2705,10.3179,10.3686,10.4092,10.4295,10.4802,10.4971,10.4667,10.4971,10.4599,10.3585,10.2908,10.2502,10.2502,10.1995,10.1386,10.0608,9.9829,9.9085,9.8341,9.7834,9.7056,9.6142,9.5601,9.4349,9.2759,9.1981,9.1068,9.0087,0.0,0.0,0.0,0.0,0.0,0.0,0.0,0.0,0.0,0.0,0.0,0.0,0.0,0.0,0.0,0.0,0.0,0.0,0.0,0.0,0.0,8.0479,8.2306,8.4606,8.7583,8.711,8.8564,9.215,9.3639,9.737,10.3105,10.3787,10.6483,11.0852,11.0923,11.0816,11.0564,10.9871,10.7129,10.2806,9.9796,9.5601,9.056,8.5351,0.0,0.0,0.0,0.0,0.0,0.0,6.7861,6.918,6.935,7.0364,7.1954,7.4255,0.0,7.9634,8.4776,8.8937,9.2861,9.7191,9.939,10.1014,10.3111,10.2908,10.1893,10.0303,9.8003,9.5635,0.0,0.0,9.0154,9.3876,9.4755,9.6785,10.1927,10.1419,10.0811,0.0,0.0,0.0,0.0,0.0,0.0,10.1284,0.0,10.2502,10.2603,10.399,10.4464,10.3787,10.5107,10.5513,10.4769,10.5411,10.5005,10.3618,10.2908,10.2502,10.2502,10.2502,10.2096,10.1386,10.0506,9.9762,9.8984,9.7529,9.6886,9.6683,9.5296,9.4282,9.347,9.2725,9.1541,9.0222,0.0,0.0,0.0,0.0,0.0,0.0,0.0,0.0,0.0,0.0,0.0,0.0,0.0,0.0,0.0,0.0,0.0,0.0,0.0,0.0,0.0,0.0,0.0,0.0,0.0,0.0,0.0,8.8328,8.9241,9.0754,9.2952,9.4134,9.5661,9.7391,9.7974,9.8255,9.8156,9.7985,9.7235,9.5872,9.2861,9.0527,8.8328,8.3625,0.0,0.0,0.0,0.0,0.0,0.0,6.8199,7.0297,7.2496,7.3477,7.4525,0.0,0.0,8.6332,9.0459,9.5127,9.9356,10.1589,10.2874,10.3585,10.3585,10.169,9.9221,9.665,9.2116,8.7753,8.4945,0.0,0.0,9.0831,9.5567,0.0,10.4396,10.5107,0.0,10.2502,0.0,10.1115,9.9796,9.9491,0.0,0.0,10.2705,10.3009,10.4092,10.5005,10.5682,10.602,10.6392,10.6494,10.6291,10.5377,10.4769,10.4396,10.3111,10.2502,10.2502,10.1893,10.1589,10.1284,9.9965,9.9254,9.9018,9.8104,9.7056,9.6041,9.5669,9.4721,9.347,9.2725,9.2184,9.1677,0.0,0.0,0.0,0.0,0.0,0.0,0.0,0.0,0.0,0.0,0.0,0.0,0.0,0.0,0.0,0.0,0.0,0.0,0.0,0.0,0.0,0.0,0.0,0.0,0.0,0.0,0.0,0.0,0.0,0.0,8.4742,8.5892,8.7008,8.8057,8.8835,8.9545,9.0121,8.9782,8.9072,0.0,0.0,8.2983,8.0818,7.7638,7.4661,0.0,0.0,0.0,0.0,0.0,7.1785,7.3713,7.6995,7.872,8.031,8.4471,0.0,9.215,9.5567,9.9829,10.3483,10.399,10.4599,10.4396,10.1386,9.9085,9.6142,9.0865,8.6332,8.2509,7.9837,8.1021,8.3659,0.0,0.0,0.0,10.3212,10.4498,10.4802,0.0,10.3889,0.0,10.3212,10.2299,10.2502,0.0,10.3314,10.3111,10.4599,10.5073,10.5682,10.6392,10.6392,10.6392,10.6392,10.5276,10.4498,10.4193,10.3077,10.2502,10.2502,10.2096,10.1893,10.1792,0.0,9.9593,9.9491,9.8442,9.7326,9.6244,9.5939,9.5093,9.3977,9.3199,9.2522,9.1812,0.0,0.0,0.0,0.0,0.0,0.0,0.0,0.0,0.0,0.0,0.0,0.0,0.0,0.0,0.0,0.0,0.0,0.0,0.0,0.0,0.0,0.0,0.0,0.0,0.0,0.0,0.0,0.0,0.0,0.0,0.0,0.0,7.9397,8.0682,8.1393,8.2475,8.3693,8.3118,8.1663,7.9634,7.7739,7.4965,7.1819,0.0,0.0,0.0,0.0,0.0,0.0,0.0,7.7029,7.845,8.2238,8.508,8.7719,9.1508,9.4687,9.7597,10.0506,10.3821,10.6291,10.5377,10.5479,10.4227,9.824,9.577,9.2489,8.4437,8.0851,7.8483,7.6284,7.686,7.9464,8.4911,0.0,9.4721,10.0777,10.2401,10.3923,10.6595,10.531,10.5005,10.7001,10.5377,10.4802,10.6122,10.4396,10.372,10.4769,10.4904,10.5276,10.5919,10.5919,10.5919,10.5919,10.5107,10.4363,10.3686,10.2908,10.2502,10.2502,10.2502,10.2502,10.2401,0.0,0.0,10.0134,9.8713,9.7631,9.6819,9.6176,9.5432,9.462,9.3977,9.2827,9.1575,0.0,0.0,0.0,0.0,0.0,0.0,0.0,0.0,0.0,0.0,0.0,0.0,0.0,0.0,0.0,0.0,0.0,0.0,0.0,0.0,0.0,0.0,0.0,0.0,0.0,0.0,0.0,0.0,0.0,0.0,0.0,0.0,7.1176,7.1447,7.2157,7.2631,7.2935,7.3409,7.3037,7.209,7.1684,7.0804,6.9722,0.0,0.0,0.0,0.0,0.0,0.0,0.0,8.1224,8.3118,8.7482,9.0831,9.4011,9.8375,10.1284,10.3686,10.602,10.8524,10.9911,10.7915,10.6595,10.4227,9.824,9.2962,8.738,8.0378,7.6183,7.3071,7.0872,7.3544,7.8213,8.4708,9.0053,9.5669,10.2299,10.4396,10.5614,0.0,10.7103,10.761,10.8693,10.7881,0.0,0.0,0.0,10.6629,10.5682,10.6189,10.6595,10.6697,10.6697,10.6697,10.6697,10.5377,10.4599,10.4498,10.3111,10.2502,10.2502,10.2502,10.2502,10.2502,0.0,0.0,10.0134,9.9288,9.8104,9.6853,9.6751,9.5872,9.4687,9.4552,9.3943,9.2996,0.0,0.0,0.0,0.0,0.0,0.0,0.0,0.0,0.0,0.0,0.0,0.0,0.0,0.0,0.0,0.0,0.0,0.0,0.0,0.0,0.0,0.0,0.0,0.0,0.0,0.0,0.0,0.0,0.0,0.0,0.0,0.0,0.0,0.0,0.0,0.0,0.0,7.0567,7.0737,0.0,0.0,0.0,0.0,0.0,0.0,0.0,0.0,0.0,0.0,0.0,8.2306,8.738,9.3064,9.7157,10.0574,10.3889,10.5885,10.7407,10.9302,11.1095,11.1906,10.9302,10.6595,10.2603,9.462,8.8497,8.2374,7.4897,7.1582,6.9722,6.8673,7.2124,7.669,8.1528,8.6366,9.2015,9.9119,10.1081,10.3212,10.7001,10.7813,10.8794,11.0689,10.9505,10.9099,0.0,0.0,10.7712,10.7001,10.69,10.69,10.69,10.69,10.69,10.69,10.5377,10.4667,10.4667,10.3212,10.2502,10.2502,10.2502,10.2502,10.2502,0.0,0.0,10.0134,9.939,9.8206,9.6853,9.648,9.5669,9.4654,9.4282,9.3639,9.2827,0.0,0.0,0.0,0.0,0.0,0.0,0.0,0.0,0.0,0.0,0.0,0.0,0.0,0.0,0.0,0.0,0.0,0.0,0.0,0.0,0.0,0.0,0.0,0.0,0.0,0.0,0.0,0.0,0.0,0.0,0.0,0.0,0.0,0.0,0.0,0.0,0.0,0.0,0.0,0.0,0.0,0.0,0.0,0.0,0.0,0.0,0.0,0.0,0.0,0.0,8.1832,8.8497,9.4755,10.0371,10.5073,10.7001,10.8524,10.9978,11.167,11.309,11.3327,11.0181,10.6392,10.0878,9.1271,8.4809,7.8619,7.0906,6.8707,6.8199,6.8368,7.1413,7.5067,7.8551,8.2475,8.7651,9.5127,9.736,10.0506,10.6798,10.8016,10.9302,11.1974,11.0689,0.0,0.0,0.0,0.0,10.7813,10.7204,10.69,10.69,10.69,10.69,10.69,10.558,10.487,10.4667,10.3382,10.2705,10.2502,10.2502,10.2502,10.2502,0.0,0.0,0.0,9.966,9.8544,9.7292,9.6548,9.5804,9.5093,9.4349,9.3571,9.2793,0.0,0.0,0.0,0.0,0.0,0.0,0.0,0.0,0.0,0.0,0.0,0.0,0.0,0.0,0.0,0.0,0.0,0.0,0.0,0.0,0.0,0.0,0.0,0.0,0.0,0.0,0.0,0.0,0.0,0.0,0.0,0.0,0.0,0.0,0.0,0.0,0.0,0.0,0.0,0.0,0.0,0.0,0.0,0.0,0.0,0.0,0.0,0.0,0.0,7.7232,8.0276,8.2813,8.755,9.6244,10.487,10.5716,10.849,11.167,11.3801,11.4985,11.4714,11.1095,10.6392,10.0202,9.1169,8.4031,7.757,7.1379,6.9519,6.918,6.9857,7.0872,7.3274,7.828,8.1156,8.5317,9.2827,9.6819,10.0709,10.5411,10.7813,10.9708,11.1298,11.1298,0.0,0.0,0.0,0.0,0.0,10.69,10.69,10.69,10.69,10.69,10.69,10.6088,10.5377,10.4667,10.3889,10.3111,10.2502,10.2502,10.2502,10.2502,0.0,0.0,0.0,10.0405,9.9627,9.8815,9.8104,9.736,9.6582,9.5872,9.5127,9.4282,0.0,0.0,0.0,0.0,0.0,0.0,0.0,0.0,0.0,0.0,0.0,0.0,0.0,0.0,0.0,0.0,0.0,0.0,0.0,0.0,0.0,0.0,0.0,0.0,0.0,0.0,0.0,0.0,0.0,0.0,0.0,0.0,0.0,0.0,0.0,0.0,0.0,0.0,0.0,0.0,0.0,0.0,0.0,0.0,0.0,0.0,0.0,0.0,0.0,7.3713,7.6589,7.9363,7.9803,8.6095,9.4518,10.0608,10.4802,10.8287,11.2786,11.4917,11.512,11.2312,10.6325,9.9153,9.1508,8.3558,7.6318,7.1244,6.962,6.918,6.9485,7.0128,7.1447,7.4018,7.5168,7.801,8.4606,8.7922,9.2692,10.0811,10.4193,10.761,0.0,0.0,0.0,0.0,0.0,0.0,0.0,10.7103,10.69,10.69,10.69,10.6697,10.6223,10.5479,10.4769,10.399,10.328,10.2806,10.2502,10.2502,10.2502,10.2502,0.0,0.0,0.0,10.1081,10.0202,9.9018,9.8307,9.7529,9.6751,9.5567,9.4958,9.4485,0.0,0.0,0.0,0.0,0.0,0.0,0.0,0.0,0.0,0.0,0.0,0.0,0.0,0.0,0.0,0.0,0.0,0.0,0.0,0.0,0.0,0.0,0.0,0.0,0.0,0.0,0.0,0.0,0.0,0.0,0.0,0.0,0.0,0.0,0.0,0.0,0.0,0.0,0.0,0.0,0.0,0.0,0.0,0.0,0.0,0.0,0.0,0.0,0.0,0.0,0.0,7.5743,7.4153,7.7536,8.4099,9.4011,9.9999,10.4599,11.0384,11.3699,11.4917,11.2685,10.5986,9.8138,9.1406,8.3152,7.5676,7.1413,7.0128,6.9755,6.9755,7.0195,7.0703,7.1244,7.1684,7.395,7.9701,8.2441,8.7245,9.6379,0.0,10.3686,0.0,0.0,0.0,0.0,0.0,0.0,0.0,10.7204,10.69,10.69,10.6697,10.6291,10.5817,10.5073,10.4295,10.3585,10.3077,10.2705,10.2502,10.2502,10.2502,10.2502,0.0,0.0,0.0,10.1487,10.0608,9.9356,9.8612,9.7867,9.7056,9.5804,9.5229,9.4857,0.0,0.0,0.0,0.0,0.0,0.0,0.0,0.0,0.0,0.0,0.0,0.0,0.0,0.0,0.0,0.0,0.0,0.0,0.0,0.0,0.0,0.0,0.0,0.0,0.0,0.0,0.0,0.0,0.0,0.0,0.0,0.0,0.0,0.0,0.0,0.0,0.0,0.0,0.0,0.0,0.0,0.0,0.0,0.0,0.0,0.0,0.0,0.0,0.0,0.0,0.0,0.0,0.0,7.2394,7.5676,8.6129,9.4451,10.1419,10.6629,11.1298,11.4173,11.1974,10.5208,9.736,9.0628,8.278,7.5845,7.209,7.1312,7.1312,7.1312,7.1312,7.1312,7.1312,7.2529,7.5303,8.0547,8.3253,8.6907,9.2928,9.4958,9.7664,10.2198,0.0,0.0,0.0,0.0,0.0,0.0,10.69,10.69,10.69,10.6189,10.5817,10.5817,10.5073,10.4295,10.3585,10.3585,10.3212,10.2502,10.2502,10.2502,0.0,0.0,0.0,0.0,10.169,10.0912,10.0134,9.939,9.8645,9.7901,9.7123,9.6413,9.5669,0.0,0.0,0.0,0.0,0.0,0.0,0.0,0.0,0.0,0.0,0.0,0.0,0.0,0.0,0.0,0.0,0.0,0.0,0.0,0.0,0.0,0.0,0.0,0.0,0.0,0.0,0.0,0.0,0.0,0.0,0.0,0.0,0.0,0.0,0.0,0.0,0.0,0.0,0.0,0.0,0.0,0.0,0.0,0.0,0.0,0.0,0.0,0.0,0.0,0.0,0.0,0.0,0.0,0.0,0.0,7.7773,8.5215,9.2793,9.7022,10.0303,10.2096,10.0405,9.533,8.9681,8.5486,8.0141,7.5168,7.1988,7.1312,7.1312,7.1312,7.1312,7.1819,7.3341,7.395,7.5202,7.7908,8.2408,8.7482,9.2928,10.1656,10.7779,0.0,0.0,0.0,0.0,0.0,0.0,0.0,10.7204,10.6697,10.6189,10.5919,10.531,10.4295,10.4092,10.3585,10.2806,10.2806,10.2705,10.2502,10.2502,0.0,0.0,0.0,0.0,0.0,10.169,10.0912,10.0134,9.939,9.8645,9.7901,9.7157,9.6717,9.6345,0.0,0.0,0.0,0.0,0.0,0.0,0.0,0.0,0.0,0.0,0.0,0.0,0.0,0.0,0.0,0.0,0.0,0.0,0.0,0.0,0.0,0.0,0.0,0.0,0.0,0.0,0.0,0.0,0.0,0.0,0.0,0.0,0.0,0.0,0.0,0.0,0.0,0.0,0.0,0.0,0.0,0.0,7.1312,0.0,0.0,0.0,0.0,0.0,0.0,0.0,0.0,0.0,0.0,0.0,0.0,0.0,7.8145,8.4065,8.9241,9.3098,9.5364,9.4146,9.0154,8.5689,8.2678,7.828,7.4187,7.1819,7.1312,7.1312,7.1312,7.1312,7.1751,7.3138,7.3375,7.4289,7.6927,8.146,0.0,9.3639,0.0,0.0,0.0,0.0,0.0,0.0,0.0,0.0,0.0,0.0,10.6392,10.5411,10.5377,10.4904,10.399,10.3483,10.2976,10.2502,10.2502,10.2502,10.2502,10.2502,0.0,0.0,0.0,0.0,0.0,10.1589,10.0777,9.9762,9.9288,9.8645,9.7935,9.7461,9.6954,9.6345,0.0,0.0,0.0,0.0,0.0,0.0,0.0,0.0,0.0,0.0,0.0,0.0,0.0,0.0,0.0,0.0,0.0,0.0,0.0,0.0,0.0,0.0,0.0,0.0,0.0,0.0,0.0,0.0,0.0,0.0,0.0,0.0,0.0,0.0,0.0,0.0,0.0,0.0,0.0,0.0,0.0,0.0,0.0,0.0,0.0,0.0,0.0,0.0,0.0,0.0,0.0,0.0,0.0,0.0,0.0,0.0,0.0,0.0,0.0,8.8429,9.2049,9.1271,8.7922,8.4099,8.1291,7.6893,0.0,7.1616,0.0,7.1312,7.1312,7.1312,7.1379,7.1515,7.1582,7.3138,7.7468,8.1122,0.0,0.0,10.0405,0.0,0.0,0.0,0.0,0.0,0.0,0.0,0.0,0.0,10.6189,10.4802,10.4667,10.4566,10.4498,10.3179,10.2502,10.2502,10.2502,10.2502,10.2502,10.2502,0.0,0.0,0.0,0.0,0.0,10.1284,10.0371,9.9085,9.9051,9.8612,9.8003,9.7935,9.7056,9.5838,0.0,0.0,0.0,0.0,0.0,0.0,0.0,0.0,0.0,0.0,0.0,0.0,0.0,0.0,0.0,0.0,0.0,0.0,0.0,0.0,0.0,0.0,0.0,0.0,0.0,0.0,0.0,0.0,0.0,0.0,0.0,0.0,0.0,0.0,0.0,0.0,0.0,0.0,0.0,0.0,0.0,0.0,0.0,0.0,0.0,0.0,7.1312,7.1312,0.0,0.0,0.0,0.0,0.0,0.0,0.0,0.0,7.1819,0.0,0.0,0.0,7.8889,7.8111,7.6724,7.5371,0.0,7.3544,7.2394,0.0,0.0,0.0,0.0,7.1312,7.1853,7.3578,7.4289,7.5642,7.845,8.6805,0.0,0.0,0.0,0.0,0.0,0.0,0.0,0.0,0.0,0.0,0.0,0.0,10.5919,10.558,10.4396,10.3585,10.3009,10.2705,10.2502,10.2502,10.2502,10.2502,10.2502,10.2502,0.0,0.0,0.0,0.0,0.0,10.01,9.9424,9.9051,9.8476,9.8172,9.7935,9.736,9.692,9.648,0.0,0.0,0.0,0.0,0.0,0.0,0.0,0.0,0.0,0.0,0.0,0.0,0.0,0.0,0.0,0.0,0.0,0.0,0.0,0.0,0.0,0.0,0.0,0.0,0.0,0.0,0.0,0.0,0.0,0.0,0.0,0.0,0.0,0.0,0.0,0.0,0.0,0.0,0.0,0.0,0.0,0.0,0.0,0.0,0.0,0.0,7.1312,7.1312,0.0,7.1312,7.1312,7.1312,0.0,0.0,0.0,0.0,7.1312,0.0,7.1312,7.2428,7.351,7.3071,7.2699,7.2394,7.2394,7.2157,7.1785,0.0,0.0,0.0,0.0,0.0,7.1819,7.3341,7.4492,7.7198,0.0,0.0,9.7766,0.0,0.0,0.0,0.0,0.0,0.0,0.0,0.0,0.0,0.0,0.0,10.5513,10.4802,10.399,10.3415,10.3009,10.2705,10.2502,10.2502,10.2502,10.2502,10.2502,10.2502,0.0,0.0,0.0,0.0,10.0269,9.9424,9.8882,9.8544,9.8172,9.78,9.7428,9.7022,9.6447,9.577,0.0,0.0,0.0,0.0,0.0,0.0,0.0,0.0,0.0,0.0,0.0,0.0,0.0,0.0,0.0,0.0,0.0,0.0,0.0,0.0,0.0,0.0,0.0,0.0,0.0,0.0,0.0,0.0,0.0,0.0,0.0,0.0,0.0,0.0,0.0,0.0,0.0,0.0,0.0,0.0,0.0,0.0,0.0,0.0,0.0,0.0,0.0,0.0,0.0,7.1312,7.1312,7.1312,7.1312,0.0,0.0,0.0,0.0,0.0,7.1718,7.2259,7.2665,7.2326,7.2225,7.2225,7.2225,7.1751,7.1312,7.1312,0.0,0.0,0.0,7.1582,0.0,7.2631,7.4661,0.0,8.8801,9.3267,9.8037,0.0,0.0,0.0,0.0,0.0,0.0,0.0,0.0,0.0,0.0,0.0,0.0,10.3618,10.3483,10.3415,10.3415,10.2806,10.2502,10.2502,10.2502,10.2401,10.2299,10.2299,0.0,0.0,0.0,0.0,9.9085,9.8984,9.851,9.7834,9.7834,9.736,9.6717,9.6582,9.577,9.4687,0.0,0.0,0.0,0.0,0.0,0.0,0.0,0.0,0.0,0.0,0.0,0.0,0.0,0.0,0.0,0.0,0.0,0.0,0.0,0.0,0.0,0.0,0.0,0.0,0.0,0.0,0.0,0.0,0.0,0.0,0.0,0.0,0.0,0.0,0.0,0.0,0.0,0.0,0.0,0.0,0.0,0.0,0.0,0.0,0.0,0.0,0.0,0.0,0.0,7.1312,7.1312,7.1312,7.1312,0.0,0.0,0.0,0.0,0.0,7.3612,7.4187,7.3815,7.1954,7.1481,7.1481,7.1481,7.1379,7.1312,7.1312,0.0,0.0,0.0,7.2834,7.4153,0.0,0.0,0.0,0.0,0.0,0.0,0.0,0.0,0.0,0.0,0.0,0.0,0.0,0.0,0.0,0.0,0.0,0.0,10.3585,10.3009,10.2705,10.2705,10.2603,10.2502,10.2502,10.2502,10.2198,10.1589,10.1589,10.1115,0.0,0.0,0.0,9.9051,9.8442,9.7732,9.7056,9.7056,9.6616,9.5872,9.5263,9.489,9.462,0.0,0.0,0.0,0.0,0.0,0.0,0.0,0.0,0.0,0.0,0.0,0.0,0.0,0.0,0.0,0.0,0.0,0.0,0.0,0.0,0.0,0.0,0.0,0.0,0.0,0.0,0.0,0.0,0.0,0.0,0.0,0.0,0.0,0.0,0.0,0.0,0.0,0.0,0.0,0.0,0.0,0.0,0.0,0.0,0.0,0.0,0.0,0.0,0.0,0.0,7.1312,7.1312,7.1312,0.0,0.0,0.0,0.0,0.0,7.2563,7.2834,7.2868,7.3037,7.3375,7.3274,7.1684,7.1616,7.1887,0.0,0.0,0.0,0.0,0.0,7.7874,0.0,0.0,0.0,0.0,0.0,0.0,0.0,0.0,0.0,0.0,0.0,0.0,0.0,0.0,0.0,0.0,0.0,0.0,0.0,10.2705,10.2502,10.2502,10.2502,10.2502,10.2502,10.2096,10.169,10.1386,10.0912,10.0303,0.0,0.0,9.8882,9.8442,9.7698,9.7191,9.6853,9.6447,9.5838,9.5127,9.4383,9.4112,9.4045,0.0,0.0,0.0,0.0,0.0,0.0,0.0,0.0,0.0,0.0,0.0,0.0,0.0,0.0,0.0,0.0,0.0,0.0,0.0,0.0,0.0,0.0,0.0,0.0,0.0,0.0,0.0,0.0,0.0,0.0,0.0,0.0,0.0,0.0,0.0,0.0,0.0,0.0,0.0,0.0,0.0,0.0,0.0,0.0,0.0,0.0,0.0,0.0,0.0,0.0,0.0,0.0,0.0,0.0,0.0,0.0,7.1312,7.1413,7.1954,7.209,7.2496,7.4187,7.4661,7.439,7.3375,0.0,0.0,0.0,0.0,0.0,0.0,7.8044,0.0,0.0,0.0,0.0,0.0,0.0,0.0,0.0,0.0,0.0,0.0,0.0,0.0,0.0,0.0,0.0,0.0,0.0,0.0,0.0,10.2231,10.2198,10.1995,10.1995,10.2096,10.2198,10.169,10.1183,10.0811,10.0202,9.9559,9.8815,9.8645,9.824,9.7698,9.6954,9.6514,9.6311,9.577,9.5195,9.4654,9.4079,9.3842,9.3842,0.0,0.0,0.0,0.0,0.0,0.0,0.0,0.0,0.0,0.0,0.0,0.0,0.0,0.0,0.0,0.0,0.0,0.0,0.0,0.0,0.0,0.0,0.0,0.0,0.0,0.0,0.0,0.0,0.0,0.0,8.0818,7.7908,7.5777,0.0,0.0,0.0,0.0,0.0,0.0,0.0,0.0,0.0,0.0,0.0,0.0,0.0,0.0,0.0,0.0,0.0,0.0,0.0,0.0,0.0,0.0,0.0,7.1312,7.1751,7.3815,7.4356,7.4424,7.4559,7.3105,0.0,7.7502,7.7536,0.0,7.9228,0.0,0.0,0.0,0.0,0.0,0.0,0.0,0.0,0.0,0.0,0.0,0.0,0.0,0.0,0.0,0.0,0.0,0.0,0.0,0.0,0.0,0.0,0.0,0.0,0.0,10.1115,10.0405,10.0405,10.0709,10.1487,10.1386,10.0675,9.9254,9.9187,9.8781,9.8037,9.736,9.7022,9.692,9.6176,9.5466,9.4857,9.4823,9.4755,9.4687,9.4654,9.462,9.462,0.0,0.0,0.0,0.0,0.0,0.0,0.0,0.0,0.0,0.0,0.0,0.0,0.0,0.0,0.0,0.0,0.0,0.0,0.0,0.0,0.0,0.0,0.0,0.0,0.0,0.0,0.0,7.4864,7.8213,7.9904,7.9904,7.7841,0.0,0.0,0.0,0.0,0.0,0.0,0.0,0.0,0.0,0.0,0.0,0.0,0.0,0.0,0.0,0.0,0.0,0.0,7.1312,0.0,0.0,0.0,0.0,0.0,7.1312,7.1481,7.2326,7.3578,7.4728,7.5168,7.5371,0.0,0.0,7.9735,8.0851,0.0,0.0,0.0,0.0,0.0,0.0,0.0,0.0,0.0,0.0,0.0,0.0,0.0,0.0,0.0,0.0,0.0,0.0,0.0,0.0,0.0,0.0,0.0,0.0,0.0,0.0,10.0506,10.0235,10.0235,10.01,9.9965,9.9491,9.9221,9.9051,9.7664,9.7157,9.7292,9.7022,9.6616,9.6176,9.5905,9.5364,9.4654,9.4214,9.4011,9.4011,9.4011,9.4011,9.4011,0.0,0.0,0.0,0.0,0.0,0.0,0.0,0.0,0.0,0.0,0.0,0.0,0.0,0.0,0.0,0.0,0.0,0.0,0.0,0.0,0.0,0.0,0.0,6.7624,6.9417,7.1345,7.3578,7.6082,8.0818,8.1968,7.9769,0.0,0.0,0.0,0.0,0.0,0.0,0.0,0.0,0.0,0.0,0.0,0.0,0.0,0.0,0.0,0.0,0.0,0.0,0.0,0.0,0.0,0.0,0.0,0.0,0.0,0.0,7.1312,7.1312,7.2428,7.3815,7.4762,7.6487,0.0,8.1596,8.3422,8.5283,8.7989,0.0,0.0,0.0,0.0,0.0,0.0,0.0,0.0,0.0,0.0,0.0,0.0,0.0,0.0,0.0,0.0,0.0,0.0,0.0,0.0,0.0,0.0,0.0,0.0,0.0,0.0,9.9525,9.9288,9.8916,9.8375,9.7428,9.7461,9.8341,9.6819,9.6277,9.6514,9.6311,9.5905,9.5432,9.5195,9.4823,9.4315,9.3774,9.374,9.3943,9.3943,9.3943,9.3909,0.0,0.0,0.0,0.0,0.0,0.0,0.0,0.0,0.0,0.0,0.0,0.0,0.0,0.0,0.0,0.0,0.0,0.0,0.0,0.0,0.0,0.0,0.0,6.7861,7.0094,7.3071,7.5337,7.6927,8.2069,8.3422,8.1156,0.0,0.0,0.0,0.0,0.0,0.0,0.0,0.0,0.0,0.0,0.0,0.0,0.0,0.0,0.0,0.0,0.0,0.0,0.0,0.0,0.0,0.0,0.0,0.0,0.0,7.1312,7.1312,7.1312,7.1345,7.1684,7.3138,7.5811,0.0,8.7414,8.9106,9.0594,9.5838,0.0,0.0,0.0,0.0,0.0,0.0,0.0,0.0,0.0,0.0,0.0,0.0,0.0,0.0,0.0,0.0,0.0,0.0,0.0,0.0,0.0,0.0,0.0,0.0,0.0,0.0,9.8003,9.7258,9.6886,9.6853,9.5398,9.5466,9.6853,9.6853,9.6447,9.5736,9.5026,9.4687,9.462,9.3876,9.3571,9.3571,9.3571,9.4045,9.4687,9.4687,9.4687,9.4586,0.0,0.0,0.0,0.0,0.0,0.0,0.0,0.0,0.0,0.0,0.0,0.0,0.0,0.0,0.0,0.0,0.0,0.0,0.0,0.0,0.0,0.0,0.0,0.0,0.0,0.0,7.4322,7.845,8.1021,8.031,0.0,0.0,0.0,7.2191,0.0,0.0,0.0,0.0,0.0,0.0,0.0,0.0,0.0,0.0,0.0,0.0,0.0,0.0,0.0,0.0,0.0,0.0,0.0,0.0,0.0,7.1447,7.1684,7.1954,7.1447,7.2462,0.0,7.5506,0.0,0.0,0.0,9.144,0.0,0.0,0.0,0.0,0.0,0.0,0.0,0.0,0.0,0.0,0.0,0.0,0.0,0.0,0.0,0.0,0.0,0.0,0.0,0.0,0.0,0.0,0.0,0.0,0.0,0.0,0.0,0.0,9.7225,9.6988,9.6616,9.6108,9.5669,9.5702,9.6074,9.5026,9.4721,9.5026,9.4789,9.4079,9.3098,9.2861,9.3098,9.3571,9.3571,9.3706,9.3909,9.3909,9.3571,9.3064,0.0,0.0,0.0,0.0,0.0,0.0,0.0,0.0,0.0,0.0,0.0,0.0,0.0,0.0,0.0,0.0,0.0,0.0,0.0,0.0,0.0,0.0,0.0,0.0,0.0,7.0804,7.3443,0.0,0.0,0.0,0.0,0.0,0.0,7.3815,0.0,0.0,0.0,0.0,0.0,0.0,0.0,0.0,0.0,0.0,0.0,0.0,0.0,0.0,0.0,0.0,0.0,0.0,0.0,0.0,0.0,7.1447,7.1616,7.1887,7.1447,0.0,0.0,7.7976,8.2475,0.0,0.0,0.0,0.0,0.0,0.0,0.0,0.0,0.0,0.0,0.0,0.0,0.0,0.0,0.0,0.0,0.0,0.0,0.0,0.0,0.0,0.0,0.0,0.0,0.0,0.0,0.0,0.0,0.0,0.0,0.0,9.6447,9.6176,9.5804,9.5364,9.506,9.4924,9.489,9.4315,9.3943,9.3774,9.3503,9.2996,9.2387,9.2083,9.2252,9.2692,9.2692,9.2692,9.2692,9.2692,9.2387,9.1947,0.0,0.0,0.0,0.0,0.0,0.0,0.0,0.0,0.0,0.0,0.0,0.0,0.0,0.0,0.0,0.0,0.0,0.0,0.0,0.0,0.0,0.0,0.0,0.0,0.0,0.0,0.0,0.0,0.0,0.0,0.0,0.0,7.828,7.8889,0.0,8.0851,0.0,0.0,0.0,0.0,0.0,0.0,0.0,0.0,0.0,0.0,0.0,0.0,0.0,0.0,0.0,0.0,0.0,7.1379,7.1413,7.1345,7.1379,7.1447,7.1582,0.0,0.0,0.0,0.0,0.0,0.0,0.0,0.0,0.0,0.0,0.0,0.0,0.0,0.0,0.0,0.0,0.0,0.0,0.0,0.0,0.0,0.0,0.0,0.0,0.0,0.0,0.0,0.0,0.0,0.0,0.0,0.0,0.0,0.0,0.0,9.5601,9.4924,9.4586,0.0,9.3808,9.3503,9.3605,9.4214,9.3706,9.2286,9.1541,9.1609,9.2252,9.1508,9.1237,9.1305,9.1305,9.1305,9.1305,9.1305,9.1271,9.1102,0.0,0.0,0.0,0.0,0.0,0.0,0.0,0.0,0.0,0.0,0.0,0.0,0.0,0.0,0.0,0.0,0.0,0.0,0.0,0.0,0.0,0.0,0.0,0.0,0.0,0.0,0.0,0.0,0.0,0.0,0.0,0.0,0.0,7.6521,0.0,7.8247,0.0,0.0,0.0,0.0,0.0,0.0,0.0,0.0,0.0,0.0,0.0,0.0,0.0,0.0,0.0,0.0,7.1142,7.1718,7.2056,7.1481,7.1718,7.2428,0.0,7.5134,0.0,0.0,0.0,0.0,0.0,0.0,0.0,0.0,0.0,0.0,0.0,0.0,0.0,0.0,0.0,0.0,0.0,0.0,0.0,0.0,0.0,0.0,0.0,0.0,0.0,0.0,0.0,0.0,0.0,0.0,0.0,0.0,0.0,9.5398,9.4079,9.3909,9.3503,0.0,9.2759,9.2996,9.3571,9.3131,9.2421,9.1508,9.0763,9.0865,9.1474,9.0729,9.0797,9.1305,9.1305,9.1305,9.1305,9.1305,9.0932,9.0425,0.0,0.0,0.0,0.0,0.0,0.0,0.0,0.0,0.0,0.0,0.0,0.0,0.0,0.0,0.0,0.0,0.0,0.0,0.0,0.0,0.0,0.0,0.0,0.0,0.0,0.0,0.0,0.0,0.0,0.0,0.0,0.0,0.0,7.7435,0.0,7.9363,0.0,0.0,0.0,0.0,0.0,0.0,0.0,0.0,0.0,0.0,0.0,0.0,0.0,0.0,0.0,0.0,0.0,0.0,7.1819,7.1413,7.1582,0.0,0.0,0.0,0.0,9.0019,0.0,0.0,0.0,0.0,0.0,0.0,0.0,0.0,0.0,0.0,0.0,0.0,0.0,0.0,0.0,0.0,0.0,0.0,0.0,0.0,0.0,0.0,0.0,0.0,0.0,0.0,0.0,0.0,0.0,0.0,9.5127,9.418,9.303,9.2658,9.2286,9.188,9.188,9.1913,9.1981,9.1913,9.1677,9.1237,9.0154,9.0087,9.0729,8.9985,8.9884,9.0222,9.0222,9.0222,9.0222,9.0222,8.9461,8.833,0.0,0.0,0.0,0.0,0.0,0.0,0.0,0.0,0.0,0.0,0.0,0.0,0.0,0.0,0.0,0.0,0.0,0.0,0.0,0.0,0.0,0.0,0.0,0.0,0.0,0.0,0.0,0.0,0.0,0.0,0.0,0.0,0.0,7.9397,0.0,0.0,0.0,0.0,0.0,0.0,0.0,0.0,0.0,0.0,0.0,0.0,0.0,0.0,0.0,0.0,0.0,0.0,0.0,0.0,7.1312,7.1312,0.0,0.0,0.0,0.0,8.5249,9.5296,10.1183,0.0,10.5411,10.6088,0.0,0.0,0.0,0.0,0.0,0.0,0.0,0.0,0.0,0.0,0.0,0.0,0.0,0.0,0.0,0.0,0.0,0.0,0.0,0.0,0.0,0.0,0.0,0.0,9.5093,9.4349,9.3571,9.2827,9.2049,9.144,9.1102,9.1102,9.1237,9.0899,9.0222,9.0831,9.1034,9.0831,8.9613,8.9444,8.9951,8.9342,8.9072,8.9072,8.9072,8.9004,8.8903,8.8903,8.7759,8.6052,0.0,0.0,0.0,0.0,0.0,0.0,0.0,0.0,0.0,0.0,0.0,0.0,0.0,0.0,0.0,0.0,0.0,0.0,0.0,0.0,0.0,0.0,0.0,0.0,0.0,0.0,0.0,0.0,0.0,0.0,0.0,0.0,0.0,0.0,0.0,0.0,0.0,0.0,0.0,0.0,0.0,0.0,0.0,0.0,0.0,0.0,0.0,0.0,0.0,0.0,0.0,0.0,0.0,0.0,0.0,0.0,0.0,0.0,0.0,0.0,9.029,0.0,10.0405,10.3889,0.0,0.0,0.0,0.0,0.0,0.0,0.0,0.0,0.0,0.0,0.0,0.0,0.0,0.0,0.0,0.0,0.0,0.0,0.0,0.0,0.0,0.0,0.0,0.0,0.0,9.4248,9.3537,9.2759,9.1981,9.1237,9.0527,9.0391,9.0357,9.0357,9.1,9.0899,9.0222,9.0324,8.9985,8.9376,8.9173,8.914,8.9241,8.914,8.9072,8.9072,8.9072,8.87,8.8158,8.8158,8.6688,8.472,0.0,0.0,0.0,0.0,0.0,0.0,0.0,0.0,0.0,0.0,0.0,0.0,0.0,0.0,0.0,0.0,0.0,0.0,0.0,0.0,0.0,0.0,0.0,0.0,0.0,0.0,0.0,0.0,0.0,0.0,0.0,7.6454,7.8686,0.0,0.0,0.0,0.0,0.0,0.0,0.0,0.0,0.0,0.0,0.0,0.0,0.0,0.0,0.0,0.0,0.0,0.0,0.0,0.0,0.0,0.0,0.0,0.0,0.0,7.6454,8.2949,8.985,0.0,9.9627,10.2198,10.4193,0.0,0.0,0.0,0.0,0.0,0.0,0.0,0.0,0.0,0.0,0.0,0.0,0.0,0.0,0.0,0.0,0.0,0.0,0.0,0.0,0.0,0.0,0.0,9.3537,9.3098,9.259,9.1812,9.1068,0.0,8.9579,8.9173,8.897,8.897,8.9715,8.9681,8.897,8.897,8.9004,8.9072,8.9072,8.9072,8.9072,8.9072,8.9072,8.9072,8.9072,8.8115,8.6578,8.6578,8.4457,8.1536,0.0,0.0,0.0,0.0,0.0,0.0,0.0,0.0,0.0,0.0,0.0,0.0,0.0,0.0,0.0,0.0,0.0,0.0,0.0,0.0,0.0,0.0,0.0,0.0,0.0,0.0,0.0,0.0,0.0,0.0,7.5236,7.7299,8.0073,0.0,7.8957,0.0,0.0,0.0,0.0,0.0,0.0,0.0,0.0,0.0,0.0,0.0,0.0,0.0,0.0,0.0,0.0,0.0,0.0,0.0,0.0,0.0,0.0,0.0,0.0,0.0,8.7042,9.3571,9.7022,9.9593,0.0,0.0,0.0,0.0,0.0,0.0,0.0,0.0,0.0,0.0,0.0,0.0,0.0,0.0,0.0,0.0,0.0,0.0,0.0,0.0,0.0,0.0,0.0,0.0,9.2252,9.215,9.1711,9.0763,9.0019,8.9376,8.8801,8.8091,8.7719,8.7719,8.826,8.8003,8.706,8.706,8.7203,8.7528,8.8022,8.843,8.8801,8.8109,8.7926,8.8136,8.7759,8.6196,8.4358,8.4358,8.204,7.8746,0.0,0.0,0.0,0.0,0.0,0.0,0.0,0.0,0.0,0.0,0.0,0.0,0.0,0.0,0.0,0.0,0.0,0.0,0.0,0.0,0.0,0.0,0.0,0.0,0.0,0.0,0.0,0.0,0.0,0.0,7.6826,7.8348,8.2509,8.8463,8.3287,8.0242,7.8788,0.0,0.0,0.0,0.0,0.0,0.0,0.0,0.0,0.0,0.0,0.0,0.0,0.0,0.0,0.0,0.0,0.0,0.0,0.0,0.0,0.0,0.0,7.7638,0.0,8.6501,9.1271,9.577,0.0,0.0,0.0,0.0,0.0,0.0,0.0,0.0,0.0,0.0,0.0,0.0,0.0,0.0,0.0,0.0,0.0,0.0,0.0,0.0,0.0,0.0,0.0,0.0,9.1474,9.1372,9.0696,8.9241,8.8497,8.8091,8.8057,8.7347,8.6974,8.6974,8.7008,8.6209,8.4639,8.4639,8.4173,8.3382,8.486,8.6529,8.7868,8.5368,8.4868,8.5492,8.4005,8.2389,8.1202,8.1202,7.9605,7.7383,0.0,0.0,0.0,0.0,0.0,0.0,0.0,0.0,0.0,0.0,0.0,0.0,0.0,0.0,0.0,0.0,0.0,0.0,0.0,0.0,0.0,0.0,0.0,0.0,0.0,0.0,0.0,0.0,0.0,7.0297,7.4086,7.7029,8.0175,8.3287,8.0953,8.0648,8.1528,7.5168,0.0,0.0,0.0,0.0,0.0,0.0,0.0,0.0,0.0,0.0,0.0,0.0,0.0,0.0,0.0,0.0,0.0,0.0,0.0,0.0,0.0,0.0,0.0,8.3422,8.6873,9.0019,9.3909,9.6514,0.0,0.0,0.0,0.0,0.0,0.0,0.0,0.0,0.0,0.0,0.0,0.0,0.0,0.0,0.0,0.0,0.0,0.0,0.0,0.0,0.0,0.0,9.0729,9.0594,8.9918,8.8429,8.8125,8.755,8.6602,8.6332,8.6196,8.6196,8.667,8.5762,8.3647,8.3647,8.2693,8.0955,8.0903,8.2582,8.5425,8.4408,8.4217,8.4495,8.3866,8.2396,8.0506,8.0506,7.9078,7.7001,0.0,0.0,0.0,0.0,0.0,0.0,0.0,0.0,0.0,0.0,0.0,0.0,0.0,0.0,0.0,0.0,0.0,0.0,0.0,0.0,0.0,0.0,0.0,0.0,0.0,0.0,0.0,0.0,0.0,0.0,0.0,7.5811,7.8822,8.1596,7.9363,8.0412,0.0,0.0,0.0,7.554,0.0,0.0,7.3172,0.0,0.0,0.0,0.0,0.0,0.0,0.0,0.0,0.0,0.0,0.0,0.0,0.0,0.0,0.0,7.1582,0.0,0.0,0.0,8.2408,8.4302,9.0019,0.0,0.0,0.0,0.0,0.0,0.0,0.0,0.0,0.0,0.0,0.0,0.0,0.0,0.0,0.0,0.0,0.0,0.0,0.0,0.0,0.0,0.0,0.0,9.029,8.9985,8.9038,8.7313,8.7245,8.667,8.5418,8.5384,8.5384,8.5418,8.5312,8.4138,8.2041,8.1534,8.0224,7.8466,7.7794,7.9514,8.2939,8.1904,8.1742,8.2042,8.1773,8.043,7.8961,7.9176,7.823,7.6814,0.0,0.0,0.0,0.0,0.0,0.0,0.0,0.0,0.0,0.0,0.0,0.0,0.0,0.0,0.0,0.0,0.0,0.0,0.0,0.0,0.0,0.0,0.0,0.0,0.0,0.0,0.0,0.0,0.0,0.0,0.0,0.0,7.8686,0.0,7.916,7.9769,8.4336,0.0,8.1359,7.9837,0.0,7.4661,7.4999,0.0,0.0,0.0,7.7502,7.6149,0.0,0.0,0.0,0.0,0.0,0.0,0.0,0.0,0.0,0.0,0.0,0.0,0.0,0.0,0.0,0.0,8.6873,0.0,0.0,0.0,0.0,0.0,0.0,0.0,0.0,0.0,0.0,0.0,0.0,0.0,0.0,0.0,0.0,0.0,0.0,0.0,0.0,0.0,0.0,9.0966,9.0222,8.9444,8.8023,8.5858,8.5757,8.5384,8.464,8.464,8.4606,8.45,8.2942,8.1356,7.9649,7.8028,7.6834,7.5886,7.5886,7.7745,8.0487,7.7942,7.7472,7.8336,7.724,7.6514,7.6066,7.6664,7.6874,7.6874,0.0,0.0,0.0,0.0,0.0,0.0,0.0,0.0,0.0,0.0,0.0,0.0,0.0,0.0,0.0,0.0,0.0,0.0,0.0,0.0,0.0,0.0,0.0,0.0,0.0,0.0,0.0,0.0,0.0,0.0,0.0,0.0,0.0,0.0,7.8179,7.9295,8.0378,7.6149,0.0,0.0,7.5303,7.5743,0.0,0.0,0.0,0.0,0.0,7.8585,0.0,0.0,7.642,7.4965,0.0,0.0,0.0,0.0,0.0,0.0,7.0398,0.0,0.0,0.0,0.0,0.0,0.0,0.0,0.0,0.0,0.0,0.0,0.0,0.0,0.0,0.0,0.0,0.0,0.0,0.0,0.0,0.0,0.0,0.0,0.0,0.0,0.0,0.0,9.0628,9.0188,8.9444,8.8192,8.6974,8.5824,8.5249,8.4843,8.464,8.464,8.4035,8.283,8.2458,8.0734,7.8028,7.7548,7.6559,7.5198,7.5677,7.6107,7.6599,7.6753,7.7244,7.7905,7.7584,7.7741,7.8011,7.819,7.825,7.825,0.0,0.0,0.0,0.0,0.0,0.0,0.0,0.0,0.0,0.0,0.0,0.0,0.0,0.0,0.0,0.0,0.0,0.0,0.0,0.0,0.0,0.0,0.0,0.0,0.0,0.0,0.0,0.0,0.0,0.0,0.0,0.0,0.0,0.0,0.0,0.0,0.0,0.0,0.0,0.0,7.7604,0.0,0.0,8.1866,8.278,0.0,0.0,0.0,8.19,8.0851,7.8889,0.0,0.0,0.0,0.0,0.0,0.0,7.121,7.077,7.0432,7.0601,0.0,0.0,0.0,7.4897,7.5777,0.0,0.0,0.0,0.0,0.0,0.0,0.0,0.0,0.0,0.0,0.0,0.0,0.0,0.0,0.0,0.0,0.0,0.0,0.0,0.0,8.9647,8.8835,8.7753,8.6907,8.6095,8.5317,8.4843,8.4251,8.3674,8.3531,8.2797,8.1239,8.0495,7.9284,7.7724,7.6998,7.6153,7.5318,7.5736,7.5527,7.4929,7.5707,7.6245,7.6634,7.7203,7.7622,7.8041,7.8579,7.8789,7.8789,0.0,0.0,0.0,0.0,0.0,0.0,0.0,0.0,0.0,0.0,0.0,0.0,0.0,0.0,0.0,0.0,0.0,0.0,0.0,0.0,0.0,0.0,0.0,0.0,0.0,0.0,0.0,0.0,0.0,0.0,0.0,0.0,0.0,0.0,0.0,0.0,0.0,0.0,0.0,7.8111,8.0919,8.278,0.0,0.0,8.9241,0.0,8.8734,8.7245,8.5351,8.3625,8.0682,0.0,0.0,0.0,0.0,0.0,7.1312,7.1312,7.1312,7.0872,7.1007,0.0,0.0,0.0,7.3984,7.3003,7.236,0.0,0.0,0.0,0.0,0.0,0.0,0.0,0.0,0.0,0.0,0.0,0.0,0.0,0.0,0.0,0.0,0.0,8.9918,8.985,8.8632,8.7279,8.5858,8.579,8.5311,8.4392,8.4392,8.3531,8.1968,8.1968,8.1121,7.9527,7.8028,7.7501,7.7887,7.6486,7.5856,7.5796,7.5946,7.5587,7.4899,7.4958,7.4988,7.5108,7.6275,7.6814,7.7083,7.825,7.8729,7.8789,0.0,0.0,0.0,0.0,0.0,0.0,0.0,0.0,0.0,0.0,0.0,0.0,0.0,0.0,0.0,0.0,0.0,0.0,0.0,0.0,0.0,0.0,0.0,0.0,0.0,0.0,0.0,0.0,0.0,0.0,0.0,0.0,0.0,0.0,0.0,0.0,0.0,0.0,0.0,7.7266,7.9025,0.0,8.6467,8.8361,9.0188,9.1744,9.1609,9.1677,9.1338,0.0,8.5215,8.2306,0.0,0.0,0.0,0.0,0.0,0.0,0.0,0.0,0.0,0.0,0.0,0.0,7.0703,7.0398,7.1007,0.0,0.0,0.0,0.0,0.0,0.0,0.0,0.0,0.0,0.0,0.0,0.0,0.0,0.0,0.0,0.0,0.0,8.8192,8.7617,8.7279,8.6738,8.5824,8.579,8.4808,8.2718,8.2684,8.1853,8.0256,8.0288,7.9404,7.7773,7.7419,7.663,7.5595,7.5785,7.5617,7.5138,7.6185,7.5976,7.4929,7.5467,7.5707,7.5736,7.5976,7.6724,7.7652,7.7921,7.834,7.8789,0.0,0.0,0.0,0.0,0.0,0.0,0.0,0.0,0.0,0.0,0.0,0.0,0.0,0.0,0.0,0.0,0.0,0.0,0.0,0.0,0.0,0.0,0.0,0.0,0.0,0.0,0.0,0.0,0.0,0.0,0.0,0.0,0.0,0.0,0.0,0.0,0.0,0.0,7.2935,7.51,8.0344,0.0,8.8835,9.144,9.3571,9.5127,9.4383,9.4112,9.3402,8.8531,8.6399,0.0,0.0,7.7164,7.6352,0.0,7.2969,7.2732,0.0,0.0,0.0,7.1853,0.0,0.0,0.0,6.9857,6.9485,7.0973,0.0,0.0,0.0,0.0,0.0,0.0,0.0,0.0,0.0,0.0,0.0,0.0,0.0,0.0,0.0,0.0,8.7144,8.6399,8.6332,8.5633,8.4022,8.3988,8.3082,8.1036,8.1003,8.0256,7.8534,7.8534,7.7676,7.6099,7.6099,7.591,7.5407,7.5736,7.5707,7.5437,7.6066,7.5796,7.4899,7.5258,7.5377,7.5437,7.5766,7.6305,7.6933,7.7562,7.8011,7.834,0.0,0.0,0.0,0.0,0.0,0.0,0.0,0.0,0.0,0.0,0.0,0.0,0.0,0.0,0.0,0.0,0.0,0.0,0.0,0.0,0.0,0.0,0.0,6.9688,0.0,0.0,0.0,0.0,0.0,0.0,0.0,0.0,0.0,0.0,0.0,0.0,0.0,0.0,0.0,7.4153,0.0,8.6535,8.8767,9.3064,9.5635,9.6886,9.6548,9.5973,9.4518,8.9106,0.0,8.6704,8.0716,7.916,0.0,0.0,0.0,0.0,0.0,0.0,0.0,0.0,0.0,7.1751,0.0,0.0,0.0,6.9823,0.0,0.0,0.0,0.0,0.0,0.0,0.0,0.0,0.0,0.0,0.0,0.0,0.0,0.0,0.0,0.0,8.5506,8.5554,8.4932,8.3875,8.223,8.223,8.1356,7.9436,7.9312,7.8565,7.68,7.68,7.6202,7.4869,7.4869,7.5168,7.5707,7.5856,7.5826,7.5707,7.5856,7.5527,7.4869,7.4869,7.4869,7.4929,7.5497,7.5856,7.6185,7.7113,7.7592,7.7891,6.025,6.1467,0.0,0.0,0.0,0.0,0.0,0.0,0.0,0.0,0.0,0.0,0.0,0.0,0.0,0.0,0.0,0.0,7.6082,0.0,0.0,0.0,0.0,0.0,7.0906,0.0,0.0,0.0,0.0,0.0,0.0,0.0,0.0,0.0,7.0872,0.0,0.0,0.0,7.4153,0.0,8.2035,8.278,0.0,8.8429,9.1778,9.3571,9.736,9.824,9.7123,0.0,9.1846,8.9748,0.0,8.1494,8.0445,7.7502,0.0,0.0,0.0,0.0,0.0,0.0,7.483,0.0,0.0,0.0,7.1379,6.9586,0.0,0.0,0.0,0.0,0.0,0.0,0.0,0.0,0.0,0.0,0.0,0.0,0.0,0.0,0.0,0.0,0.0,8.45,8.1859,8.0653,8.2132,8.223,8.0734,7.7676,7.7548,7.6831,7.5248,7.5112,7.5142,7.4869,7.4869,7.4929,7.5018,7.5617,7.5587,7.5018,7.5647,7.5527,7.4869,7.4869,7.4869,7.4899,7.4958,7.5707,7.6664,7.6275,7.6844,7.7831,5.9471,6.1061,0.0,0.0,0.0,0.0,0.0,0.0,0.0,0.0,0.0,0.0,0.0,0.0,0.0,0.0,0.0,7.6454,0.0,0.0,0.0,0.0,0.0,0.0,0.0,0.0,0.0,0.0,7.1312,0.0,0.0,0.0,0.0,0.0,7.1176,0.0,7.2157,0.0,0.0,0.0,0.0,0.0,0.0,8.9748,9.4383,9.5905,9.78,9.8544,9.8037,0.0,9.2489,0.0,0.0,0.0,0.0,0.0,0.0,0.0,0.0,0.0,0.0,0.0,0.0,0.0,7.28,0.0,7.0973,0.0,0.0,0.0,0.0,0.0,0.0,0.0,0.0,0.0,0.0,0.0,0.0,0.0,0.0,0.0,0.0,0.0,0.0,0.0,0.0,7.7381,7.7645,7.8353,7.7873,7.5966,7.5966,7.5594,7.4869,7.4869,7.4869,7.4869,7.4869,7.4869,7.4899,7.5168,7.5138,7.4899,7.5198,7.5138,7.4869,7.4869,7.4869,7.4869,7.4869,7.5198,7.5707,7.5856,7.6245,7.6754,5.9268,0.0,0.0,0.0,0.0,0.0,0.0,0.0,0.0,0.0,0.0,0.0,8.5418,8.4234,0.0,0.0,0.0,8.0276,0.0,0.0,7.4492,0.0,0.0,0.0,0.0,0.0,0.0,0.0,0.0,0.0,0.0,0.0,0.0,0.0,0.0,7.2902,7.4153,0.0,0.0,7.686,8.0547,8.2374,8.3693,9.1372,9.5838,9.8003,9.8003,9.8341,9.824,9.4586,9.3233,0.0,8.8937,0.0,0.0,0.0,0.0,0.0,7.6792,0.0,0.0,0.0,0.0,0.0,0.0,0.0,0.0,0.0,0.0,0.0,0.0,0.0,0.0,0.0,0.0,0.0,0.0,0.0,0.0,0.0,0.0,0.0,0.0,0.0,0.0,0.0,7.425,0.0,7.3787,7.4936,7.5218,7.4706,7.4779,7.4869,7.4869,7.4869,7.4869,7.4869,7.4869,7.4869,7.4869,7.4869,7.4869,7.4869,7.4869,7.4869,7.4869,7.4869,7.4869,7.4869,7.4869,7.4869,7.4929,7.5437,7.5736,7.5976,5.9911,6.0757,0.0,0.0,0.0,0.0,0.0,0.0,0.0,0.0,0.0,0.0,0.0,0.0,0.0,0.0,0.0,8.4742,8.5452,0.0,7.5811,0.0,0.0,7.2022,0.0,0.0,0.0,0.0,0.0,0.0,0.0,0.0,0.0,0.0,0.0,7.4931,7.5777,7.801,8.1021,8.4403,8.6027,9.0121,9.4857,0.0,9.3571,9.8003,9.8003,0.0,0.0,9.621,9.5229,0.0,0.0,0.0,0.0,0.0,0.0,0.0,0.0,0.0,0.0,7.5709,0.0,0.0,0.0,0.0,7.4086,0.0,0.0,0.0,0.0,0.0,0.0,0.0,0.0,0.0,0.0,0.0,0.0,0.0,0.0,0.0,0.0,0.0,0.0,7.3674,7.0157,0.0,7.2235,7.3073,7.3688,7.3851,7.454,7.4869,7.4869,7.4869,7.4869,7.4869,7.4869,7.4869,7.4869,7.4869,7.4869,7.4869,7.4869,7.4869,7.4869,7.4869,7.4869,7.4869,7.4869,7.4869,7.4869,7.4899,7.5318,7.5916,0.0,0.0,0.0,0.0,0.0,0.0,0.0,7.4289,0.0,0.0,0.0,0.0,0.0,0.0,9.4248,0.0,0.0,9.1271,8.9545,8.5249,0.0,0.0,0.0,7.598,0.0,0.0,0.0,0.0,0.0,0.0,0.0,0.0,0.0,0.0,0.0,7.4864,0.0,0.0,0.0,0.0,0.0,9.1778,9.577,0.0,0.0,9.8003,9.8003,9.8307,0.0,9.7597,9.6447,9.5161,9.3673,9.0966,8.8125,8.6907,8.5283,0.0,0.0,0.0,8.305,7.8077,0.0,0.0,0.0,0.0,0.0,0.0,0.0,0.0,0.0,0.0,0.0,7.1007,0.0,0.0,0.0,0.0,0.0,0.0,0.0,0.0,0.0,0.0,0.0,6.611,6.4764,6.4995,0.0,6.9365,7.1141,7.2505,7.3642,7.442,7.4869,7.4869,7.4869,7.4869,7.4869,7.4869,7.4869,7.4869,7.4869,7.4869,7.4869,7.4869,7.4869,7.4869,7.4869,7.4869,7.4869,7.4869,7.4869,7.4869,7.5018,7.5347,6.3362,0.0,0.0,0.0,0.0,0.0,0.0,0.0,0.0,0.0,8.8463,0.0,9.7495,0.0,9.9356,0.0,9.939,9.6616,9.1981,8.9715,0.0,8.3659,8.146,0.0,0.0,0.0,0.0,0.0,0.0,7.209,0.0,0.0,0.0,0.0,0.0,7.554,7.7908,0.0,8.3795,0.0,0.0,9.3267,0.0,0.0,9.7563,0.0,0.0,9.7867,9.8645,9.8172,9.7191,9.6041,9.533,9.2725,8.9782,8.8767,8.7414,8.5926,8.4437,8.5249,0.0,0.0,8.0276,0.0,7.5743,0.0,0.0,0.0,0.0,0.0,0.0,0.0,0.0,7.1819,7.0229,6.8639,0.0,6.6541,0.0,0.0,0.0,0.0,0.0,0.0,6.2042,6.2136,6.1365,6.2002,0.0,0.0,6.8704,7.1128,7.2714,7.3851,7.451,7.4749,7.4869,7.4869,7.4869,7.4869,7.4869,7.4869,7.4869,7.4869,7.4869,7.4869,7.4869,7.4869,7.4869,7.4869,7.4869,7.4869,7.4869,7.4869,7.4869,7.5018,0.0,0.0,0.0,0.0,6.9282,0.0,0.0,0.0,8.4031,0.0,9.1338,9.648,10.0235,10.2028,10.3212,10.3889,10.3889,0.0,9.3503,9.3571,0.0,0.0,8.4809,8.4065,8.1832,0.0,0.0,0.0,0.0,0.0,0.0,0.0,0.0,0.0,7.4424,0.0,7.9295,8.3084,8.6839,9.0459,9.347,9.4687,9.4789,9.5398,0.0,9.7766,9.6311,9.6717,9.7969,9.7969,9.7461,9.6717,9.6041,9.4823,9.33,9.1778,9.1338,9.0729,8.7854,8.7617,8.7347,8.3625,0.0,0.0,0.0,0.0,8.1021,0.0,0.0,0.0,0.0,0.0,0.0,7.2496,7.05,6.8267,0.0,0.0,0.0,0.0,0.0,0.0,0.0,6.1031,6.0482,6.1532,6.0062,6.0146,0.0,0.0,0.0,6.9722,7.1727,7.3133,7.3881,7.451,7.4839,7.4869,7.4869,7.4869,7.4869,7.4869,7.4869,7.4869,7.4869,7.4869,7.4869,7.4869,7.4869,7.4869,7.4869,7.4869,7.4869,7.4869,7.4869,7.4988,6.5861,6.7184,6.847,0.0,6.8673,6.9958,0.0,0.0,0.0,0.0,9.5939,10.1487,10.6392,10.8185,10.8997,10.8625,10.7509,0.0,0.0,0.0,0.0,9.4417,9.2895,9.1068,8.8767,8.5317,0.0,8.0412,0.0,0.0,7.3747,0.0,0.0,0.0,0.0,0.0,7.8551,8.2813,8.6805,9.0425,9.2895,9.4214,0.0,0.0,9.489,9.7056,9.6108,9.6379,9.7157,9.7157,9.6683,9.6142,9.648,9.5229,9.3402,9.2421,9.215,9.1744,8.9884,9.029,9.0527,8.7347,8.6163,8.5012,0.0,0.0,0.0,0.0,0.0,0.0,0.0,0.0,0.0,7.1988,6.9688,6.7827,0.0,0.0,0.0,6.4028,0.0,0.0,6.009,5.9227,5.8518,5.8398,5.7903,0.0,0.0,0.0,0.0,6.7657,6.9692,7.1757,7.3881,7.4061,7.439,7.4869,7.4869,7.4869,7.4869,7.4869,7.4869,7.4869,7.4869,7.4869,7.4869,7.4869,7.4869,7.4869,7.4869,7.4869,7.4869,7.4869,7.4869,7.4988,6.6878,0.0,0.0,7.1075,0.0,0.0,7.7652,0.0,0.0,9.2459,9.8357,0.0,10.5919,10.9911,11.1805,11.0418,10.9809,0.0,0.0,0.0,0.0,9.8172,9.7428,9.5905,9.33,8.9207,0.0,8.3389,0.0,0.0,7.4559,0.0,0.0,0.0,0.0,7.6961,7.8348,8.3795,8.7482,8.9884,9.1812,0.0,0.0,9.2624,9.3673,9.5398,9.4992,9.5702,9.692,9.7258,9.6683,9.5872,9.6277,9.533,9.3909,9.3165,9.2928,9.2692,9.1508,9.2015,9.2353,9.0019,8.9376,8.8632,8.5926,8.5757,8.5587,0.0,0.0,0.0,0.0,0.0,0.0,7.1345,6.9485,0.0,0.0,0.0,0.0,0.0,6.1985,0.0,5.8359,5.7704,5.7303,5.7466,0.0,0.0,0.0,0.0,0.0,6.6071,6.8645,7.0829,7.2565,7.3732,7.436,7.445,7.4749,7.4869,7.4869,7.4869,7.4869,7.4869,7.4869,7.4869,7.4869,7.4869,7.4869,7.4869,7.4869,7.4869,7.4869,7.4869,7.5078,7.5377,0.0,0.0,0.0,0.0,0.0,0.0,0.0,8.5405,0.0,9.4721,0.0,10.372,10.3923,10.9911,11.309,11.1095,0.0,10.9403,10.4024,10.5986,10.4904,9.9424,10.0303,9.9627,9.6751,9.2725,0.0,0.0,0.0,0.0,7.4559,0.0,0.0,0.0,0.0,0.0,0.0,8.4945,8.8023,8.8903,9.029,9.1034,9.1338,9.1812,9.2658,9.3571,9.347,9.4789,9.6683,9.736,9.665,9.5567,9.5838,9.5364,9.4586,9.4045,9.3876,9.3673,9.2793,9.3131,9.3402,9.1947,9.2083,9.2049,8.9985,8.8937,8.8023,8.6636,8.4573,0.0,0.0,0.0,0.0,7.077,0.0,0.0,0.0,0.0,0.0,0.0,0.0,0.0,0.0,5.6959,5.6949,0.0,0.0,0.0,0.0,0.0,0.0,0.0,6.7897,0.0,7.0889,0.0,7.433,7.4031,7.451,7.4779,7.4869,7.4869,7.4869,7.4869,7.4869,7.4869,7.4869,7.4869,7.4869,7.4869,7.4869,7.4869,7.4869,7.4869,7.5377,7.6006,0.0,0.0,0.0,0.0,0.0,8.6149,9.1736,9.4283,9.6726,9.9805,10.5747,0.0,11.1501,11.3902,11.5019,11.4004,11.3496,0.0,0.0,0.0,0.0,10.5479,10.5005,10.372,10.1419,9.5838,9.144,0.0,8.1393,7.6826,7.4559,0.0,0.0,0.0,0.0,0.0,8.0919,8.393,0.0,8.738,8.8226,8.9681,9.1169,9.0087,9.1305,9.3503,9.2861,9.3706,9.5127,9.5229,9.4687,9.4282,9.6108,9.577,9.4789,9.5263,9.5398,9.5127,9.374,9.3943,9.4315,9.3402,9.3267,9.3098,9.2083,9.1271,9.0493,8.9613,8.7685,8.5587,8.3828,0.0,0.0,0.0,0.0,0.0,0.0,0.0,0.0,0.0,0.0,0.0,0.0,0.0,0.0,0.0,0.0,0.0,0.0,0.0,0.0,0.0,0.0,0.0,0.0,0.0,0.0,7.4689,7.427,7.436,7.4869,7.4869,7.4869,7.4869,7.4869,7.4869,7.4869,7.4869,7.4869,7.4869,7.4869,7.4869,7.4869,7.4869,7.5647,7.6514,0.0,0.0,0.0,0.0,0.0,0.0,0.0,10.1006,0.0,10.314,10.6346,10.8591,10.8896,11.309,11.5222,11.3699,11.3902,11.3192,11.0993,11.0519,10.9302,10.7001,10.5783,0.0,10.2502,9.7394,9.3233,9.0222,8.278,7.7976,0.0,0.0,0.0,7.1413,0.0,7.7198,0.0,0.0,0.0,8.5892,8.7786,8.9207,9.0154,9.0222,9.1135,9.2455,9.2861,9.3503,9.4248,9.5026,9.4789,9.4349,9.5432,9.5263,9.4687,9.4654,9.4654,9.4485,9.3774,9.3842,9.4045,9.3673,9.3571,9.3267,9.2116,9.1541,9.0865,8.9376,8.8226,8.6535,8.349,7.872,0.0,0.0,0.0,0.0,0.0,0.0,0.0,0.0,0.0,0.0,0.0,0.0,0.0,0.0,0.0,0.0,0.0,0.0,0.0,0.0,0.0,0.0,0.0,0.0,0.0,7.3851,7.3881,7.424,7.4869,7.4869,7.4869,7.4869,7.4869,7.4869,7.4869,7.4869,7.4869,7.4869,7.4869,7.4869,7.4929,7.5288,7.5796,7.6275,0.0,8.0526,0.0,0.0,9.1976,0.0,0.0,10.6001,10.8881,10.6423,10.6614,10.69,10.6595,11.1974,11.4883,11.309,11.4004,11.3598,11.1196,11.0722,10.9606,10.7475,10.5783,10.4295,10.3009,9.8578,9.4485,0.0,8.4302,0.0,0.0,0.0,0.0,0.0,0.0,0.0,0.0,0.0,8.4031,8.5114,8.7786,8.8937,8.9207,9.0391,9.0932,9.1237,9.2624,9.3098,9.3334,9.4823,9.4958,9.4485,9.4654,9.4721,9.4586,9.4011,9.3808,9.3774,9.3639,9.3571,9.3571,9.3571,9.347,9.303,9.1812,9.1305,9.056,8.8835,8.8226,8.6839,8.3118,8.004,0.0,0.0,0.0,0.0,0.0,0.0,0.0,0.0,0.0,0.0,0.0,0.0,0.0,0.0,0.0,5.8321,5.8321,6.0086,0.0,0.0,0.0,0.0,6.7956,0.0,7.2714,0.0,7.3642,7.424,7.4869,7.4869,7.4869,7.4869,7.4869,7.4869,7.4869,7.4869,7.4869,7.4869,7.4869,7.4869,7.4958,7.5647,7.5976,7.6096,0.0,0.0,0.0,0.0,0.0,0.0,0.0,10.8827,11.1949,11.0935,11.0726,11.1399,11.2617,11.4004,11.468,11.4477,11.4579,11.4308,11.3395,11.2008,11.0587,10.9065,10.69,10.531,10.4498,10.01,9.4992,0.0,0.0,8.1325,0.0,0.0,0.0,0.0,0.0,0.0,0.0,8.1968,8.4336,8.5824,8.7448,8.8497,8.9106,8.9241,8.9715,9.0425,9.1203,9.1508,9.1744,9.3267,9.374,9.3808,9.4485,9.4721,9.4687,9.462,9.462,9.4451,9.3774,9.3571,9.3571,9.3571,9.3064,9.2489,9.2353,9.1271,9.0256,9.0053,8.8937,8.6839,8.3118,8.2137,8.0547,0.0,0.0,0.0,0.0,0.0,0.0,7.1165,0.0,0.0,0.0,0.0,0.0,0.0,0.0,5.9009,5.9009,6.0356,6.1134,6.1194,0.0,6.6759,6.7956,7.0051,0.0,7.3821,7.3881,7.424,7.4869,7.4869,7.4869,7.4869,7.4869,7.4869,7.4869,7.4869,7.4869,7.4869,7.4869,7.4869,7.4958,7.5647,7.6275,7.6754,0.0,0.0,0.0,0.0,0.0,0.0,0.0,11.0633,11.2354,11.1444,11.1771,11.2583,11.4105,11.4917,11.5188,11.4714,11.5086,11.468,11.2989,11.238,11.1196,10.9268,10.7407,10.5885,10.4701,10.1589,9.7326,0.0,0.0,0.0,0.0,0.0,0.0,0.0,0.0,7.6893,8.0107,8.2475,8.437,8.596,8.7888,8.8835,8.914,8.9579,8.9951,9.0357,9.1541,9.1677,9.1474,9.2522,9.2895,9.303,9.3774,9.4045,9.4045,9.4045,9.4045,9.3977,9.3673,9.3571,9.3571,9.3571,9.3334,9.2996,9.2522,9.1609,9.0729,9.029,8.9038,8.7414,8.5452,8.3625,8.1832,0.0,0.0,0.0,0.0,0.0,0.0,7.1582,0.0,6.7487,0.0,0.0,0.0,0.0,0.0,5.9099,5.9099,6.0386,6.1104,6.1104,0.0,6.7029,6.7956,7.032,7.2295,7.3881,7.3881,7.424,7.4869,7.4869,7.4869,7.4869,7.4869,7.4869,7.4869,7.4869,7.4869,7.4869,7.4869,7.4869,7.4958,7.5647,7.6305,7.6874,10.0277,0.0,10.0515,0.0,10.7089,10.7834,11.0502,11.1581,11.2144,11.175,11.1771,11.2482,11.4207,11.5019,11.5188,11.441,11.4883,11.441,11.2583,11.2076,11.1061,10.9268,10.7712,0.0,10.4701,10.2705,9.9356,9.4552,9.1034,0.0,0.0,0.0,0.0,0.0,7.6521,7.845,8.1731,8.3693,8.5249,8.6602,8.8361,8.9072,8.914,8.9681,8.9884,9.0053,9.1305,9.144,9.1135,9.2083,9.2421,9.2489,9.2793,9.3064,9.3233,9.3233,9.3402,9.3571,9.3571,9.3571,9.3571,9.3571,9.3233,9.2759,9.2218,9.1338,9.0493,8.9985,8.9038,8.8091,8.738,8.5486,8.3761,0.0,0.0,0.0,0.0,0.0,0.0,0.0,6.9536,6.7421,6.5635,0.0,0.0,0.0,0.0,0.0,5.9697,6.0595,0.0,0.0,0.0,0.0,0.0,0.0,7.2475,7.3612,7.4001,7.442,7.4869,7.4869,7.4869,7.4869,7.4869,7.4869,7.4869,7.4869,7.4869,7.4869,7.4869,7.4988,7.5258,7.5916,7.6574,7.7203,10.6536,10.6543,10.7341,11.2583,11.4121,11.4171,11.2708,11.1864,11.1723,11.2327,11.1196,11.1196,11.3395,11.4274,11.441,11.3699,11.3598,11.3293,11.2482,11.1095,11.0012,0.0,0.0,10.6189,10.4701,10.3212,10.0608,9.6853,0.0,0.0,8.6738,0.0,0.0,7.8044,8.0242,8.1629,8.2611,8.5587,8.7279,8.8023,8.8767,8.9072,8.9072,8.9106,8.9106,8.9207,8.9951,9.0222,9.0459,9.1913,9.2421,9.2286,9.1541,9.1846,9.2421,9.2421,9.2996,9.3571,9.3571,9.3571,9.3571,9.3571,9.2455,9.1305,9.1305,9.0154,8.9106,8.9106,8.9072,8.8835,8.8125,8.7955,8.6941,8.3964,0.0,0.0,0.0,0.0,0.0,7.2834,7.1075,6.9157,6.6438,0.0,0.0,0.0,0.0,0.0,0.0,0.0,0.0,6.3019,6.4994,0.0,6.7956,7.056,7.2235,7.2954,7.424,7.4869,7.4869,7.4869,7.4869,7.4869,7.4869,7.4869,7.4869,7.4869,7.4869,7.4869,7.4869,7.5288,7.5976,7.6604,7.7233,7.7891,11.0362,11.1393,11.251,11.4067,11.4181,11.3464,11.1957,11.1612,11.1153,11.0322,11.1162,11.2076,11.2786,11.397,11.441,0.0,11.4105,11.3801,0.0,11.1602,11.0486,10.9268,10.8185,10.6697,10.4701,10.4193,10.2164,9.8375,0.0,0.0,0.0,8.437,8.2949,8.2509,8.2712,8.4065,8.6298,8.7245,8.8091,8.8767,8.9004,8.9072,8.9072,8.9072,8.9072,8.9173,8.9951,8.9884,8.9579,9.0594,9.056,9.0087,8.985,9.1372,9.3199,9.3199,9.3402,9.3571,9.3571,9.3571,9.3571,9.3571,9.3199,9.2725,9.2184,9.0899,8.9715,8.9173,8.9072,8.8869,8.8125,8.7989,8.7347,8.5384,0.0,0.0,0.0,0.0,0.0,7.0809,6.8601,6.6791,0.0,6.2887,0.0,0.0,0.0,0.0,0.0,0.0,0.0,0.0,6.5622,0.0,6.9961,7.1697,7.3163,7.424,7.4689,7.4869,7.4869,7.4869,7.4869,7.4869,7.4869,7.4869,7.4869,7.4869,7.5138,7.5587,7.5587,7.5976,7.6574,7.6754,7.7233,7.7688,11.3093,11.4121,11.4892,11.5185,11.4401,11.3268,11.2099,11.1342,11.0688,10.9746,11.079,11.1771,11.2076,11.3192,0.0,11.3598,11.3801,11.3463,11.2583,11.1568,11.0486,10.9268,10.8422,10.7001,10.4701,0.0,0.0,10.0405,9.8037,9.4315,8.9376,8.755,8.6569,8.6264,8.579,8.6501,8.8023,8.8294,8.8666,8.9072,8.9072,8.9072,8.9072,8.9072,8.9072,8.914,8.9613,8.9681,8.9579,9.0053,9.0256,9.029,8.9985,9.1609,9.347,9.2895,9.2928,9.3199,9.3503,9.3571,9.3571,9.3571,9.3368,9.2861,9.1812,9.0865,8.9985,8.9241,8.9072,8.8937,8.8497,8.8192,8.7617,8.6399,0.0,8.3084,7.8619,0.0,0.0,0.0,0.0,0.0,0.0,6.3113,0.0,0.0,0.0,0.0,0.0,0.0,0.0,6.4695,6.67,0.0,7.0889,7.2475,7.3702,7.451,7.4749,7.4869,7.4869,7.4869,7.4869,7.4869,7.4869,7.4869,7.4869,7.4869,7.5288,7.5916,7.5916,7.6425,7.7203,7.7203,7.7134,7.6769,11.4708,11.4818,0.0,0.0,11.463,0.0,11.2545,11.1221,11.0318,11.0116,11.0316,11.0621,11.1298,11.1974,11.2685,11.3496,0.0,0.0,0.0,11.0993,10.9911,10.92,10.8388,0.0,10.4701,10.4667,10.399,10.2401,9.8916,9.6074,9.3842,9.1677,9.0222,8.9376,8.9342,8.8903,8.826,8.8937,8.9241,8.9241,8.9173,8.9173,8.914,8.9106,8.9072,8.9072,8.9072,8.9545,9.0121,9.0121,9.1068,9.2049,9.1372,9.215,9.3098,9.1778,9.1913,9.2658,9.3402,9.3571,9.3571,9.3503,9.2895,9.1913,9.0527,9.0154,8.9918,8.9241,8.9072,8.9072,8.9072,8.8531,8.782,8.7042,8.5587,8.3016,7.8619,0.0,0.0,0.0,0.0,0.0,0.0,6.4456,6.3887,0.0,0.0,0.0,0.0,0.0,0.0,6.6071,6.8046,6.9722,7.1098,7.2954,7.3911,7.3971,7.4569,7.4869,7.4869,7.4869,7.4869,7.4869,7.4869,7.4869,7.4869,7.4869,7.5288,7.5916,7.5946,7.6724,7.7801,7.7861,7.6858,7.56,0.0,0.0,11.5421,11.4459,11.3557,11.2403,11.1151,11.0497,11.0052,10.9437,11.0384,11.0993,11.0621,11.1196,11.1974,11.2685,11.2583,11.2279,11.1703,11.0283,10.9369,10.9166,10.7881,10.6392,10.4701,10.4667,10.3686,10.169,10.0777,9.9153,9.692,9.5838,9.4315,9.2489,9.188,9.1203,9.0527,9.0696,9.0763,9.0729,9.0154,8.9951,8.9884,8.9309,8.9072,8.9072,8.9072,8.9207,8.9342,8.9342,8.9579,8.985,8.9681,9.0256,9.1169,9.1947,9.2692,9.3334,9.3537,9.3571,9.3436,9.2861,9.1711,9.0628,9.029,8.9748,8.9309,8.9106,8.9072,8.9072,8.9072,8.8937,8.8395,8.711,8.5148,8.2408,7.8517,7.5471,0.0,0.0,6.7387,6.6579,6.5188,6.4901,6.5144,0.0,0.0,0.0,0.0,0.0,6.652,6.7478,6.8944,7.0829,7.3163,7.3642,7.4151,7.4659,7.4809,7.4869,7.4869,7.4869,7.4869,7.4869,7.4869,7.4869,7.4869,7.4869,7.5288,7.5946,7.6425,7.7113,7.7861,7.837,7.7387,7.5297,11.5296,11.5993,11.6211,11.4935,11.3916,11.2658,11.1513,11.0744,11.0012,10.9268,11.0486,11.1095,11.0384,11.0689,11.1095,11.1467,11.1771,11.1805,11.1399,10.9978,10.8997,10.8693,10.7204,10.5885,10.4667,10.4363,10.3415,10.1893,10.1589,10.0574,9.8984,9.7901,9.6379,9.4552,9.3808,9.303,9.2353,9.2353,9.1947,9.1271,9.1237,9.0594,8.9681,8.9613,8.9579,8.9545,8.9207,8.9512,9.0053,8.9715,9.0053,9.056,9.0188,9.0865,9.1846,9.2286,9.2725,9.3064,9.3064,9.33,9.3402,9.2624,9.1541,9.0628,9.029,8.9884,8.9512,8.914,8.9072,8.897,8.8632,8.8328,8.738,8.5215,8.3253,8.0444,7.6173,7.3608,0.0,6.7989,6.7603,6.7365,6.6851,6.6849,6.6879,6.6999,0.0,0.0,6.643,6.7657,6.8375,6.8435,7.029,7.2146,7.3881,7.418,7.451,7.4869,7.4869,7.4869,7.4869,7.4869,7.4869,7.4869,7.4869,7.4869,7.4869,7.4869,7.5437,7.6365,7.6694,7.7412,7.831,7.8669,7.6885,7.4042,11.5993,11.6467,11.6498,11.5467,11.4275,11.307,11.2094,11.0868,10.9877,10.9099,11.0181,11.079,11.0215,11.0215,11.0316,11.0486,11.0993,11.1298,11.1095,10.9775,10.8693,10.8016,10.6595,10.5479,10.4667,10.3889,10.3111,10.2502,10.1893,10.1081,10.0202,9.8916,9.7495,9.5939,9.5296,9.462,9.3909,9.3909,9.3165,9.2015,9.2421,9.1474,8.9782,9.0087,9.029,9.0256,8.9376,8.9951,9.1034,9.0425,9.1034,9.1981,9.1474,9.2286,9.3267,9.2624,9.2522,9.259,9.259,9.2895,9.3064,9.2421,9.1609,9.0797,9.0188,9.0019,8.985,8.9207,8.9072,8.8903,8.826,8.755,8.6163,8.3389,8.1291,7.8388,7.3606,0.0,7.0403,6.8344,6.8236,6.8661,6.922,6.9303,6.8884,6.7956,6.8046,0.0,0.0,6.9423,7.0201,6.9752,7.1906,7.3373,7.4031,7.4689,7.5018,7.5018,7.4929,7.4929,7.5018,7.4929,7.4869,7.4869,7.4869,7.4869,7.4899,7.4988,7.5677,7.6694,7.6904,7.7652,7.8639,7.844,7.5808,7.2506,11.5993,11.5615,11.4587,11.2587,11.1976,11.1096,10.9054,10.9135,10.9099,10.8321,10.8997,10.9471,10.9369,10.9911,11.0587,11.1196,11.1298,11.0892,10.9572,10.8693,10.8118,10.8016,10.6595,10.5479,10.4667,10.3382,10.2603,10.2502,10.2401,10.1622,10.0235,9.9999,9.8747,9.6717,9.6582,9.6142,9.5466,9.5466,9.533,9.4992,9.3842,9.3199,9.2692,9.0899,9.0594,9.0932,8.9579,8.9647,9.0357,9.0256,9.0357,9.0628,9.1135,9.188,9.259,9.2455,9.2895,9.3402,9.3402,9.2556,9.1609,9.1508,9.0425,8.941,8.9275,8.9241,8.9241,8.9106,8.9072,8.9038,8.8937,8.8328,8.7279,8.5554,8.19,7.8186,0.0,0.0,6.9104,6.8231,6.9002,6.9886,7.053,7.062,7.1009,7.1906,7.0021,6.9512,7.1038,7.1966,7.2654,7.3103,7.3522,7.4061,7.4719,7.5407,7.5736,7.5736,7.5138,7.5198,7.5736,7.5138,7.4869,7.4869,7.4869,7.4869,7.4929,7.5497,7.5856,7.6155,7.7233,7.7771,7.7868,7.6532,7.4533,7.2189,11.4923,11.4884,11.42,11.185,11.1498,11.1003,10.9543,10.9643,10.9403,10.8219,10.9031,10.9606,10.92,10.9099,10.9403,11.0114,10.9809,10.9099,10.7982,10.8388,10.8287,10.7407,10.5986,10.4701,10.3517,10.2806,10.2502,10.2502,10.2502,10.1927,10.0811,10.0405,9.9457,9.8037,9.7225,9.692,9.6954,9.6548,9.6142,9.5736,9.506,9.4045,9.2827,9.1812,9.1609,9.1744,9.0662,9.0763,9.1406,9.1406,9.1406,9.1541,9.2286,9.2759,9.3064,9.3064,9.2996,9.3064,9.347,9.2455,9.1305,9.1305,9.0493,8.9681,8.9681,8.9376,8.9207,8.9613,8.9376,8.897,8.8564,8.7888,8.667,8.4336,8.0304,0.0,0.0,7.0722,6.88,6.955,7.0374,7.1517,7.2924,7.2714,7.2624,7.2894,7.1787,7.1667,7.2894,7.3612,7.442,7.5437,7.5467,7.5617,7.5916,7.6245,7.6245,7.5916,7.5916,7.5916,7.5916,7.5916,7.5736,7.5437,7.5766,7.5736,7.5497,7.6125,7.6604,7.6993,7.7592,7.7233,7.6475,7.5814,7.3577,7.0583,11.4531,11.433,11.3772,11.1815,11.0959,11.0472,10.9585,10.9437,10.9099,10.7915,10.8794,10.9403,10.8997,10.8524,10.8591,10.9369,10.9031,10.8422,10.7475,10.8388,10.8185,10.6697,10.5208,10.3787,10.2502,10.2502,10.2502,10.2502,10.2502,10.2096,10.1386,10.0608,9.9829,9.9018,9.7529,9.7191,9.7698,9.7123,9.6447,9.5804,9.5804,9.4552,9.2658,9.2489,9.2421,9.2319,9.1575,9.1778,9.2421,9.2421,9.2421,9.2556,9.3334,9.347,9.33,9.33,9.2895,9.2556,9.3165,9.2319,9.1271,9.1102,9.0628,9.0222,9.0222,8.9748,8.9512,9.0087,8.9613,8.8903,8.8361,8.7651,8.623,8.3389,0.0,0.0,0.0,7.0651,6.9605,7.1138,7.1966,7.3133,7.5138,7.4749,7.421,7.3851,7.3821,7.4031,7.454,7.5198,7.6096,7.7263,7.7143,7.6993,7.6814,7.6963,7.6814,7.6335,7.6544,7.6425,7.6125,7.6455,7.6275,7.5707,7.6485,7.6485,7.5976,7.6724,7.7352,7.7831,7.7347,7.6623,7.5448,7.4504,7.2134,6.9301,11.5901,11.4158,11.2517,11.1589,10.9655,10.7949,10.7372,10.7237,10.7103,10.7001,10.7103,10.7407,10.8016,10.8693,10.9403,11.0181,11.079,11.0486,10.9099,10.8422,10.7407,10.5919,10.4498,10.3314,10.2502,10.2502,10.2502,10.2502,10.2502,10.2096,10.1386,10.0608,9.9829,9.9018,9.7529,9.692,9.6954,9.6886,9.6447,9.5804,9.5804,9.4857,9.3436,9.2692,9.2421,9.2319,9.1575,9.1778,9.2421,9.2421,9.2421,9.2556,9.3334,9.3098,9.2522,9.2522,9.2455,9.2421,9.2489,9.1913,9.1135,9.0459,9.0256,9.0222,9.0222,9.0154,9.0154,9.0188,8.9613,8.9072,8.9004,8.8395,8.7144,8.4843,0.0,0.0,7.4783,7.2912,7.1935,7.2637,7.3343,7.451,7.6485,7.6125,7.5976,7.6485,7.6544,7.6544,7.6604,7.7233,7.7921,7.8609,7.8041,7.7442,7.6844,7.7442,7.7711,7.7652,7.6514,7.6245,7.6754,7.6215,7.5587,7.5018,7.6275,7.6485,7.6006,7.7233,7.7771,7.7718,7.6267,7.5722,7.5145,7.1175,6.9603,6.897,11.3649,11.2513,11.1226,10.8998,10.7932,10.7407,10.761,10.761,10.761,10.761,10.761,10.7915,10.8693,10.8591,10.8997,11.0215,11.0114,10.9572,10.8524,10.7712,10.6494,10.4498,10.3889,10.328,10.2502,10.2502,10.2502,10.2502,10.2502,10.2096,10.1386,10.0608,9.9829,9.9018,9.7529,9.7123,9.7529,9.6616,9.6311,9.6379,9.5499,9.4789,9.4214,9.3436,9.2827,9.2455,9.2658,9.2286,9.188,9.2827,9.2827,9.2556,9.3334,9.3064,9.2421,9.2421,9.2421,9.2421,9.2421,9.2556,9.2522,9.1778,9.1575,9.1575,9.1575,9.0865,9.0324,9.0797,8.9918,8.9072,8.9072,8.8497,8.7183,8.4844,0.0,7.7841,7.6518,7.4088,7.3134,7.451,7.5318,7.6006,7.6754,7.6604,7.6574,7.6814,7.7203,7.7442,7.7442,7.8071,7.8519,7.8789,7.8549,7.831,7.8041,7.828,7.8011,7.7203,7.7532,7.7203,7.6275,7.7263,7.7113,7.6155,7.7472,7.7682,7.7143,7.8041,7.7618,7.6386,7.5843,7.4042,7.1496,6.9931,6.8498,6.723,11.2626,11.1369,11.0119,10.7954,10.7233,10.7103,10.761,10.7915,10.7915,10.7712,10.7915,10.8118,10.8388,10.8388,10.8794,10.9877,10.9708,10.92,10.8422,10.7001,10.5411,10.3686,10.3382,10.3009,10.2502,10.2502,10.2502,10.2502,10.2502,10.2096,10.1386,10.0811,9.9999,9.9051,9.78,9.7394,9.7597,9.6548,9.6176,9.6142,9.5364,9.462,9.3943,9.3402,9.2759,9.215,9.2658,9.2184,9.144,9.2522,9.2658,9.2522,9.3064,9.2692,9.2116,9.2353,9.2252,9.2184,9.2658,9.3165,9.3334,9.2319,9.2252,9.2421,9.2421,9.1643,9.1034,9.1541,9.0459,8.9444,8.9444,8.843,8.6875,8.4738,8.0947,7.8123,7.7636,7.5377,7.451,7.6305,7.6694,7.6993,7.7412,7.7263,7.7233,7.7442,7.7861,7.81,7.81,7.8549,7.8789,7.8789,7.8789,7.8789,7.8789,7.8579,7.8041,7.7143,7.7652,7.7203,7.5946,7.7263,7.7382,7.6604,7.7921,7.822,7.7861,7.8519,7.7505,7.5628,7.4839,7.2451,6.9301,6.8498,6.7374,6.6112,11.3716,11.1255,10.9213,10.9248,10.792,10.69,10.69,10.7509,10.7712,10.7001,10.7509,10.7712,10.7001,10.8287,10.9166,10.9166,10.9877,10.9978,10.92,10.6358,10.4363,10.3585,10.2908,10.2502,10.2502,10.2502,10.2502,10.2502,10.2502,10.2096,10.1386,10.1386,10.0574,9.9051,9.8341,9.7597,9.6886,9.6886,9.6041,9.4789,9.5499,9.4451,9.2421,9.2421,9.1947,9.1305,9.1305,9.1305,9.1305,9.1305,9.1812,9.2421,9.2421,9.1913,9.144,9.2218,9.188,9.1643,9.3165,9.3571,9.3199,9.1711,9.188,9.2421,9.2421,9.2421,9.2421,9.2421,9.1237,9.0222,9.0188,8.8146,8.6019,8.457,8.16,7.9118,7.8305,7.6895,7.6395,7.7682,7.7233,7.7352,7.8669,7.819,7.81,7.8729,7.8789,7.8789,7.8789,7.8789,7.8789,7.8789,7.8789,7.8789,7.8789,7.813,7.7801,7.7801,7.6514,7.5916,7.5916,7.5916,7.5916,7.6006,7.7263,7.7831,7.7861,7.8519,7.7505,7.5297,7.3292,7.1202,6.897,6.6916,6.6112,6.6112,11.2626,11.1369,11.0119,10.7954,10.7233,10.7272,10.8287,10.7779,10.7509,10.8388,10.8219,10.7915,10.7712,10.8591,10.9166,10.9166,10.8896,10.7915,10.6156,10.5174,10.4092,10.2908,10.2603,10.2502,10.2502,10.2502,10.2502,10.2502,10.2502,10.2096,10.1386,10.1386,10.0574,9.9085,9.8848,9.8375,9.7631,9.7089,9.6345,9.5466,9.5161,9.4315,9.3165,9.2624,9.2286,9.2083,9.2083,9.1744,9.1474,9.2556,9.2692,9.2421,9.2421,9.2252,9.215,9.2353,9.2252,9.2319,9.33,9.3571,9.347,9.303,9.3064,9.3233,9.3233,9.2827,9.2286,9.1744,9.0865,9.0053,8.9512,8.7812,8.5823,8.3778,8.1597,7.9613,7.8153,7.7485,7.7562,7.84,7.834,7.837,7.8759,7.8609,7.8579,7.8759,7.8789,7.8789,7.8789,7.8789,7.8789,7.8789,7.8789,7.8789,7.8789,7.8579,7.8041,7.7143,7.7682,7.7203,7.5946,7.7322,7.7682,7.7293,7.813,7.8489,7.8346,7.7122,7.5325,7.3265,7.1041,6.897,6.6891,6.6258,6.6112,6.6112,11.1856,11.0441,10.9089,10.7233,10.69,10.7204,10.8084,10.7712,10.7576,10.8185,10.8118,10.7915,10.761,10.8287,10.8693,10.8693,10.8321,10.7103,10.4802,10.4667,10.399,10.2603,10.2502,10.2502,10.2502,10.2502,10.2502,10.2502,10.2502,10.2096,10.1386,10.169,10.1014,9.9559,9.9559,9.9119,9.8375,9.7326,9.6616,9.6142,9.5127,9.4451,9.3876,9.2489,9.1981,9.1947,9.1643,9.1237,9.1034,9.2252,9.2556,9.2489,9.2793,9.2658,9.2489,9.2793,9.2658,9.259,9.3368,9.3571,9.3571,9.3571,9.3571,9.3571,9.3571,9.3199,9.2759,9.2286,9.1609,9.0601,8.9215,8.726,8.517,8.2711,8.0896,7.9342,7.8333,7.843,7.8639,7.8759,7.9028,7.9088,7.8819,7.8789,7.8789,7.8789,7.8789,7.8789,7.8789,7.8789,7.8789,7.8789,7.8789,7.8789,7.8789,7.8519,7.7861,7.6844,7.7622,7.7263,7.5946,7.7382,7.7951,7.7831,7.822,7.8086,7.7358,7.608,7.3887,7.1068,6.9768,6.8022,6.6112,6.6112,6.6112,6.6112,11.1376,10.9054,10.7168,10.6866,10.69,10.69,10.7001,10.7509,10.7712,10.7103,10.761,10.7712,10.7001,10.761,10.8016,10.7915,10.7813,10.69,10.4802,10.4599,10.399,10.2603,10.2502,10.2502,10.2502,10.2502,10.2502,10.2502,10.2502,10.2198,10.1487,10.2198,10.1724,10.0303,10.0235,9.9796,9.9018,9.7597,9.6954,9.6751,9.5432,9.4823,9.4485,9.2319,9.1508,9.1406,9.0662,9.0425,9.0493,9.1169,9.1913,9.2658,9.3368,9.3098,9.2658,9.3368,9.3064,9.2692,9.3402,9.3571,9.3571,9.3571,9.3571,9.3571,9.3571,9.3571,9.3537,9.3352,9.266,9.1379,8.8877,8.6531,8.4206,8.1808,8.0041,7.8849,7.8789,7.9327,7.9507,7.8938,7.9387,7.9507,7.8938,7.8819,7.8789,7.8789,7.8789,7.8789,7.8789,7.8789,7.8789,7.8789,7.8789,7.8789,7.8789,7.819,7.7562,7.6904,7.6844,7.6574,7.6096,7.6664,7.7263,7.7891,7.7831,7.6915,7.56,7.5333,7.2812,6.9221,6.9056,6.7777,6.6036,6.6086,6.6112,6.6112,11.0893,10.9649,10.8273,10.7134,10.69,10.7103,10.7712,10.7407,10.7306,10.7712,10.7915,10.7712,10.7001,10.761,10.7813,10.7204,10.6595,10.5817,10.4769,10.4193,10.3415,10.2502,10.2502,10.2502,10.2502,10.2502,10.2502,10.2502,10.2502,10.2401,10.2299,10.2401,10.1995,10.1081,10.0506,9.9796,9.9051,9.8138,9.7428,9.6853,9.6548,9.5736,9.4586,9.3503,9.3098,9.2996,9.2218,9.1947,9.1981,9.2116,9.2692,9.3368,9.3537,9.347,9.3368,9.3537,9.347,9.3368,9.3537,9.3571,9.3571,9.3571,9.3571,9.3571,9.3571,9.3571,9.3013,9.0914,9.037,8.9347,8.6371,8.4638,8.322,8.1597,8.0436,7.9417,7.8878,7.8908,7.9148,7.9537,7.9238,7.9178,7.9567,7.9118,7.8789,7.8789,7.8789,7.8789,7.8789,7.8789,7.8789,7.8789,7.8789,7.8789,7.8789,7.8639,7.825,7.7592,7.7083,7.7023,7.7412,7.7532,7.7951,7.8549,7.8041,7.6915,7.5391,7.2845,7.0563,6.8504,6.6901,6.5943,6.5509,6.5961,6.6112,6.6112,10.9505,10.8659,10.779,10.6966,10.69,10.7001,10.7407,10.7103,10.7001,10.7407,10.7509,10.7306,10.69,10.7204,10.7306,10.69,10.6223,10.5479,10.4701,10.399,10.328,10.2502,10.2502,10.2502,10.2502,10.2502,10.2502,10.2502,10.2502,10.2502,10.2502,10.2502,10.2299,10.1893,10.1115,10.0303,9.9559,9.8476,9.7766,9.736,9.665,9.5905,9.5093,9.4011,9.3334,9.2962,9.2556,9.2658,9.2962,9.2962,9.3233,9.3571,9.3571,9.3571,9.3571,9.3571,9.3571,9.3571,9.3571,9.3571,9.3571,9.3571,9.2909,9.2514,9.3419,9.2909,9.1981,9.0493,8.9342,8.7664,8.5239,8.4057,8.296,8.1329,8.0327,7.9806,7.9746,7.9746,7.9776,7.9806,7.9776,7.9627,7.9357,7.8998,7.8789,7.8789,7.8789,7.8789,7.8789,7.8789,7.8789,7.8789,7.8789,7.8789,7.8789,7.8489,7.831,7.828,7.7921,7.7771,7.7831,7.813,7.846,7.8759,7.843,7.6564,7.3562,7.1839,6.9454,6.6887,6.5765,6.5459,6.571,6.6011,6.5936,6.5685,10.7896,10.727,10.6798,10.69,10.69,10.69,10.69,10.69,10.69,10.69,10.69,10.69,10.69,10.69,10.69,10.69,10.6088,10.5377,10.4701,10.3889,10.3111,10.2502,10.2502,10.2502,10.2502,10.2502,10.2502,10.2502,10.2502,10.2502,10.2502,10.2502,10.2502,10.2502,10.169,10.098,10.0134,9.8781,9.8138,9.7901,9.6514,9.5905,9.5635,9.4282,9.33,9.2624,9.2624,9.303,9.3571,9.3571,9.3571,9.3571,9.3571,9.3571,9.3571,9.3571,9.347,9.3402,9.3537,9.32,9.3013,9.3148,9.1835,9.0895,9.2359,9.1554,9.0321,8.9933,8.8307,8.6315,8.4214,8.3622,8.2775,8.1089,8.0434,8.0315,8.0734,8.0704,8.0464,8.0045,8.0375,8.0135,7.8908,7.8789,7.8789,7.8789,7.8789,7.8789,7.8789,7.8789,7.8789,7.8789,7.8789,7.8789,7.8789,7.825,7.825,7.8789,7.8789,7.8519,7.7981,7.843,7.8525,7.8295,7.8206,7.5496,7.1124,7.0905,6.849,6.5032,6.5032,6.5358,6.5835,6.5936,6.5735,6.5333,10.7134,10.6483,10.6122,10.6798,10.69,10.69,10.69,10.69,10.69,10.69,10.69,10.69,10.69,10.69,10.69,10.69,10.558,10.4769,10.4667,10.3415,10.2603,10.2502,10.2502,10.2502,10.2502,10.2502,10.2502,10.2502,10.2502,10.2502,10.2502,10.2502,10.2502,10.2502,10.169,10.098,10.0134,9.9322,9.8578,9.7935,9.7089,9.6345,9.5702,9.4857,9.4079,9.3436,9.3436,9.3503,9.3571,9.3571,9.3571,9.3571,9.3571,9.3571,9.3571,9.3571,9.3098,9.2725,9.3402,9.1978,9.0445,9.1107,8.9935,8.8589,8.8855,8.8722,8.8027,8.5818,8.5541,8.4864,8.18,8.2198,8.238,8.0973,8.1212,8.1362,8.0883,8.0315,8.0135,8.0614,8.0255,7.9656,7.8878,7.8789,7.8789,7.8789,7.8789,7.8789,7.8789,7.8789,7.8789,7.8789,7.8789,7.8789,7.8789,7.8699,7.8699,7.8789,7.8789,7.8729,7.8639,7.816,7.7295,7.6051,7.553,7.2917,6.8864,6.7854,6.6068,6.3902,6.3902,6.4228,6.4756,6.5233,6.566,6.586,10.5755,10.57,10.602,10.6798,10.69,10.69,10.69,10.69,10.69,10.69,10.69,10.69,10.69,10.69,10.69,10.69,10.5885,10.5107,10.4701,10.3686,10.2908,10.2502,10.2502,10.2502,10.2502,10.2502,10.2502,10.2502,10.2502,10.2502,10.2502,10.2502,10.2502,10.2502,10.169,10.098,10.0202,9.9424,9.8679,9.7969,9.7631,9.7056,9.6311,9.5601,9.4857,9.4146,9.374,9.33,9.2928,9.2928,9.2658,9.2387,9.2793,9.2658,9.2455,9.3334,9.303,9.2322,9.2158,9.1322,9.0182,8.9578,8.8052,8.6585,8.6208,8.5307,8.4567,8.4542,8.3593,8.2547,8.1511,8.1811,8.214,8.1931,8.1512,8.1272,8.1332,8.0464,7.9926,8.0225,7.9656,7.9118,7.8819,7.8789,7.8789,7.8789,7.8789,7.8789,7.8789,7.8789,7.8789,7.8789,7.8789,7.8789,7.8789,7.8789,7.8789,7.8789,7.8789,7.8789,7.8789,7.721,7.6147,7.5571,7.3727,7.1089,6.7928,6.7084,6.5511,6.3726,6.4002,6.4454,6.4881,6.453,6.4555,6.463]},{"header":{"parameterUnit":"m.s-1","parameterCategory":1,"la1":30.6,"la2":28.766,"lo1":-90.7593,"lo2":-88.6598,"dx":0.0162,"dy":0.0183,"nx":116,"ny":114,"refTime":"2023-02-01T06:00:00:Z","depth":0,"parameterNumber":3,"parameterNumberName":"V-component_of_WINDS"},"data":[0.0,0.0,0.0,0.0,0.0,0.0,0.0,0.0,0.0,0.0,0.0,0.0,0.0,0.0,0.0,0.0,0.0,0.0,0.0,0.0,0.0,0.0,0.0,0.0,0.0,0.0,0.0,0.0,0.0,0.0,0.0,0.0,0.0,0.0,0.0,0.0,0.0,0.0,0.0,0.0,0.0,0.0,0.0,0.0,0.0,0.0,0.0,0.0,0.0,0.0,0.0,0.0,0.0,0.0,0.0,0.0,0.0,0.0,0.0,0.0,0.0,0.0,0.0,0.0,0.0,0.0,0.0,0.0,0.0,0.0,0.0,0.0,0.0,0.0,0.0,0.0,0.0,0.0,0.0,0.0,0.0,0.0,0.0,0.0,0.0,0.0,0.0,0.0,0.0,0.0,0.0,0.0,0.0,0.0,0.0,0.0,0.0,0.0,0.0,0.0,0.0,0.0,0.0,0.0,0.0,0.0,0.0,0.0,0.0,0.0,0.0,0.0,0.0,0.0,0.0,0.0,0.0,0.0,0.0,0.0,0.0,0.0,0.0,0.0,0.0,0.0,0.0,0.0,0.0,0.0,0.0,0.0,0.0,0.0,0.0,0.0,0.0,0.0,0.0,0.0,0.0,0.0,0.0,0.0,0.0,0.0,0.0,0.0,0.0,0.0,0.0,0.0,0.0,0.0,0.0,0.0,0.0,0.0,0.0,0.0,0.0,0.0,0.0,0.0,0.0,0.0,0.0,0.0,0.0,0.0,0.0,0.0,0.0,0.0,0.0,0.0,0.0,0.0,0.0,0.0,0.0,0.0,0.0,0.0,0.0,0.0,0.0,0.0,0.0,0.0,0.0,0.0,0.0,0.0,0.0,0.0,0.0,0.0,0.0,0.0,0.0,0.0,0.0,0.0,0.0,0.0,0.0,0.0,0.0,0.0,0.0,0.0,0.0,0.0,0.0,0.0,0.0,0.0,0.0,0.0,0.0,0.0,0.0,0.0,0.0,0.0,0.0,0.0,0.0,0.0,0.0,0.0,0.0,0.0,0.0,0.0,0.0,0.0,0.0,0.0,0.0,0.0,0.0,0.0,0.0,0.0,0.0,0.0,0.0,0.0,0.0,0.0,0.0,0.0,0.0,0.0,0.0,0.0,0.0,0.0,0.0,0.0,0.0,0.0,0.0,0.0,0.0,0.0,0.0,0.0,0.0,0.0,0.0,0.0,0.0,0.0,0.0,0.0,0.0,0.0,0.0,0.0,0.0,0.0,0.0,0.0,0.0,0.0,0.0,0.0,0.0,0.0,0.0,0.0,0.0,0.0,0.0,0.0,0.0,0.0,0.0,0.0,0.0,0.0,0.0,0.0,0.0,0.0,0.0,0.0,0.0,0.0,0.0,0.0,0.0,0.0,0.0,0.0,0.0,0.0,0.0,0.0,0.0,0.0,0.0,0.0,0.0,0.0,0.0,0.0,0.0,0.0,0.0,0.0,0.0,0.0,0.0,0.0,0.0,0.0,0.0,0.0,0.0,0.0,0.0,0.0,0.0,0.0,0.0,0.0,0.0,0.0,0.0,0.0,0.0,0.0,0.0,0.0,0.0,0.0,0.0,0.0,0.0,0.0,0.0,0.0,0.0,0.0,0.0,0.0,0.0,0.0,0.0,0.0,0.0,0.0,0.0,0.0,0.0,0.0,0.0,0.0,0.0,0.0,0.0,0.0,0.0,0.0,0.0,0.0,0.0,0.0,0.0,0.0,0.0,0.0,0.0,0.0,0.0,0.0,0.0,0.0,0.0,0.0,0.0,0.0,0.0,0.0,0.0,0.0,0.0,0.0,0.0,0.0,0.0,0.0,0.0,0.0,0.0,0.0,0.0,0.0,0.0,0.0,0.0,0.0,0.0,0.0,0.0,0.0,0.0,0.0,0.0,0.0,0.0,0.0,0.0,0.0,0.0,0.0,0.0,0.0,0.0,0.0,0.0,0.0,0.0,0.0,0.0,0.0,0.0,0.0,0.0,0.0,0.0,0.0,0.0,0.0,0.0,0.0,0.0,0.0,0.0,0.0,0.0,0.0,0.0,0.0,0.0,0.0,0.0,0.0,0.0,0.0,0.0,0.0,0.0,0.0,0.0,0.0,0.0,0.0,0.0,0.0,0.0,0.0,0.0,0.0,0.0,0.0,0.0,0.0,0.0,0.0,0.0,0.0,0.0,0.0,0.0,0.0,0.0,0.0,0.0,0.0,0.0,0.0,0.0,0.0,0.0,0.0,0.0,0.0,0.0,0.0,0.0,0.0,0.0,0.0,0.0,0.0,0.0,0.0,0.0,0.0,0.0,0.0,0.0,0.0,0.0,0.0,0.0,0.0,0.0,0.0,0.0,0.0,0.0,0.0,0.0,0.0,0.0,0.0,0.0,0.0,0.0,0.0,0.0,0.0,0.0,0.0,0.0,0.0,0.0,0.0,0.0,0.0,0.0,0.0,0.0,0.0,0.0,0.0,0.0,0.0,0.0,0.0,0.0,0.0,0.0,0.0,0.0,0.0,0.0,0.0,0.0,0.0,0.0,0.0,0.0,0.0,0.0,0.0,0.0,0.0,0.0,0.0,0.0,0.0,0.0,0.0,0.0,0.0,0.0,0.0,0.0,0.0,0.0,0.0,0.0,0.0,0.0,0.0,0.0,0.0,0.0,0.0,0.0,0.0,0.0,0.0,0.0,0.0,0.0,0.0,0.0,0.0,0.0,0.0,0.0,0.0,0.0,0.0,0.0,0.0,0.0,0.0,0.0,0.0,0.0,0.0,0.0,0.0,0.0,0.0,0.0,0.0,0.0,0.0,0.0,0.0,0.0,0.0,0.0,0.0,0.0,0.0,0.0,0.0,0.0,0.0,0.0,0.0,0.0,0.0,0.0,0.0,0.0,0.0,0.0,0.0,0.0,0.0,0.0,0.0,0.0,0.0,0.0,0.0,0.0,0.0,0.0,0.0,0.0,0.0,0.0,0.0,0.0,0.0,0.0,0.0,0.0,0.0,0.0,0.0,0.0,0.0,0.0,0.0,0.0,0.0,0.0,0.0,0.0,0.0,0.0,0.0,0.0,0.0,0.0,0.0,0.0,0.0,0.0,0.0,0.0,0.0,0.0,0.0,0.0,0.0,0.0,0.0,0.0,0.0,0.0,0.0,0.0,0.0,0.0,0.0,0.0,0.0,0.0,0.0,0.0,0.0,0.0,0.0,0.0,0.0,0.0,0.0,0.0,0.0,0.0,0.0,0.0,0.0,0.0,0.0,0.0,0.0,0.0,0.0,0.0,0.0,0.0,0.0,0.0,0.0,0.0,0.0,0.0,0.0,0.0,0.0,0.0,0.0,0.0,0.0,0.0,0.0,0.0,0.0,0.0,0.0,0.0,0.0,0.0,0.0,0.0,0.0,0.0,0.0,0.0,0.0,0.0,0.0,0.0,0.0,0.0,0.0,0.0,0.0,0.0,0.0,0.0,0.0,0.0,0.0,0.0,0.0,0.0,0.0,0.0,0.0,0.0,0.0,0.0,0.0,0.0,0.0,0.0,0.0,0.0,0.0,0.0,0.0,0.0,0.0,0.0,0.0,0.0,0.0,0.0,0.0,0.0,0.0,0.0,0.0,0.0,0.0,0.0,0.0,0.0,0.0,0.0,0.0,0.0,0.0,0.0,0.0,0.0,0.0,0.0,0.0,0.0,0.0,0.0,0.0,0.0,0.0,0.0,0.0,0.0,0.0,0.0,0.0,0.0,0.0,0.0,0.0,0.0,0.0,0.0,0.0,0.0,0.0,0.0,0.0,0.0,0.0,0.0,0.0,0.0,0.0,0.0,0.0,0.0,0.0,0.0,0.0,0.0,0.0,0.0,0.0,0.0,0.0,0.0,0.0,0.0,0.0,0.0,0.0,0.0,0.0,0.0,0.0,0.0,0.0,0.0,0.0,0.0,0.0,0.0,0.0,0.0,0.0,0.0,0.0,0.0,0.0,0.0,0.0,0.0,0.0,0.0,0.0,0.0,0.0,0.0,0.0,0.0,0.0,0.0,0.0,0.0,0.0,0.0,0.0,0.0,0.0,0.0,0.0,0.0,0.0,0.0,0.0,0.0,0.0,0.0,0.0,0.0,0.0,0.0,0.0,0.0,0.0,0.0,0.0,0.0,0.0,0.0,0.0,0.0,0.0,0.0,0.0,0.0,0.0,0.0,0.0,0.0,0.0,0.0,0.0,0.0,0.0,0.0,0.0,0.0,0.0,0.0,0.0,0.0,0.0,0.0,0.0,0.0,0.0,0.0,0.0,0.0,0.0,0.0,0.0,0.0,0.0,0.0,0.0,0.0,0.0,0.0,0.0,0.0,0.0,0.0,0.0,0.0,0.0,0.0,0.0,0.0,0.0,0.0,0.0,0.0,0.0,0.0,0.0,0.0,0.0,0.0,0.0,0.0,0.0,0.0,0.0,0.0,0.0,0.0,0.0,0.0,0.0,0.0,0.0,0.0,0.0,0.0,0.0,0.0,0.0,0.0,0.0,0.0,0.0,0.0,0.0,0.0,0.0,0.0,0.0,0.0,0.0,0.0,0.0,0.0,0.0,0.0,0.0,0.0,0.0,0.0,0.0,0.0,0.0,0.0,0.0,0.0,0.0,0.0,0.0,0.0,0.0,0.0,0.0,0.0,0.0,0.0,0.0,0.0,0.0,0.0,0.0,0.0,0.0,0.0,0.0,0.0,0.0,0.0,0.0,0.0,0.0,0.0,0.0,0.0,0.0,0.0,0.0,0.0,0.0,0.0,0.0,0.0,0.0,0.0,0.0,0.0,0.0,0.0,0.0,0.0,0.0,0.0,0.0,0.0,0.0,0.0,0.0,0.0,0.0,0.0,0.0,0.0,0.0,0.0,0.0,0.0,0.0,0.0,0.0,0.0,0.0,0.0,0.0,0.0,0.0,0.0,0.0,0.0,0.0,0.0,0.0,0.0,0.0,0.0,0.0,0.0,0.0,0.0,0.0,0.0,0.0,0.0,0.0,0.0,0.0,0.0,0.0,0.0,0.0,0.0,0.0,0.0,0.0,0.0,0.0,0.0,0.0,0.0,0.0,0.0,0.0,0.0,0.0,0.0,0.0,0.0,0.0,0.0,0.0,0.0,0.0,0.0,0.0,0.0,0.0,0.0,0.0,0.0,0.0,0.0,0.0,0.0,0.0,0.0,0.0,0.0,0.0,0.0,0.0,0.0,0.0,0.0,0.0,0.0,0.0,0.0,0.0,0.0,0.0,0.0,0.0,0.0,0.0,0.0,0.0,0.0,0.0,0.0,0.0,0.0,0.0,0.0,0.0,0.0,0.0,0.0,0.0,0.0,0.0,0.0,0.0,0.0,0.0,0.0,0.0,0.0,0.0,0.0,0.0,0.0,0.0,0.0,0.0,0.0,0.0,0.0,0.0,0.0,0.0,0.0,0.0,0.0,0.0,0.0,0.0,0.0,0.0,0.0,0.0,0.0,0.0,0.0,0.0,0.0,0.0,0.0,0.0,0.0,0.0,0.0,0.0,0.0,0.0,0.0,0.0,0.0,0.0,0.0,0.0,0.0,0.0,0.0,0.0,0.0,0.0,0.0,0.0,0.0,0.0,0.0,0.0,0.0,0.0,0.0,0.0,0.0,0.0,0.0,0.0,0.0,0.0,0.0,0.0,0.0,0.0,0.0,0.0,0.0,0.0,0.0,0.0,0.0,0.0,0.0,0.0,0.0,0.0,0.0,0.0,0.0,0.0,0.0,0.0,0.0,0.0,0.0,0.0,0.0,0.0,0.0,0.0,0.0,0.0,0.0,0.0,0.0,0.0,0.0,0.0,0.0,0.0,0.0,0.0,0.0,0.0,0.0,0.0,0.0,0.0,0.0,0.0,0.0,0.0,0.0,0.0,0.0,0.0,0.0,0.0,0.0,0.0,0.0,0.0,0.0,0.0,0.0,0.0,0.0,0.0,0.0,0.0,0.0,0.0,0.0,0.0,0.0,0.0,0.0,0.0,0.0,0.0,0.0,0.0,0.0,0.0,0.0,0.0,0.0,0.0,0.0,0.0,0.0,0.0,0.0,0.0,0.0,0.0,-2.4569,0.0,0.0,0.0,0.0,0.0,0.0,0.0,0.0,0.0,0.0,0.0,0.0,0.0,0.0,0.0,0.0,0.0,0.0,0.0,0.0,0.0,0.0,0.0,0.0,0.0,0.0,0.0,0.0,0.0,0.0,0.0,0.0,0.0,0.0,0.0,0.0,0.0,0.0,0.0,0.0,0.0,0.0,0.0,0.0,0.0,0.0,0.0,0.0,0.0,0.0,0.0,0.0,0.0,0.0,0.0,0.0,0.0,0.0,0.0,0.0,0.0,0.0,0.0,0.0,0.0,0.0,0.0,0.0,0.0,0.0,0.0,0.0,0.0,0.0,0.0,0.0,0.0,0.0,0.0,0.0,0.0,0.0,0.0,0.0,0.0,0.0,0.0,0.0,0.0,0.0,0.0,0.0,0.0,0.0,0.0,0.0,0.0,0.0,0.0,0.0,0.0,0.0,0.0,0.0,0.0,0.0,0.0,0.0,0.0,0.0,0.0,0.0,0.0,0.0,0.0,0.0,-2.5518,0.0,0.0,0.0,0.0,0.0,0.0,0.0,0.0,0.0,0.0,0.0,0.0,0.0,0.0,0.0,0.0,0.0,0.0,0.0,0.0,0.0,0.0,0.0,0.0,0.0,0.0,0.0,0.0,0.0,0.0,0.0,0.0,0.0,0.0,0.0,0.0,0.0,0.0,0.0,0.0,0.0,0.0,0.0,0.0,0.0,0.0,0.0,0.0,0.0,0.0,0.0,0.0,0.0,0.0,0.0,0.0,0.0,0.0,0.0,0.0,0.0,0.0,0.0,0.0,0.0,0.0,0.0,0.0,0.0,0.0,0.0,0.0,0.0,0.0,0.0,0.0,0.0,0.0,0.0,0.0,0.0,0.0,0.0,0.0,0.0,0.0,0.0,0.0,0.0,0.0,0.0,0.0,0.0,0.0,0.0,0.0,0.0,0.0,0.0,0.0,0.0,0.0,0.0,0.0,0.0,0.0,0.0,0.0,0.0,-2.8003,-2.8524,-2.8524,-2.8831,-2.9245,-2.7535,-2.6787,-2.6747,0.0,0.0,0.0,0.0,0.0,0.0,0.0,0.0,0.0,0.0,0.0,0.0,0.0,0.0,0.0,0.0,0.0,0.0,0.0,0.0,0.0,0.0,0.0,0.0,0.0,0.0,0.0,0.0,0.0,0.0,0.0,0.0,0.0,0.0,0.0,0.0,0.0,0.0,0.0,0.0,0.0,0.0,0.0,0.0,0.0,0.0,0.0,0.0,0.0,0.0,0.0,0.0,0.0,0.0,0.0,0.0,0.0,0.0,0.0,0.0,0.0,0.0,0.0,0.0,0.0,0.0,0.0,0.0,0.0,0.0,0.0,0.0,0.0,0.0,0.0,0.0,0.0,0.0,0.0,0.0,0.0,0.0,0.0,0.0,0.0,0.0,0.0,-3.2985,-3.1705,0.0,0.0,0.0,0.0,0.0,0.0,0.0,0.0,0.0,0.0,0.0,0.0,0.0,0.0,-2.831,-2.8778,-2.9058,-2.9138,-2.9432,-2.974,-3.0074,-3.0074,-3.0247,-3.0555,-3.0274,0.0,-2.8297,-2.7976,0.0,0.0,0.0,0.0,0.0,0.0,0.0,0.0,0.0,0.0,0.0,0.0,0.0,0.0,0.0,0.0,0.0,0.0,0.0,0.0,0.0,0.0,0.0,0.0,0.0,0.0,0.0,0.0,0.0,0.0,0.0,0.0,0.0,0.0,0.0,0.0,0.0,0.0,0.0,0.0,0.0,0.0,-2.9272,-2.8457,-2.7722,-2.7175,0.0,0.0,0.0,0.0,0.0,0.0,0.0,0.0,0.0,0.0,0.0,0.0,0.0,0.0,0.0,0.0,0.0,0.0,0.0,0.0,0.0,0.0,0.0,0.0,0.0,0.0,0.0,0.0,0.0,0.0,0.0,0.0,0.0,0.0,0.0,0.0,0.0,0.0,0.0,-3.5435,-3.5175,-3.2009,-3.3123,-3.39,0.0,0.0,0.0,0.0,0.0,0.0,0.0,0.0,0.0,-2.8497,-2.8925,-2.9205,-2.9339,-2.9927,-3.0381,-3.0715,-3.1183,-3.1637,-3.2078,-3.2078,-3.2238,-3.2532,-3.2532,-3.1877,-3.0702,-2.9245,-2.8323,-2.7762,0.0,0.0,0.0,0.0,0.0,-2.8071,0.0,0.0,0.0,0.0,0.0,0.0,0.0,0.0,0.0,0.0,0.0,0.0,0.0,0.0,0.0,0.0,0.0,0.0,0.0,0.0,0.0,0.0,0.0,0.0,0.0,0.0,0.0,0.0,0.0,0.0,0.0,0.0,0.0,0.0,-3.177,-3.0782,-2.9005,-2.8323,-2.7669,0.0,0.0,0.0,0.0,0.0,0.0,0.0,0.0,0.0,0.0,0.0,0.0,0.0,0.0,0.0,0.0,0.0,0.0,0.0,0.0,0.0,0.0,0.0,0.0,0.0,0.0,0.0,0.0,0.0,0.0,0.0,0.0,0.0,0.0,0.0,0.0,0.0,0.0,-3.6174,-3.6757,-3.2726,-3.5047,-3.6345,0.0,0.0,0.0,0.0,0.0,0.0,-2.8816,-2.9005,-2.9472,-3.0127,-3.0434,-3.0621,-3.0702,-3.1289,-3.181,-3.2238,-3.2759,-3.3267,-3.3761,-3.3761,-3.4274,-3.5101,-3.5101,-3.5007,-3.4824,-3.128,-2.9633,-2.9098,-2.843,-2.8655,0.0,-2.9146,-2.993,-3.1349,0.0,0.0,0.0,0.0,0.0,0.0,0.0,0.0,0.0,0.0,0.0,0.0,0.0,0.0,0.0,0.0,0.0,0.0,0.0,0.0,0.0,0.0,0.0,0.0,0.0,0.0,0.0,0.0,0.0,0.0,0.0,0.0,0.0,0.0,-3.4442,-3.3414,-3.1383,-2.9686,-2.8951,-2.8751,0.0,0.0,0.0,0.0,0.0,0.0,0.0,0.0,0.0,0.0,0.0,0.0,0.0,0.0,0.0,0.0,0.0,0.0,0.0,0.0,0.0,0.0,0.0,0.0,0.0,0.0,0.0,0.0,0.0,0.0,0.0,0.0,0.0,0.0,0.0,0.0,0.0,0.0,0.0,-3.3326,-3.6307,0.0,0.0,0.0,0.0,-3.0854,-2.9578,-2.9299,-3.0194,-3.0528,-3.1076,-3.1944,-3.2265,-3.2545,-3.2826,-3.3427,-3.3748,-3.3774,-3.4082,-3.4402,-3.4696,-3.4696,-3.6106,-3.8528,-3.8528,-3.9737,-4.1146,-3.4852,-3.1704,-3.0675,-3.0635,-3.2211,-3.4337,-3.4337,-3.5948,-3.8217,0.0,0.0,0.0,0.0,0.0,0.0,0.0,0.0,0.0,0.0,0.0,0.0,0.0,0.0,0.0,0.0,0.0,0.0,0.0,0.0,0.0,0.0,0.0,0.0,0.0,0.0,0.0,0.0,0.0,0.0,0.0,0.0,-3.4603,-3.4629,-3.511,-3.491,-3.4082,-3.2131,-3.0635,-2.9486,-2.8083,-2.6921,0.0,0.0,0.0,0.0,0.0,0.0,0.0,0.0,0.0,0.0,0.0,0.0,0.0,0.0,0.0,0.0,0.0,0.0,0.0,0.0,0.0,0.0,0.0,0.0,0.0,0.0,0.0,0.0,0.0,0.0,0.0,0.0,0.0,0.0,0.0,0.0,0.0,-3.8291,-4.1398,0.0,-3.6777,-3.5989,-3.487,-3.2762,-3.1028,-3.0715,-3.1984,-3.2318,-3.2893,-3.3788,-3.3921,-3.4028,-3.4122,-3.4349,-3.4549,-3.4736,-3.483,-3.5137,-3.5591,-3.7251,-3.8587,-3.9404,-4.1439,-4.2263,-4.2377,-4.0205,-3.8202,-3.6713,-3.6277,-3.6506,-3.7193,-3.7193,-3.7874,-3.916,0.0,0.0,0.0,0.0,0.0,0.0,0.0,0.0,0.0,0.0,0.0,0.0,0.0,0.0,0.0,0.0,0.0,0.0,0.0,0.0,0.0,0.0,0.0,0.0,0.0,0.0,0.0,0.0,0.0,0.0,0.0,-3.5217,-3.5498,-3.5525,-3.6206,-3.6473,-3.6273,-3.4803,-3.2933,-3.0808,-2.9232,-2.8243,-2.7575,0.0,0.0,0.0,0.0,0.0,0.0,0.0,0.0,0.0,0.0,0.0,0.0,0.0,0.0,0.0,0.0,0.0,0.0,0.0,0.0,0.0,0.0,0.0,0.0,0.0,0.0,0.0,0.0,0.0,0.0,0.0,0.0,0.0,0.0,0.0,-4.3543,-4.2424,-4.5568,-4.5659,-4.0711,-3.9984,-3.8679,-3.5488,-3.4345,-3.3879,-3.3814,-3.4242,-3.4736,-3.5338,-3.5444,-3.5444,-3.5351,-3.6381,-3.6788,-3.6774,-3.781,-3.8431,-3.8836,-4.0466,-4.1864,-4.2805,-4.4528,-4.5628,-4.5959,-4.5836,-4.4975,-4.3386,-4.095,-4.0576,-4.1171,-4.0731,-4.143,-4.269,0.0,0.0,0.0,0.0,0.0,0.0,0.0,0.0,0.0,0.0,0.0,0.0,0.0,0.0,0.0,0.0,0.0,0.0,0.0,0.0,0.0,0.0,0.0,0.0,0.0,0.0,0.0,0.0,0.0,0.0,-3.5257,-3.6433,-3.6967,-3.7008,-3.7889,-3.8116,-3.7849,-3.7555,-3.5765,-3.2933,-3.0555,-2.9566,-2.9325,0.0,0.0,0.0,0.0,0.0,0.0,0.0,0.0,0.0,0.0,0.0,0.0,0.0,0.0,0.0,0.0,0.0,0.0,0.0,0.0,0.0,0.0,0.0,0.0,0.0,0.0,0.0,0.0,0.0,0.0,0.0,0.0,0.0,-4.0664,-4.3613,-4.5801,-4.5859,-4.8496,-4.8838,-4.4911,-4.564,-4.3973,-3.8691,-3.9185,-3.8646,-3.5872,-3.6436,-3.6745,-3.6745,-3.7014,-3.7014,-3.6745,-3.9473,-4.0619,-3.9793,-4.266,-4.4101,-4.4118,-4.4101,-4.5738,-4.8759,-4.8342,-4.9617,-5.2051,-5.1601,-5.1191,-5.0339,-4.4376,-4.3901,-4.6296,-4.5499,-4.7009,-4.9394,0.0,0.0,0.0,0.0,0.0,0.0,0.0,0.0,0.0,0.0,0.0,0.0,0.0,0.0,0.0,0.0,0.0,0.0,0.0,0.0,0.0,0.0,0.0,0.0,0.0,0.0,0.0,0.0,-3.5378,-3.5939,-3.6166,-3.7128,-3.7555,-3.7595,-3.8504,-3.8865,-3.8758,-3.8464,-3.7742,-3.6513,-3.3307,-3.1383,-3.0261,0.0,0.0,0.0,0.0,0.0,0.0,0.0,0.0,0.0,0.0,0.0,0.0,0.0,0.0,0.0,0.0,0.0,0.0,0.0,0.0,0.0,0.0,0.0,0.0,0.0,0.0,0.0,0.0,0.0,0.0,0.0,0.0,-4.3789,-4.3789,-4.6211,-4.8574,-5.0137,-5.1894,-5.185,-4.9183,-4.9017,-4.7588,-4.4249,-4.2211,-4.0824,-4.0299,-4.0271,-4.0475,-4.0707,-4.2741,-4.2495,-4.0023,-4.2736,-4.2729,-4.0451,-4.3125,-4.4732,-4.5229,-4.7062,-4.8247,-4.9157,-5.0635,-5.173,-5.2051,-5.1601,-5.1367,-5.0998,-4.9068,-4.8746,-4.9148,-4.8918,-4.9104,-4.9453,0.0,0.0,0.0,0.0,0.0,0.0,0.0,0.0,0.0,0.0,0.0,0.0,0.0,0.0,0.0,0.0,0.0,0.0,0.0,0.0,0.0,0.0,0.0,0.0,0.0,0.0,-3.4523,-3.5925,-3.6513,-3.6941,-3.7275,-3.8036,-3.8357,-3.8424,-3.9306,-3.9706,-3.9706,-3.9533,-3.9279,-3.8771,-3.6219,-3.4309,-3.2799,-3.0955,-3.0739,-3.1373,-2.9485,-3.0029,-3.1587,-3.0557,0.0,0.0,0.0,0.0,0.0,0.0,0.0,0.0,0.0,0.0,0.0,0.0,0.0,0.0,0.0,0.0,0.0,0.0,0.0,0.0,0.0,0.0,0.0,0.0,-4.4512,-4.6738,-4.7832,-4.9258,-5.0879,-5.2676,-5.4199,-5.4549,-5.3247,-5.3378,-5.2259,-4.904,-4.7407,-4.5989,-4.4711,-4.4868,-4.4677,-4.4615,-4.6323,-4.603,-4.38,-4.6587,-4.6677,-4.4516,-4.7426,-4.8817,-4.9102,-5.0749,-5.1557,0.0,-5.2618,-5.2734,-5.2305,-5.168,-5.1426,0.0,0.0,0.0,0.0,0.0,-4.9902,-4.9453,0.0,0.0,0.0,0.0,0.0,0.0,0.0,0.0,0.0,0.0,0.0,0.0,0.0,0.0,0.0,0.0,0.0,0.0,0.0,0.0,0.0,-3.3643,-3.6271,-3.6883,-3.4367,-3.5375,-3.6286,-3.7155,-3.7702,-3.8103,-3.837,-3.9012,-3.9306,-3.9346,-4.0187,-4.0588,-4.0588,-4.0588,-4.0441,-4.0067,-3.8985,-3.7595,-3.5925,-3.3694,-3.2786,-3.2559,-3.1436,-3.0368,-2.9595,-3.1024,0.0,0.0,0.0,0.0,0.0,0.0,0.0,0.0,0.0,0.0,0.0,0.0,0.0,0.0,0.0,0.0,0.0,0.0,0.0,0.0,0.0,0.0,0.0,0.0,-4.6933,-4.9453,-5.2012,-5.25,-5.3008,-5.4121,-5.5723,-5.6738,-5.6738,-5.75,-5.6698,-5.3787,-5.3396,-5.2262,-4.9189,0.0,0.0,0.0,0.0,-4.8819,-4.7893,-5.0772,-5.1295,-4.9926,-5.3328,-5.459,-5.418,-5.457,-5.4726,-5.4629,-5.3808,-5.3164,-5.2637,-5.1836,-5.1484,-5.1387,-5.1016,-5.1094,-5.1328,-5.0547,-4.998,0.0,0.0,0.0,0.0,0.0,0.0,0.0,0.0,0.0,0.0,0.0,0.0,0.0,0.0,0.0,-4.8711,-5.0293,-4.8125,-4.6094,0.0,0.0,-3.8392,-4.1506,-3.7521,-3.6584,-3.9781,-3.8294,-3.7702,-3.8397,-3.8718,-3.8931,-3.9012,-3.9813,-4.0214,-4.0254,-4.0869,-4.1163,-4.1163,-4.1163,-4.1122,-4.1056,-4.0575,-3.8945,-3.662,-3.5217,-3.4242,-3.3534,-3.2812,-3.2412,-3.2064,-3.1407,-3.3794,-3.6741,-3.5439,0.0,0.0,0.0,0.0,0.0,0.0,0.0,0.0,0.0,0.0,0.0,0.0,0.0,0.0,0.0,0.0,0.0,0.0,0.0,0.0,-4.709,-4.9355,-5.1601,-5.3867,-5.5058,-5.5683,-5.5586,-5.6777,-5.7617,-5.7617,-5.8437,-5.8528,-5.7398,-5.5339,-5.3363,-5.2503,-5.2539,0.0,-5.2397,-5.4727,-5.4761,-5.1809,-5.4712,-5.4477,-5.1403,0.0,0.0,-5.5058,-5.5137,-5.5,-5.4648,-5.4121,-5.3437,-5.2676,-5.2168,-5.1758,-5.1426,-5.1348,-5.1367,-5.1367,-5.0859,-5.041,-5.0,0.0,0.0,0.0,0.0,0.0,0.0,0.0,0.0,0.0,0.0,0.0,-4.1016,-4.2305,-4.4355,-4.5918,-4.6562,-4.5234,0.0,0.0,-4.1904,-4.2334,-4.3922,-4.2863,-4.3004,-4.4773,-4.2243,-4.1043,-4.1652,-4.0351,-3.9893,-4.0027,-4.0615,-4.0909,-4.0949,-4.1376,-4.1563,-4.1563,-4.171,-4.171,-4.1563,-4.1416,-4.0468,-3.9012,-3.7662,-3.7702,-3.807,-3.7415,-3.7782,-3.8462,-3.746,-3.8292,-3.9691,-3.8374,-3.9901,-4.165,0.0,0.0,0.0,0.0,0.0,0.0,0.0,0.0,0.0,0.0,0.0,0.0,0.0,0.0,-4.2851,0.0,0.0,-4.7734,-5.0078,-5.209,-5.3965,-5.5703,-5.668,-5.7148,-5.6933,-5.7676,-5.8262,-5.8496,-5.8906,-5.9062,-5.8887,-5.7451,-5.6422,-5.6215,-5.6215,-5.6103,-5.5915,-5.7523,-5.733,-5.5515,-5.6866,-5.6538,-5.4571,-5.6132,-5.668,-5.625,-5.625,-5.6035,-5.5586,-5.4726,-5.3984,-5.3301,-5.2441,-5.1953,-5.1738,-5.1523,-5.1426,-5.1387,-5.0957,-5.0664,-5.0391,0.0,0.0,0.0,0.0,0.0,0.0,0.0,0.0,0.0,0.0,0.0,-3.9726,-4.0566,-4.2109,-4.291,0.0,0.0,0.0,0.0,-4.5053,-4.7045,-4.631,-4.8824,-4.9891,-4.9384,-4.66,-4.5022,-4.495,-4.2629,-4.1507,-4.1096,-4.131,-4.1483,-4.1603,-4.1857,-4.2004,-4.2071,-4.2365,-4.2298,-4.2044,-4.2111,-4.1924,-4.1456,-4.0214,-4.0932,-4.2813,-4.2736,-4.3395,-4.4043,-4.344,-4.2724,-4.2056,-4.1849,-4.2583,-4.3366,-4.1693,-4.255,0.0,0.0,0.0,0.0,0.0,0.0,0.0,0.0,0.0,-4.2305,-4.3242,-4.4414,-4.5781,-4.75,-4.9082,-5.084,-5.2988,-5.459,-5.5996,-5.7285,-5.7793,-5.8027,-5.8105,-5.8359,-5.8652,-5.9004,-5.9121,-5.918,-5.918,-5.918,-5.918,-5.918,-5.918,-5.9004,-5.8652,-5.8652,-5.8476,-5.8144,-5.8105,-5.791,-5.748,-5.7812,-5.7754,-5.7344,-5.7246,-5.6992,-5.6504,-5.5156,-5.4355,-5.3926,-5.2617,-5.209,-5.2031,-5.1601,-5.1426,-5.1387,-5.1055,-5.0879,-5.0703,0.0,0.0,0.0,0.0,0.0,0.0,0.0,0.0,0.0,0.0,0.0,0.0,0.0,0.0,0.0,0.0,0.0,0.0,-4.5493,-4.6262,-4.8903,-5.3878,-5.0961,-5.0618,-5.3711,-5.1086,-4.8411,-4.5952,-4.5769,-4.4266,-4.1684,-4.171,-4.2004,-4.2512,-4.2552,-4.2699,-4.2953,-4.3273,-4.3207,-4.298,-4.3233,-4.302,-4.2472,-4.2031,-4.292,-4.4728,-4.6462,-4.6059,-4.4466,-4.4383,-4.5237,-4.5984,-4.5784,-4.7343,-4.873,-4.6288,-4.4985,-4.3926,-4.209,-4.1133,-4.0625,-4.0488,-4.1016,-4.1894,0.0,0.0,-4.5527,-4.6758,-4.7734,-4.8887,-5.0605,-5.1699,-5.3066,-5.5215,-5.6074,-5.6894,-5.8183,-5.8418,-5.8594,-5.9004,-5.8711,-5.8535,-5.8594,-5.8945,-5.918,-5.918,-5.918,-5.918,-5.918,-5.918,-5.918,-5.9121,-5.9121,-5.9062,-5.9023,-5.9023,-5.8828,-5.8359,-5.8418,-5.8203,-5.7793,-5.7383,-5.6992,-5.6484,-5.4824,-5.4082,-5.3926,-5.2617,-5.209,-5.2031,-5.1601,-5.1426,-5.1426,-5.1387,-5.1133,-5.0742,0.0,0.0,0.0,0.0,0.0,0.0,0.0,0.0,0.0,0.0,0.0,0.0,0.0,0.0,0.0,0.0,0.0,0.0,-4.6152,-4.911,-5.2737,-5.7051,-5.6253,-5.6225,-5.8007,-5.5088,-5.2891,-5.1829,-4.8426,-4.6034,-4.4968,-4.3365,-4.2699,-4.2913,-4.31,-4.3127,-4.3127,-4.3781,-4.3781,-4.3627,-4.6163,-4.6757,-4.6354,-4.9593,-5.0386,-4.9539,-4.7544,-4.7817,0.0,0.0,-4.8452,-4.8935,-4.9485,-4.9627,-4.9141,-4.7812,-4.6152,-4.4433,-4.2949,-4.209,-4.1758,-4.2246,-4.3398,-4.4687,-4.5723,-4.7168,-4.8594,-4.9609,-5.0703,-5.2012,-5.373,-5.4551,-5.5508,0.0,-5.7598,-5.8086,-5.9121,-5.9062,-5.8887,-5.8828,-5.8652,-5.8652,-5.8887,-5.9062,-5.918,-5.918,-5.918,-5.918,-5.918,-5.918,-5.918,-5.918,-5.918,-5.918,-5.918,-5.918,-5.9062,-5.8887,-5.8887,-5.8828,-5.8613,-5.8183,-5.748,-5.6543,-5.582,-5.5234,-5.4707,-5.3926,-5.3437,-5.3164,-5.2734,-5.2246,-5.1777,-5.1523,-5.1308,-5.1113,0.0,0.0,0.0,0.0,0.0,0.0,0.0,0.0,0.0,0.0,0.0,0.0,0.0,0.0,0.0,0.0,0.0,0.0,0.0,-5.0683,-5.4902,-5.8027,-5.9512,-6.0371,-6.0605,-5.8552,-5.7015,-5.6384,-5.2195,-4.9159,-4.7671,-4.546,-4.4296,-4.3607,-4.3634,-4.413,-4.5144,-4.5905,-4.6434,-4.6972,-5.0031,-5.0777,-5.0198,-5.3767,-5.4,-5.2023,-4.9058,-4.9339,0.0,-5.0,-4.9277,-4.9141,-5.0293,-4.9746,-4.8516,-4.7734,-4.5898,-4.3984,-4.3281,-4.3027,-4.3262,-4.4473,-4.5996,-4.75,-4.8711,-5.0156,-5.1543,-5.2637,-5.3691,-5.4883,-5.6367,-5.6914,-5.75,-5.8711,-5.8887,-5.916,-5.9863,-5.9531,-5.8965,-5.8418,-5.8027,-5.7969,-5.8437,-5.8789,-5.9062,-5.918,-5.9297,-5.9297,-5.918,-5.9414,-5.9414,-5.918,-5.9414,-5.9414,-5.918,-5.9414,-5.9414,-5.918,-5.9297,-5.9297,-5.918,-5.8711,-5.789,-5.6758,-5.664,-5.6172,-5.543,-5.4765,-5.4316,-5.3965,-5.3398,-5.2734,-5.2051,-5.1719,-5.1523,-5.1367,0.0,0.0,0.0,0.0,0.0,0.0,0.0,0.0,0.0,0.0,0.0,0.0,0.0,0.0,0.0,0.0,0.0,0.0,0.0,-4.9512,-5.3672,-5.7109,-5.8887,-6.0215,-6.1035,-6.1465,-6.0174,-5.7376,-5.7548,-5.4866,-4.9001,-4.8418,-4.6772,-4.481,-4.4222,-4.6086,-5.0018,-5.0347,-5.2135,-5.5138,-5.4913,-5.4305,-5.3122,-5.0986,-4.9961,-5.0094,-5.2246,0.0,0.0,0.0,-4.6152,-4.5957,-4.6816,-4.7617,-4.791,-4.625,-4.3926,-4.207,-4.2871,0.0,-4.4844,-4.6933,-4.8457,-4.998,-5.207,-5.3262,-5.4394,-5.6074,-5.6777,-5.7363,-5.8301,-5.8476,-5.8769,-5.9629,-5.9765,-5.9922,-6.0371,-5.9707,-5.8848,-5.7988,-5.6777,-5.6191,0.0,-5.7793,-5.8711,-5.914,-5.957,-5.9629,-5.918,-5.998,-6.0039,-5.918,-5.998,-5.998,-5.918,-5.998,-5.998,-5.918,-5.959,-5.959,-5.918,-5.8711,-5.8027,-5.7168,-5.6758,-5.6328,-5.582,-5.457,-5.4043,-5.3945,-5.3066,-5.2461,-5.209,-5.207,-5.1797,-5.1367,0.0,0.0,0.0,0.0,0.0,0.0,0.0,0.0,0.0,0.0,0.0,0.0,0.0,0.0,0.0,0.0,0.0,0.0,0.0,-4.7656,-5.1367,-5.4512,-5.7422,-5.9238,-5.9824,-6.0801,-6.1019,-6.0193,-5.8445,-5.6664,-5.4933,-5.2915,-5.1873,-5.1546,-5.1779,-5.2656,-5.3682,-5.4029,-5.5012,-5.6159,-5.7501,-5.7839,-5.7124,-5.5983,-5.3773,-5.1105,0.0,0.0,0.0,0.0,0.0,-4.373,-4.4883,-4.5234,-4.4883,-4.3183,-4.3281,-4.4004,0.0,0.0,-4.8242,-5.0098,-5.1973,-5.3711,-5.498,-5.6191,-5.7187,-5.7773,-5.7305,-5.6894,-5.7187,-5.6992,-5.709,-5.7949,-5.8828,-5.9746,-6.0742,-6.039,-5.9355,-5.7637,-5.7305,0.0,0.0,0.0,0.0,-5.8652,-5.918,-5.9473,-5.959,-5.9863,-6.0039,-6.0039,-6.0273,-6.0312,-6.0039,-6.0312,-6.0156,-5.959,-5.9473,-5.9297,-5.918,-5.8711,-5.8203,-5.7617,-5.7187,-5.6758,-5.6328,-5.5898,-5.539,-5.4844,-5.4551,-5.3828,-5.2891,-5.2598,-5.2226,-5.1797,0.0,0.0,0.0,0.0,0.0,0.0,0.0,0.0,0.0,0.0,0.0,0.0,0.0,0.0,0.0,0.0,0.0,0.0,0.0,0.0,-4.793,-5.0937,-5.3496,-5.5273,-5.6172,-5.6836,-5.7695,-5.8711,-5.7212,-5.6391,-5.6309,-5.475,-5.3982,-5.3516,-5.3993,-5.4954,-5.6256,-5.6359,-5.695,-5.7634,-5.8534,-5.7982,-5.6695,-5.5301,-5.2441,0.0,0.0,0.0,0.0,0.0,-4.1035,-4.166,-4.2519,-4.2793,-4.2676,-4.2031,-4.3359,-4.5254,0.0,-4.8613,-5.1152,-5.3183,-5.4961,-5.6484,-5.75,-5.8262,-5.8652,-5.8359,-5.7265,-5.6211,-5.5762,-5.4941,-5.4765,-5.6094,-5.7031,-5.8262,-6.0156,-5.9883,-5.9062,-5.7832,-5.7246,-5.664,0.0,0.0,0.0,-5.8418,-5.8945,-5.9297,-5.957,-5.9863,-6.0098,-6.0215,-6.0508,-6.0605,-6.043,-6.0605,-6.039,-5.9805,-5.9414,-5.918,-5.918,-5.8887,-5.8535,-5.8086,-5.7637,-5.7207,-5.6777,-5.6484,-5.6035,-5.5508,-5.5195,-5.4473,-5.3555,-5.3105,-5.2578,-5.2012,0.0,0.0,0.0,0.0,0.0,0.0,0.0,0.0,0.0,0.0,0.0,0.0,0.0,0.0,0.0,0.0,0.0,0.0,0.0,0.0,0.0,-4.6465,-4.7519,-4.8848,-5.0566,-5.0293,-5.1133,-5.3203,-5.4062,-5.3973,-5.3103,-5.374,-5.309,-5.1397,-5.143,-5.375,-5.7556,-5.7195,-5.7864,-5.9355,-5.7617,-5.5195,-5.2285,-4.9277,0.0,0.0,0.0,0.0,0.0,0.0,-3.918,-3.9941,-4.0039,-4.0625,-4.1543,-4.2871,0.0,-4.5976,-4.8945,-5.1348,-5.3613,-5.6113,-5.7383,-5.832,-5.9531,-5.9414,-5.8828,-5.791,-5.6582,-5.5215,0.0,0.0,-5.2051,-5.4199,-5.4707,-5.5879,-5.8848,-5.8555,-5.8203,0.0,0.0,0.0,0.0,0.0,0.0,-5.8476,0.0,-5.918,-5.9238,-6.0039,-6.0312,-5.9922,-6.0683,-6.0918,-6.0488,-6.0859,-6.0625,-5.9824,-5.9414,-5.918,-5.918,-5.918,-5.8945,-5.8535,-5.8027,-5.7598,-5.7148,-5.6308,-5.5937,-5.582,-5.5019,-5.4433,-5.3965,-5.3535,-5.2851,-5.209,0.0,0.0,0.0,0.0,0.0,0.0,0.0,0.0,0.0,0.0,0.0,0.0,0.0,0.0,0.0,0.0,0.0,0.0,0.0,0.0,0.0,0.0,0.0,0.0,0.0,0.0,0.0,-5.0996,-5.1523,-5.187,-5.179,-5.2718,-5.3026,-5.2879,-5.3196,-5.3904,-5.497,-5.4874,-5.5013,-5.5351,-5.3613,-5.2266,-5.0996,-4.8281,0.0,0.0,0.0,0.0,0.0,0.0,-3.9375,-4.0586,-4.1855,-4.2422,-4.3027,0.0,0.0,-4.9844,-5.2226,-5.4922,-5.7363,-5.8652,-5.9394,-5.9805,-5.9805,-5.8711,-5.7285,-5.5801,-5.3183,-5.0664,-4.9043,0.0,0.0,-5.2441,-5.5176,0.0,-6.0273,-6.0683,0.0,-5.918,0.0,-5.8379,-5.7617,-5.7441,0.0,0.0,-5.9297,-5.9473,-6.0098,-6.0625,-6.1015,-6.1211,-6.1426,-6.1484,-6.1367,-6.084,-6.0488,-6.0273,-5.9531,-5.918,-5.918,-5.8828,-5.8652,-5.8476,-5.7715,-5.7305,-5.7168,-5.664,-5.6035,-5.5449,-5.5234,-5.4687,-5.3965,-5.3535,-5.3223,-5.293,0.0,0.0,0.0,0.0,0.0,0.0,0.0,0.0,0.0,0.0,0.0,0.0,0.0,0.0,0.0,0.0,0.0,0.0,0.0,0.0,0.0,0.0,0.0,0.0,0.0,0.0,0.0,0.0,0.0,0.0,-4.8926,-4.959,-5.0234,-5.084,-5.1289,-5.1699,-5.2031,-5.1836,-5.1426,0.0,0.0,-4.791,-4.666,-4.4824,-4.3105,0.0,0.0,0.0,0.0,0.0,-4.1445,-4.2558,-4.4453,-4.5449,-4.6367,-4.8769,0.0,-5.3203,-5.5176,-5.7637,-5.9746,-6.0039,-6.039,-6.0273,-5.8535,-5.7207,-5.5508,-5.2461,-4.9844,-4.7637,-4.6094,-4.6777,-4.8301,0.0,0.0,0.0,-5.959,-6.0332,-6.0508,0.0,-5.998,0.0,-5.959,-5.9062,-5.918,0.0,-5.9648,-5.9531,-6.039,-6.0664,-6.1015,-6.1426,-6.1426,-6.1426,-6.1426,-6.0781,-6.0332,-6.0156,-5.9512,-5.918,-5.918,-5.8945,-5.8828,-5.8769,0.0,-5.75,-5.7441,-5.6836,-5.6191,-5.5566,-5.539,-5.4902,-5.4258,-5.3808,-5.3418,-5.3008,0.0,0.0,0.0,0.0,0.0,0.0,0.0,0.0,0.0,0.0,0.0,0.0,0.0,0.0,0.0,0.0,0.0,0.0,0.0,0.0,0.0,0.0,0.0,0.0,0.0,0.0,0.0,0.0,0.0,0.0,0.0,0.0,-4.584,-4.6582,-4.6992,-4.7617,-4.832,-4.7988,-4.7148,-4.5976,-4.4883,-4.3281,-4.1465,0.0,0.0,0.0,0.0,0.0,0.0,0.0,-4.4473,-4.5293,-4.748,-4.9121,-5.0644,-5.2832,-5.4668,-5.6348,-5.8027,-5.9941,-6.1367,-6.084,-6.0898,-6.0176,-5.6719,-5.5293,-5.3398,-4.875,-4.668,-4.5312,-4.4043,-4.4375,-4.5879,-4.9023,0.0,-5.4687,-5.8183,-5.9121,-6.0,-6.1543,-6.0801,-6.0625,-6.1777,-6.084,-6.0508,-6.1269,-6.0273,-5.9883,-6.0488,-6.0566,-6.0781,-6.1152,-6.1152,-6.1152,-6.1152,-6.0683,-6.0254,-5.9863,-5.9414,-5.918,-5.918,-5.918,-5.918,-5.9121,0.0,0.0,-5.7812,-5.6992,-5.6367,-5.5898,-5.5527,-5.5098,-5.4629,-5.4258,-5.3594,-5.2871,0.0,0.0,0.0,0.0,0.0,0.0,0.0,0.0,0.0,0.0,0.0,0.0,0.0,0.0,0.0,0.0,0.0,0.0,0.0,0.0,0.0,0.0,0.0,0.0,0.0,0.0,0.0,0.0,0.0,0.0,0.0,0.0,-4.1094,-4.125,-4.166,-4.1933,-4.2109,-4.2383,-4.2168,-4.1621,-4.1387,-4.0879,-4.0254,0.0,0.0,0.0,0.0,0.0,0.0,0.0,-4.6894,-4.7988,-5.0508,-5.2441,-5.4277,-5.6797,-5.8476,-5.9863,-6.1211,-6.2656,-6.3457,-6.2305,-6.1543,-6.0176,-5.6719,-5.3672,-5.0449,-4.6406,-4.3984,-4.2187,-4.0918,-4.2461,-4.5156,-4.8906,-5.1992,-5.5234,-5.9062,-6.0273,-6.0976,0.0,-6.1836,-6.2129,-6.2754,-6.2285,0.0,0.0,0.0,-6.1562,-6.1015,-6.1308,-6.1543,-6.1601,-6.1601,-6.1601,-6.1601,-6.084,-6.039,-6.0332,-5.9531,-5.918,-5.918,-5.918,-5.918,-5.918,0.0,0.0,-5.7812,-5.7324,-5.664,-5.5918,-5.5859,-5.5351,-5.4668,-5.459,-5.4238,-5.3691,0.0,0.0,0.0,0.0,0.0,0.0,0.0,0.0,0.0,0.0,0.0,0.0,0.0,0.0,0.0,0.0,0.0,0.0,0.0,0.0,0.0,0.0,0.0,0.0,0.0,0.0,0.0,0.0,0.0,0.0,0.0,0.0,0.0,0.0,0.0,0.0,0.0,-4.0742,-4.084,0.0,0.0,0.0,0.0,0.0,0.0,0.0,0.0,0.0,0.0,0.0,-4.7519,-5.0449,-5.373,-5.6094,-5.8066,-5.998,-6.1133,-6.2012,-6.3105,-6.414,-6.4609,-6.3105,-6.1543,-5.9238,-5.4629,-5.1094,-4.7558,-4.3242,-4.1328,-4.0254,-3.9648,-4.1641,-4.4277,-4.707,-4.9863,-5.3125,-5.7226,-5.8359,-5.959,-6.1777,-6.2246,-6.2812,-6.3906,-6.3223,-6.2988,0.0,0.0,-6.2187,-6.1777,-6.1719,-6.1719,-6.1719,-6.1719,-6.1719,-6.1719,-6.084,-6.043,-6.043,-5.959,-5.918,-5.918,-5.918,-5.918,-5.918,0.0,0.0,-5.7812,-5.7383,-5.6699,-5.5918,-5.5703,-5.5234,-5.4648,-5.4433,-5.4062,-5.3594,0.0,0.0,0.0,0.0,0.0,0.0,0.0,0.0,0.0,0.0,0.0,0.0,0.0,0.0,0.0,0.0,0.0,0.0,0.0,0.0,0.0,0.0,0.0,0.0,0.0,0.0,0.0,0.0,0.0,0.0,0.0,0.0,0.0,0.0,0.0,0.0,0.0,0.0,0.0,0.0,0.0,0.0,0.0,0.0,0.0,0.0,0.0,0.0,0.0,0.0,-4.7246,-5.1094,-5.4707,-5.7949,-6.0664,-6.1777,-6.2656,-6.3496,-6.4473,-6.5293,-6.543,-6.3613,-6.1426,-5.8242,-5.2695,-4.8965,-4.5391,-4.0937,-3.9668,-3.9375,-3.9473,-4.123,-4.334,-4.5351,-4.7617,-5.0605,-5.4922,-5.6211,-5.8027,-6.166,-6.2363,-6.3105,-6.4648,-6.3906,0.0,0.0,0.0,0.0,-6.2246,-6.1894,-6.1719,-6.1719,-6.1719,-6.1719,-6.1719,-6.0957,-6.0547,-6.043,-5.9687,-5.9297,-5.918,-5.918,-5.918,-5.918,0.0,0.0,0.0,-5.7539,-5.6894,-5.6172,-5.5742,-5.5312,-5.4902,-5.4473,-5.4023,-5.3574,0.0,0.0,0.0,0.0,0.0,0.0,0.0,0.0,0.0,0.0,0.0,0.0,0.0,0.0,0.0,0.0,0.0,0.0,0.0,0.0,0.0,0.0,0.0,0.0,0.0,0.0,0.0,0.0,0.0,0.0,0.0,0.0,0.0,0.0,0.0,0.0,0.0,0.0,0.0,0.0,0.0,0.0,0.0,0.0,0.0,0.0,0.0,0.0,0.0,-4.459,-4.6348,-4.7812,-5.0547,-5.5566,-6.0547,-6.1035,-6.2637,-6.4473,-6.5703,-6.6387,-6.623,-6.414,-6.1426,-5.7851,-5.2637,-4.8516,-4.4785,-4.1211,-4.0137,-3.9941,-4.0332,-4.0918,-4.2305,-4.5195,-4.6855,-4.9258,-5.3594,-5.5898,-5.8144,-6.0859,-6.2246,-6.334,-6.4258,-6.4258,0.0,0.0,0.0,0.0,0.0,-6.1719,-6.1719,-6.1719,-6.1719,-6.1719,-6.1719,-6.125,-6.084,-6.043,-5.998,-5.9531,-5.918,-5.918,-5.918,-5.918,0.0,0.0,0.0,-5.7969,-5.7519,-5.7051,-5.664,-5.6211,-5.5762,-5.5351,-5.4922,-5.4433,0.0,0.0,0.0,0.0,0.0,0.0,0.0,0.0,0.0,0.0,0.0,0.0,0.0,0.0,0.0,0.0,0.0,0.0,0.0,0.0,0.0,0.0,0.0,0.0,0.0,0.0,0.0,0.0,0.0,0.0,0.0,0.0,0.0,0.0,0.0,0.0,0.0,0.0,0.0,0.0,0.0,0.0,0.0,0.0,0.0,0.0,0.0,0.0,0.0,-4.2558,-4.4219,-4.582,-4.6074,-4.9707,-5.457,-5.8086,-6.0508,-6.2519,-6.5117,-6.6348,-6.6465,-6.4844,-6.1387,-5.7246,-5.2832,-4.8242,-4.4062,-4.1133,-4.0195,-3.9941,-4.0117,-4.0488,-4.125,-4.2734,-4.3398,-4.5039,-4.8848,-5.0762,-5.3516,-5.8203,-6.0156,-6.2129,0.0,0.0,0.0,0.0,0.0,0.0,0.0,-6.1836,-6.1719,-6.1719,-6.1719,-6.1601,-6.1328,-6.0898,-6.0488,-6.0039,-5.9629,-5.9355,-5.918,-5.918,-5.918,-5.918,0.0,0.0,0.0,-5.8359,-5.7851,-5.7168,-5.6758,-5.6308,-5.5859,-5.5176,-5.4824,-5.4551,0.0,0.0,0.0,0.0,0.0,0.0,0.0,0.0,0.0,0.0,0.0,0.0,0.0,0.0,0.0,0.0,0.0,0.0,0.0,0.0,0.0,0.0,0.0,0.0,0.0,0.0,0.0,0.0,0.0,0.0,0.0,0.0,0.0,0.0,0.0,0.0,0.0,0.0,0.0,0.0,0.0,0.0,0.0,0.0,0.0,0.0,0.0,0.0,0.0,0.0,0.0,-4.373,-4.2812,-4.4766,-4.8555,-5.4277,-5.7734,-6.039,-6.373,-6.5644,-6.6348,-6.5058,-6.1191,-5.666,-5.2773,-4.8008,-4.3691,-4.123,-4.0488,-4.0273,-4.0273,-4.0527,-4.082,-4.1133,-4.1387,-4.2695,-4.6016,-4.7598,-5.0371,-5.5644,0.0,-5.9863,0.0,0.0,0.0,0.0,0.0,0.0,0.0,-6.1894,-6.1719,-6.1719,-6.1601,-6.1367,-6.1094,-6.0664,-6.0215,-5.9805,-5.9512,-5.9297,-5.918,-5.918,-5.918,-5.918,0.0,0.0,0.0,-5.8594,-5.8086,-5.7363,-5.6933,-5.6504,-5.6035,-5.5312,-5.498,-5.4765,0.0,0.0,0.0,0.0,0.0,0.0,0.0,0.0,0.0,0.0,0.0,0.0,0.0,0.0,0.0,0.0,0.0,0.0,0.0,0.0,0.0,0.0,0.0,0.0,0.0,0.0,0.0,0.0,0.0,0.0,0.0,0.0,0.0,0.0,0.0,0.0,0.0,0.0,0.0,0.0,0.0,0.0,0.0,0.0,0.0,0.0,0.0,0.0,0.0,0.0,0.0,0.0,0.0,-4.1797,-4.3691,-4.9726,-5.4531,-5.8555,-6.1562,-6.4258,-6.5918,-6.4648,-6.0742,-5.6211,-5.2324,-4.7793,-4.3789,-4.1621,-4.1172,-4.1172,-4.1172,-4.1172,-4.1172,-4.1172,-4.1875,-4.3476,-4.6504,-4.8066,-5.0176,-5.3652,-5.4824,-5.6387,-5.9004,0.0,0.0,0.0,0.0,0.0,0.0,-6.1719,-6.1719,-6.1719,-6.1308,-6.1094,-6.1094,-6.0664,-6.0215,-5.9805,-5.9805,-5.959,-5.918,-5.918,-5.918,0.0,0.0,0.0,0.0,-5.8711,-5.8262,-5.7812,-5.7383,-5.6953,-5.6523,-5.6074,-5.5664,-5.5234,0.0,0.0,0.0,0.0,0.0,0.0,0.0,0.0,0.0,0.0,0.0,0.0,0.0,0.0,0.0,0.0,0.0,0.0,0.0,0.0,0.0,0.0,0.0,0.0,0.0,0.0,0.0,0.0,0.0,0.0,0.0,0.0,0.0,0.0,0.0,0.0,0.0,0.0,0.0,0.0,0.0,0.0,0.0,0.0,0.0,0.0,0.0,0.0,0.0,0.0,0.0,0.0,0.0,0.0,0.0,-4.4902,-4.9199,-5.3574,-5.6015,-5.791,-5.8945,-5.7969,-5.5039,-5.1777,-4.9355,-4.6269,-4.3398,-4.1562,-4.1172,-4.1172,-4.1172,-4.1172,-4.1465,-4.2344,-4.2695,-4.3418,-4.498,-4.7578,-5.0508,-5.3652,-5.8691,-6.2226,0.0,0.0,0.0,0.0,0.0,0.0,0.0,-6.1894,-6.1601,-6.1308,-6.1152,-6.0801,-6.0215,-6.0098,-5.9805,-5.9355,-5.9355,-5.9297,-5.918,-5.918,0.0,0.0,0.0,0.0,0.0,-5.8711,-5.8262,-5.7812,-5.7383,-5.6953,-5.6523,-5.6094,-5.584,-5.5625,0.0,0.0,0.0,0.0,0.0,0.0,0.0,0.0,0.0,0.0,0.0,0.0,0.0,0.0,0.0,0.0,0.0,0.0,0.0,0.0,0.0,0.0,0.0,0.0,0.0,0.0,0.0,0.0,0.0,0.0,0.0,0.0,0.0,0.0,0.0,0.0,0.0,0.0,0.0,0.0,0.0,0.0,-4.1172,0.0,0.0,0.0,0.0,0.0,0.0,0.0,0.0,0.0,0.0,0.0,0.0,0.0,-4.5117,-4.8535,-5.1523,-5.375,-5.5058,-5.4355,-5.2051,-4.9473,-4.7734,-4.5195,-4.2832,-4.1465,-4.1172,-4.1172,-4.1172,-4.1172,-4.1426,-4.2226,-4.2363,-4.2891,-4.4414,-4.7031,0.0,-5.4062,0.0,0.0,0.0,0.0,0.0,0.0,0.0,0.0,0.0,0.0,-6.1426,-6.0859,-6.084,-6.0566,-6.0039,-5.9746,-5.9453,-5.918,-5.918,-5.918,-5.918,-5.918,0.0,0.0,0.0,0.0,0.0,-5.8652,-5.8183,-5.7598,-5.7324,-5.6953,-5.6543,-5.6269,-5.5976,-5.5625,0.0,0.0,0.0,0.0,0.0,0.0,0.0,0.0,0.0,0.0,0.0,0.0,0.0,0.0,0.0,0.0,0.0,0.0,0.0,0.0,0.0,0.0,0.0,0.0,0.0,0.0,0.0,0.0,0.0,0.0,0.0,0.0,0.0,0.0,0.0,0.0,0.0,0.0,0.0,0.0,0.0,0.0,0.0,0.0,0.0,0.0,0.0,0.0,0.0,0.0,0.0,0.0,0.0,0.0,0.0,0.0,0.0,0.0,0.0,-5.1055,-5.3144,-5.2695,-5.0762,-4.8555,-4.6933,-4.4394,0.0,-4.1348,0.0,-4.1172,-4.1172,-4.1172,-4.1211,-4.1289,-4.1328,-4.2226,-4.4726,-4.6836,0.0,0.0,-5.7969,0.0,0.0,0.0,0.0,0.0,0.0,0.0,0.0,0.0,-6.1308,-6.0508,-6.043,-6.0371,-6.0332,-5.957,-5.918,-5.918,-5.918,-5.918,-5.918,-5.918,0.0,0.0,0.0,0.0,0.0,-5.8476,-5.7949,-5.7207,-5.7187,-5.6933,-5.6582,-5.6543,-5.6035,-5.5332,0.0,0.0,0.0,0.0,0.0,0.0,0.0,0.0,0.0,0.0,0.0,0.0,0.0,0.0,0.0,0.0,0.0,0.0,0.0,0.0,0.0,0.0,0.0,0.0,0.0,0.0,0.0,0.0,0.0,0.0,0.0,0.0,0.0,0.0,0.0,0.0,0.0,0.0,0.0,0.0,0.0,0.0,0.0,0.0,0.0,0.0,-4.1172,-4.1172,0.0,0.0,0.0,0.0,0.0,0.0,0.0,0.0,-4.1465,0.0,0.0,0.0,-4.5547,-4.5098,-4.4297,-4.3516,0.0,-4.2461,-4.1797,0.0,0.0,0.0,0.0,-4.1172,-4.1484,-4.248,-4.2891,-4.3672,-4.5293,-5.0117,0.0,0.0,0.0,0.0,0.0,0.0,0.0,0.0,0.0,0.0,0.0,0.0,-6.1152,-6.0957,-6.0273,-5.9805,-5.9473,-5.9297,-5.918,-5.918,-5.918,-5.918,-5.918,-5.918,0.0,0.0,0.0,0.0,0.0,-5.7793,-5.7402,-5.7187,-5.6855,-5.668,-5.6543,-5.6211,-5.5957,-5.5703,0.0,0.0,0.0,0.0,0.0,0.0,0.0,0.0,0.0,0.0,0.0,0.0,0.0,0.0,0.0,0.0,0.0,0.0,0.0,0.0,0.0,0.0,0.0,0.0,0.0,0.0,0.0,0.0,0.0,0.0,0.0,0.0,0.0,0.0,0.0,0.0,0.0,0.0,0.0,0.0,0.0,0.0,0.0,0.0,0.0,0.0,-4.1172,-4.1172,0.0,-4.1172,-4.1172,-4.1172,0.0,0.0,0.0,0.0,-4.1172,0.0,-4.1172,-4.1816,-4.2441,-4.2187,-4.1973,-4.1797,-4.1797,-4.166,-4.1445,0.0,0.0,0.0,0.0,0.0,-4.1465,-4.2344,-4.3008,-4.457,0.0,0.0,-5.6445,0.0,0.0,0.0,0.0,0.0,0.0,0.0,0.0,0.0,0.0,0.0,-6.0918,-6.0508,-6.0039,-5.9707,-5.9473,-5.9297,-5.918,-5.918,-5.918,-5.918,-5.918,-5.918,0.0,0.0,0.0,0.0,-5.789,-5.7402,-5.709,-5.6894,-5.668,-5.6465,-5.625,-5.6015,-5.5683,-5.5293,0.0,0.0,0.0,0.0,0.0,0.0,0.0,0.0,0.0,0.0,0.0,0.0,0.0,0.0,0.0,0.0,0.0,0.0,0.0,0.0,0.0,0.0,0.0,0.0,0.0,0.0,0.0,0.0,0.0,0.0,0.0,0.0,0.0,0.0,0.0,0.0,0.0,0.0,0.0,0.0,0.0,0.0,0.0,0.0,0.0,0.0,0.0,0.0,0.0,-4.1172,-4.1172,-4.1172,-4.1172,0.0,0.0,0.0,0.0,0.0,-4.1406,-4.1719,-4.1953,-4.1758,-4.1699,-4.1699,-4.1699,-4.1426,-4.1172,-4.1172,0.0,0.0,0.0,-4.1328,0.0,-4.1933,-4.3105,0.0,-5.1269,-5.3848,-5.6601,0.0,0.0,0.0,0.0,0.0,0.0,0.0,0.0,0.0,0.0,0.0,0.0,-5.9824,-5.9746,-5.9707,-5.9707,-5.9355,-5.918,-5.918,-5.918,-5.9121,-5.9062,-5.9062,0.0,0.0,0.0,0.0,-5.7207,-5.7148,-5.6875,-5.6484,-5.6484,-5.6211,-5.584,-5.5762,-5.5293,-5.4668,0.0,0.0,0.0,0.0,0.0,0.0,0.0,0.0,0.0,0.0,0.0,0.0,0.0,0.0,0.0,0.0,0.0,0.0,0.0,0.0,0.0,0.0,0.0,0.0,0.0,0.0,0.0,0.0,0.0,0.0,0.0,0.0,0.0,0.0,0.0,0.0,0.0,0.0,0.0,0.0,0.0,0.0,0.0,0.0,0.0,0.0,0.0,0.0,0.0,-4.1172,-4.1172,-4.1172,-4.1172,0.0,0.0,0.0,0.0,0.0,-4.25,-4.2832,-4.2617,-4.1543,-4.1269,-4.1269,-4.1269,-4.1211,-4.1172,-4.1172,0.0,0.0,0.0,-4.2051,-4.2812,0.0,0.0,0.0,0.0,0.0,0.0,0.0,0.0,0.0,0.0,0.0,0.0,0.0,0.0,0.0,0.0,0.0,0.0,-5.9805,-5.9473,-5.9297,-5.9297,-5.9238,-5.918,-5.918,-5.918,-5.9004,-5.8652,-5.8652,-5.8379,0.0,0.0,0.0,-5.7187,-5.6836,-5.6426,-5.6035,-5.6035,-5.5781,-5.5351,-5.5,-5.4785,-5.4629,0.0,0.0,0.0,0.0,0.0,0.0,0.0,0.0,0.0,0.0,0.0,0.0,0.0,0.0,0.0,0.0,0.0,0.0,0.0,0.0,0.0,0.0,0.0,0.0,0.0,0.0,0.0,0.0,0.0,0.0,0.0,0.0,0.0,0.0,0.0,0.0,0.0,0.0,0.0,0.0,0.0,0.0,0.0,0.0,0.0,0.0,0.0,0.0,0.0,0.0,-4.1172,-4.1172,-4.1172,0.0,0.0,0.0,0.0,0.0,-4.1894,-4.2051,-4.207,-4.2168,-4.2363,-4.2305,-4.1387,-4.1348,-4.1504,0.0,0.0,0.0,0.0,0.0,-4.4961,0.0,0.0,0.0,0.0,0.0,0.0,0.0,0.0,0.0,0.0,0.0,0.0,0.0,0.0,0.0,0.0,0.0,0.0,0.0,-5.9297,-5.918,-5.918,-5.918,-5.918,-5.918,-5.8945,-5.8711,-5.8535,-5.8262,-5.791,0.0,0.0,-5.709,-5.6836,-5.6406,-5.6113,-5.5918,-5.5683,-5.5332,-5.4922,-5.4492,-5.4336,-5.4297,0.0,0.0,0.0,0.0,0.0,0.0,0.0,0.0,0.0,0.0,0.0,0.0,0.0,0.0,0.0,0.0,0.0,0.0,0.0,0.0,0.0,0.0,0.0,0.0,0.0,0.0,0.0,0.0,0.0,0.0,0.0,0.0,0.0,0.0,0.0,0.0,0.0,0.0,0.0,0.0,0.0,0.0,0.0,0.0,0.0,0.0,0.0,0.0,0.0,0.0,0.0,0.0,0.0,0.0,0.0,0.0,-4.1172,-4.123,-4.1543,-4.1621,-4.1855,-4.2832,-4.3105,-4.2949,-4.2363,0.0,0.0,0.0,0.0,0.0,0.0,-4.5058,0.0,0.0,0.0,0.0,0.0,0.0,0.0,0.0,0.0,0.0,0.0,0.0,0.0,0.0,0.0,0.0,0.0,0.0,0.0,0.0,-5.9023,-5.9004,-5.8887,-5.8887,-5.8945,-5.9004,-5.8711,-5.8418,-5.8203,-5.7851,-5.748,-5.7051,-5.6953,-5.6719,-5.6406,-5.5976,-5.5723,-5.5605,-5.5293,-5.4961,-5.4648,-5.4316,-5.418,-5.418,0.0,0.0,0.0,0.0,0.0,0.0,0.0,0.0,0.0,0.0,0.0,0.0,0.0,0.0,0.0,0.0,0.0,0.0,0.0,0.0,0.0,0.0,0.0,0.0,0.0,0.0,0.0,0.0,0.0,0.0,-4.666,-4.498,-4.375,0.0,0.0,0.0,0.0,0.0,0.0,0.0,0.0,0.0,0.0,0.0,0.0,0.0,0.0,0.0,0.0,0.0,0.0,0.0,0.0,0.0,0.0,0.0,-4.1172,-4.1426,-4.2617,-4.293,-4.2969,-4.3047,-4.2207,0.0,-4.4746,-4.4766,0.0,-4.5742,0.0,0.0,0.0,0.0,0.0,0.0,0.0,0.0,0.0,0.0,0.0,0.0,0.0,0.0,0.0,0.0,0.0,0.0,0.0,0.0,0.0,0.0,0.0,0.0,0.0,-5.8379,-5.7969,-5.7969,-5.8144,-5.8594,-5.8535,-5.8125,-5.7305,-5.7265,-5.7031,-5.6601,-5.6211,-5.6015,-5.5957,-5.5527,-5.5117,-5.4765,-5.4746,-5.4707,-5.4668,-5.4648,-5.4629,-5.4629,0.0,0.0,0.0,0.0,0.0,0.0,0.0,0.0,0.0,0.0,0.0,0.0,0.0,0.0,0.0,0.0,0.0,0.0,0.0,0.0,0.0,0.0,0.0,0.0,0.0,0.0,0.0,-4.3223,-4.5156,-4.6133,-4.6133,-4.4941,0.0,0.0,0.0,0.0,0.0,0.0,0.0,0.0,0.0,0.0,0.0,0.0,0.0,0.0,0.0,0.0,0.0,0.0,-4.1172,0.0,0.0,0.0,0.0,0.0,-4.1172,-4.1269,-4.1758,-4.248,-4.3144,-4.3398,-4.3516,0.0,0.0,-4.6035,-4.668,0.0,0.0,0.0,0.0,0.0,0.0,0.0,0.0,0.0,0.0,0.0,0.0,0.0,0.0,0.0,0.0,0.0,0.0,0.0,0.0,0.0,0.0,0.0,0.0,0.0,0.0,-5.8027,-5.7871,-5.7871,-5.7793,-5.7715,-5.7441,-5.7285,-5.7187,-5.6387,-5.6094,-5.6172,-5.6015,-5.5781,-5.5527,-5.5371,-5.5058,-5.4648,-5.4394,-5.4277,-5.4277,-5.4277,-5.4277,-5.4277,0.0,0.0,0.0,0.0,0.0,0.0,0.0,0.0,0.0,0.0,0.0,0.0,0.0,0.0,0.0,0.0,0.0,0.0,0.0,0.0,0.0,0.0,0.0,-3.9043,-4.0078,-4.1191,-4.248,-4.3926,-4.666,-4.7324,-4.6055,0.0,0.0,0.0,0.0,0.0,0.0,0.0,0.0,0.0,0.0,0.0,0.0,0.0,0.0,0.0,0.0,0.0,0.0,0.0,0.0,0.0,0.0,0.0,0.0,0.0,0.0,-4.1172,-4.1172,-4.1816,-4.2617,-4.3164,-4.416,0.0,-4.7109,-4.8164,-4.9238,-5.0801,0.0,0.0,0.0,0.0,0.0,0.0,0.0,0.0,0.0,0.0,0.0,0.0,0.0,0.0,0.0,0.0,0.0,0.0,0.0,0.0,0.0,0.0,0.0,0.0,0.0,0.0,-5.7461,-5.7324,-5.7109,-5.6797,-5.625,-5.6269,-5.6777,-5.5898,-5.5586,-5.5723,-5.5605,-5.5371,-5.5098,-5.4961,-5.4746,-5.4453,-5.4141,-5.4121,-5.4238,-5.4238,-5.4238,-5.4219,0.0,0.0,0.0,0.0,0.0,0.0,0.0,0.0,0.0,0.0,0.0,0.0,0.0,0.0,0.0,0.0,0.0,0.0,0.0,0.0,0.0,0.0,0.0,-3.918,-4.0469,-4.2187,-4.3496,-4.4414,-4.7383,-4.8164,-4.6855,0.0,0.0,0.0,0.0,0.0,0.0,0.0,0.0,0.0,0.0,0.0,0.0,0.0,0.0,0.0,0.0,0.0,0.0,0.0,0.0,0.0,0.0,0.0,0.0,0.0,-4.1172,-4.1172,-4.1172,-4.1191,-4.1387,-4.2226,-4.3769,0.0,-5.0469,-5.1445,-5.2305,-5.5332,0.0,0.0,0.0,0.0,0.0,0.0,0.0,0.0,0.0,0.0,0.0,0.0,0.0,0.0,0.0,0.0,0.0,0.0,0.0,0.0,0.0,0.0,0.0,0.0,0.0,0.0,-5.6582,-5.6152,-5.5937,-5.5918,-5.5078,-5.5117,-5.5918,-5.5918,-5.5683,-5.5273,-5.4863,-5.4668,-5.4629,-5.4199,-5.4023,-5.4023,-5.4023,-5.4297,-5.4668,-5.4668,-5.4668,-5.4609,0.0,0.0,0.0,0.0,0.0,0.0,0.0,0.0,0.0,0.0,0.0,0.0,0.0,0.0,0.0,0.0,0.0,0.0,0.0,0.0,0.0,0.0,0.0,0.0,0.0,0.0,-4.291,-4.5293,-4.6777,-4.6367,0.0,0.0,0.0,-4.168,0.0,0.0,0.0,0.0,0.0,0.0,0.0,0.0,0.0,0.0,0.0,0.0,0.0,0.0,0.0,0.0,0.0,0.0,0.0,0.0,0.0,-4.125,-4.1387,-4.1543,-4.125,-4.1836,0.0,-4.3594,0.0,0.0,0.0,-5.2793,0.0,0.0,0.0,0.0,0.0,0.0,0.0,0.0,0.0,0.0,0.0,0.0,0.0,0.0,0.0,0.0,0.0,0.0,0.0,0.0,0.0,0.0,0.0,0.0,0.0,0.0,0.0,0.0,-5.6133,-5.5996,-5.5781,-5.5488,-5.5234,-5.5254,-5.5469,-5.4863,-5.4687,-5.4863,-5.4726,-5.4316,-5.375,-5.3613,-5.375,-5.4023,-5.4023,-5.4101,-5.4219,-5.4219,-5.4023,-5.373,0.0,0.0,0.0,0.0,0.0,0.0,0.0,0.0,0.0,0.0,0.0,0.0,0.0,0.0,0.0,0.0,0.0,0.0,0.0,0.0,0.0,0.0,0.0,0.0,0.0,-4.0879,-4.2402,0.0,0.0,0.0,0.0,0.0,0.0,-4.2617,0.0,0.0,0.0,0.0,0.0,0.0,0.0,0.0,0.0,0.0,0.0,0.0,0.0,0.0,0.0,0.0,0.0,0.0,0.0,0.0,0.0,-4.125,-4.1348,-4.1504,-4.125,0.0,0.0,-4.5019,-4.7617,0.0,0.0,0.0,0.0,0.0,0.0,0.0,0.0,0.0,0.0,0.0,0.0,0.0,0.0,0.0,0.0,0.0,0.0,0.0,0.0,0.0,0.0,0.0,0.0,0.0,0.0,0.0,0.0,0.0,0.0,0.0,-5.5683,-5.5527,-5.5312,-5.5058,-5.4883,-5.4805,-5.4785,-5.4453,-5.4238,-5.4141,-5.3984,-5.3691,-5.334,-5.3164,-5.3262,-5.3516,-5.3516,-5.3516,-5.3516,-5.3516,-5.334,-5.3086,0.0,0.0,0.0,0.0,0.0,0.0,0.0,0.0,0.0,0.0,0.0,0.0,0.0,0.0,0.0,0.0,0.0,0.0,0.0,0.0,0.0,0.0,0.0,0.0,0.0,0.0,0.0,0.0,0.0,0.0,0.0,0.0,-4.5195,-4.5547,0.0,-4.668,0.0,0.0,0.0,0.0,0.0,0.0,0.0,0.0,0.0,0.0,0.0,0.0,0.0,0.0,0.0,0.0,0.0,-4.1211,-4.123,-4.1191,-4.1211,-4.125,-4.1328,0.0,0.0,0.0,0.0,0.0,0.0,0.0,0.0,0.0,0.0,0.0,0.0,0.0,0.0,0.0,0.0,0.0,0.0,0.0,0.0,0.0,0.0,0.0,0.0,0.0,0.0,0.0,0.0,0.0,0.0,0.0,0.0,0.0,0.0,0.0,-5.5195,-5.4805,-5.4609,0.0,-5.416,-5.3984,-5.4043,-5.4394,-5.4101,-5.3281,-5.2851,-5.2891,-5.3262,-5.2832,-5.2676,-5.2715,-5.2715,-5.2715,-5.2715,-5.2715,-5.2695,-5.2598,0.0,0.0,0.0,0.0,0.0,0.0,0.0,0.0,0.0,0.0,0.0,0.0,0.0,0.0,0.0,0.0,0.0,0.0,0.0,0.0,0.0,0.0,0.0,0.0,0.0,0.0,0.0,0.0,0.0,0.0,0.0,0.0,0.0,-4.418,0.0,-4.5176,0.0,0.0,0.0,0.0,0.0,0.0,0.0,0.0,0.0,0.0,0.0,0.0,0.0,0.0,0.0,0.0,-4.1074,-4.1406,-4.1601,-4.1269,-4.1406,-4.1816,0.0,-4.3379,0.0,0.0,0.0,0.0,0.0,0.0,0.0,0.0,0.0,0.0,0.0,0.0,0.0,0.0,0.0,0.0,0.0,0.0,0.0,0.0,0.0,0.0,0.0,0.0,0.0,0.0,0.0,0.0,0.0,0.0,0.0,0.0,0.0,-5.5078,-5.4316,-5.4219,-5.3984,0.0,-5.3555,-5.3691,-5.4023,-5.3769,-5.3359,-5.2832,-5.2402,-5.2461,-5.2812,-5.2383,-5.2422,-5.2715,-5.2715,-5.2715,-5.2715,-5.2715,-5.25,-5.2207,0.0,0.0,0.0,0.0,0.0,0.0,0.0,0.0,0.0,0.0,0.0,0.0,0.0,0.0,0.0,0.0,0.0,0.0,0.0,0.0,0.0,0.0,0.0,0.0,0.0,0.0,0.0,0.0,0.0,0.0,0.0,0.0,0.0,-4.4707,0.0,-4.582,0.0,0.0,0.0,0.0,0.0,0.0,0.0,0.0,0.0,0.0,0.0,0.0,0.0,0.0,0.0,0.0,0.0,0.0,-4.1465,-4.123,-4.1328,0.0,0.0,0.0,0.0,-5.1973,0.0,0.0,0.0,0.0,0.0,0.0,0.0,0.0,0.0,0.0,0.0,0.0,0.0,0.0,0.0,0.0,0.0,0.0,0.0,0.0,0.0,0.0,0.0,0.0,0.0,0.0,0.0,0.0,0.0,0.0,-5.4922,-5.4375,-5.3711,-5.3496,-5.3281,-5.3047,-5.3047,-5.3066,-5.3105,-5.3066,-5.293,-5.2676,-5.2051,-5.2012,-5.2383,-5.1953,-5.1894,-5.209,-5.209,-5.209,-5.209,-5.209,-5.2697,-5.36,0.0,0.0,0.0,0.0,0.0,0.0,0.0,0.0,0.0,0.0,0.0,0.0,0.0,0.0,0.0,0.0,0.0,0.0,0.0,0.0,0.0,0.0,0.0,0.0,0.0,0.0,0.0,0.0,0.0,0.0,0.0,0.0,0.0,-4.584,0.0,0.0,0.0,0.0,0.0,0.0,0.0,0.0,0.0,0.0,0.0,0.0,0.0,0.0,0.0,0.0,0.0,0.0,0.0,0.0,-4.1172,-4.1172,0.0,0.0,0.0,0.0,-4.9219,-5.5019,-5.8418,0.0,-6.0859,-6.125,0.0,0.0,0.0,0.0,0.0,0.0,0.0,0.0,0.0,0.0,0.0,0.0,0.0,0.0,0.0,0.0,0.0,0.0,0.0,0.0,0.0,0.0,0.0,0.0,-5.4902,-5.4473,-5.4023,-5.3594,-5.3144,-5.2793,-5.2598,-5.2598,-5.2676,-5.248,-5.209,-5.2441,-5.2558,-5.2441,-5.1738,-5.1641,-5.1933,-5.1582,-5.1426,-5.1426,-5.1426,-5.1387,-5.1328,-5.1328,-5.2731,-5.4821,0.0,0.0,0.0,0.0,0.0,0.0,0.0,0.0,0.0,0.0,0.0,0.0,0.0,0.0,0.0,0.0,0.0,0.0,0.0,0.0,0.0,0.0,0.0,0.0,0.0,0.0,0.0,0.0,0.0,0.0,0.0,0.0,0.0,0.0,0.0,0.0,0.0,0.0,0.0,0.0,0.0,0.0,0.0,0.0,0.0,0.0,0.0,0.0,0.0,0.0,0.0,0.0,0.0,0.0,0.0,0.0,0.0,0.0,0.0,0.0,-5.2129,0.0,-5.7969,-5.998,0.0,0.0,0.0,0.0,0.0,0.0,0.0,0.0,0.0,0.0,0.0,0.0,0.0,0.0,0.0,0.0,0.0,0.0,0.0,0.0,0.0,0.0,0.0,0.0,0.0,-5.4414,-5.4004,-5.3555,-5.3105,-5.2676,-5.2266,-5.2187,-5.2168,-5.2168,-5.2539,-5.248,-5.209,-5.2148,-5.1953,-5.1601,-5.1484,-5.1465,-5.1523,-5.1465,-5.1426,-5.1426,-5.1426,-5.1211,-5.0898,-5.0898,-5.2087,-5.3713,0.0,0.0,0.0,0.0,0.0,0.0,0.0,0.0,0.0,0.0,0.0,0.0,0.0,0.0,0.0,0.0,0.0,0.0,0.0,0.0,0.0,0.0,0.0,0.0,0.0,0.0,0.0,0.0,0.0,0.0,0.0,-4.4141,-4.543,0.0,0.0,0.0,0.0,0.0,0.0,0.0,0.0,0.0,0.0,0.0,0.0,0.0,0.0,0.0,0.0,0.0,0.0,0.0,0.0,0.0,0.0,0.0,0.0,0.0,-4.4141,-4.7891,-5.1875,0.0,-5.7519,-5.9004,-6.0156,0.0,0.0,0.0,0.0,0.0,0.0,0.0,0.0,0.0,0.0,0.0,0.0,0.0,0.0,0.0,0.0,0.0,0.0,0.0,0.0,0.0,0.0,0.0,-5.4004,-5.375,-5.3457,-5.3008,-5.2578,0.0,-5.1719,-5.1484,-5.1367,-5.1367,-5.1797,-5.1777,-5.1367,-5.1367,-5.1387,-5.1426,-5.1426,-5.1426,-5.1426,-5.1426,-5.1426,-5.1426,-5.1426,-5.1904,-5.2796,-5.2796,-5.4847,-5.7624,0.0,0.0,0.0,0.0,0.0,0.0,0.0,0.0,0.0,0.0,0.0,0.0,0.0,0.0,0.0,0.0,0.0,0.0,0.0,0.0,0.0,0.0,0.0,0.0,0.0,0.0,0.0,0.0,0.0,0.0,-4.3437,-4.4629,-4.623,0.0,-4.5586,0.0,0.0,0.0,0.0,0.0,0.0,0.0,0.0,0.0,0.0,0.0,0.0,0.0,0.0,0.0,0.0,0.0,0.0,0.0,0.0,0.0,0.0,0.0,0.0,0.0,-5.0254,-5.4023,-5.6015,-5.75,0.0,0.0,0.0,0.0,0.0,0.0,0.0,0.0,0.0,0.0,0.0,0.0,0.0,0.0,0.0,0.0,0.0,0.0,0.0,0.0,0.0,0.0,0.0,0.0,-5.3262,-5.3203,-5.2949,-5.2402,-5.1973,-5.1601,-5.1269,-5.0859,-5.0644,-5.0644,-5.0957,-5.1322,-5.1539,-5.1539,-5.2138,-5.3113,-5.2367,-5.183,-5.1269,-5.268,-5.2832,-5.2175,-5.2731,-5.3861,-5.4783,-5.4783,-5.7179,-6.0424,0.0,0.0,0.0,0.0,0.0,0.0,0.0,0.0,0.0,0.0,0.0,0.0,0.0,0.0,0.0,0.0,0.0,0.0,0.0,0.0,0.0,0.0,0.0,0.0,0.0,0.0,0.0,0.0,0.0,0.0,-4.4355,-4.5234,-4.7637,-5.1074,-4.8086,-4.6328,-4.5488,0.0,0.0,0.0,0.0,0.0,0.0,0.0,0.0,0.0,0.0,0.0,0.0,0.0,0.0,0.0,0.0,0.0,0.0,0.0,0.0,0.0,0.0,-4.4824,0.0,-4.9941,-5.2695,-5.5293,0.0,0.0,0.0,0.0,0.0,0.0,0.0,0.0,0.0,0.0,0.0,0.0,0.0,0.0,0.0,0.0,0.0,0.0,0.0,0.0,0.0,0.0,0.0,0.0,-5.2812,-5.2754,-5.2363,-5.1523,-5.1094,-5.0859,-5.084,-5.043,-5.0215,-5.0215,-5.0234,-5.1289,-5.3403,-5.3403,-5.4924,-5.7575,-5.5372,-5.3025,-5.1243,-5.6236,-5.6707,-5.4464,-5.6662,-5.7155,-5.6332,-5.6332,-5.7572,-5.9378,0.0,0.0,0.0,0.0,0.0,0.0,0.0,0.0,0.0,0.0,0.0,0.0,0.0,0.0,0.0,0.0,0.0,0.0,0.0,0.0,0.0,0.0,0.0,0.0,0.0,0.0,0.0,0.0,0.0,-4.0586,-4.2773,-4.4473,-4.6289,-4.8086,-4.6738,-4.6562,-4.707,-4.3398,0.0,0.0,0.0,0.0,0.0,0.0,0.0,0.0,0.0,0.0,0.0,0.0,0.0,0.0,0.0,0.0,0.0,0.0,0.0,0.0,0.0,0.0,0.0,-4.8164,-5.0156,-5.1973,-5.4219,-5.5723,0.0,0.0,0.0,0.0,0.0,0.0,0.0,0.0,0.0,0.0,0.0,0.0,0.0,0.0,0.0,0.0,0.0,0.0,0.0,0.0,0.0,0.0,-5.2383,-5.2305,-5.1914,-5.1055,-5.0879,-5.0547,-5.0,-4.9844,-4.9766,-4.9766,-5.0039,-5.1276,-5.3289,-5.3289,-5.4474,-5.6685,-5.7707,-5.7289,-5.6007,-5.8012,-5.8152,-5.7261,-5.818,-5.9044,-5.9844,-5.9844,-6.0954,-6.2633,0.0,0.0,0.0,0.0,0.0,0.0,0.0,0.0,0.0,0.0,0.0,0.0,0.0,0.0,0.0,0.0,0.0,0.0,0.0,0.0,0.0,0.0,0.0,0.0,0.0,0.0,0.0,0.0,0.0,0.0,0.0,-4.3769,-4.5508,-4.7109,-4.582,-4.6426,0.0,0.0,0.0,-4.3613,0.0,0.0,-4.2246,0.0,0.0,0.0,0.0,0.0,0.0,0.0,0.0,0.0,0.0,0.0,0.0,0.0,0.0,0.0,-4.1328,0.0,0.0,0.0,-4.7578,-4.8672,-5.1973,0.0,0.0,0.0,0.0,0.0,0.0,0.0,0.0,0.0,0.0,0.0,0.0,0.0,0.0,0.0,0.0,0.0,0.0,0.0,0.0,0.0,0.0,0.0,-5.2129,-5.1953,-5.1406,-5.041,-5.0371,-5.0039,-4.9316,-4.9297,-4.9297,-4.9316,-5.0504,-5.2066,-5.4045,-5.4737,-5.6435,-5.8594,-6.0507,-6.019,-5.8074,-6.0055,-6.021,-5.9334,-6.0233,-6.1438,-6.2248,-6.2417,-6.335,-6.4454,0.0,0.0,0.0,0.0,0.0,0.0,0.0,0.0,0.0,0.0,0.0,0.0,0.0,0.0,0.0,0.0,0.0,0.0,0.0,0.0,0.0,0.0,0.0,0.0,0.0,0.0,0.0,0.0,0.0,0.0,0.0,0.0,-4.543,0.0,-4.5703,-4.6055,-4.8691,0.0,-4.6973,-4.6094,0.0,-4.3105,-4.3301,0.0,0.0,0.0,-4.4746,-4.3965,0.0,0.0,0.0,0.0,0.0,0.0,0.0,0.0,0.0,0.0,0.0,0.0,0.0,0.0,0.0,0.0,-5.0156,0.0,0.0,0.0,0.0,0.0,0.0,0.0,0.0,0.0,0.0,0.0,0.0,0.0,0.0,0.0,0.0,0.0,0.0,0.0,0.0,0.0,0.0,-5.2519,-5.209,-5.1641,-5.082,-4.957,-4.9512,-4.9297,-4.8867,-4.8867,-4.8848,-4.9032,-5.1326,-5.3593,-5.603,-5.8266,-6.0844,-6.3676,-6.3676,-6.1014,-5.7146,-6.2276,-6.2735,-6.0381,-6.339,-6.4203,-6.3827,-6.4329,-6.4505,-6.4505,0.0,0.0,0.0,0.0,0.0,0.0,0.0,0.0,0.0,0.0,0.0,0.0,0.0,0.0,0.0,0.0,0.0,0.0,0.0,0.0,0.0,0.0,0.0,0.0,0.0,0.0,0.0,0.0,0.0,0.0,0.0,0.0,0.0,0.0,-4.5137,-4.5781,-4.6406,-4.3965,0.0,0.0,-4.3476,-4.373,0.0,0.0,0.0,0.0,0.0,-4.5371,0.0,0.0,-4.4121,-4.3281,0.0,0.0,0.0,0.0,0.0,0.0,-4.0644,0.0,0.0,0.0,0.0,0.0,0.0,0.0,0.0,0.0,0.0,0.0,0.0,0.0,0.0,0.0,0.0,0.0,0.0,0.0,0.0,0.0,0.0,0.0,0.0,0.0,0.0,0.0,-5.2324,-5.207,-5.1641,-5.0918,-5.0215,-4.9551,-4.9219,-4.8984,-4.8867,-4.8867,-4.9748,-5.1507,-5.2027,-5.4456,-5.8266,-5.8969,-6.0625,-6.3099,-6.35,-6.2738,-6.1203,-6.3552,-6.4243,-6.3935,-6.4813,-6.5233,-6.5459,-6.5609,-6.566,-6.566,0.0,0.0,0.0,0.0,0.0,0.0,0.0,0.0,0.0,0.0,0.0,0.0,0.0,0.0,0.0,0.0,0.0,0.0,0.0,0.0,0.0,0.0,0.0,0.0,0.0,0.0,0.0,0.0,0.0,0.0,0.0,0.0,0.0,0.0,0.0,0.0,0.0,0.0,0.0,0.0,-4.4805,0.0,0.0,-4.7266,-4.7793,0.0,0.0,0.0,-4.7285,-4.668,-4.5547,0.0,0.0,0.0,0.0,0.0,0.0,-4.1113,-4.0859,-4.0664,-4.0762,0.0,0.0,0.0,-4.3242,-4.375,0.0,0.0,0.0,0.0,0.0,0.0,0.0,0.0,0.0,0.0,0.0,0.0,0.0,0.0,0.0,0.0,0.0,0.0,0.0,0.0,-5.1758,-5.1289,-5.0664,-5.0176,-4.9707,-4.9258,-4.8984,-4.938,-5.0276,-5.0439,-5.1486,-5.3771,-5.4807,-5.6814,-5.9639,-6.07,-6.1943,-6.3199,-6.355,-6.3375,-6.2873,-6.3525,-6.3977,-6.4304,-6.4781,-6.5132,-6.5484,-6.5936,-6.6112,-6.6112,0.0,0.0,0.0,0.0,0.0,0.0,0.0,0.0,0.0,0.0,0.0,0.0,0.0,0.0,0.0,0.0,0.0,0.0,0.0,0.0,0.0,0.0,0.0,0.0,0.0,0.0,0.0,0.0,0.0,0.0,0.0,0.0,0.0,0.0,0.0,0.0,0.0,0.0,0.0,-4.5098,-4.6719,-4.7793,0.0,0.0,-5.1523,0.0,-5.123,-5.0371,-4.9277,-4.8281,-4.6582,0.0,0.0,0.0,0.0,0.0,-4.1172,-4.1172,-4.1172,-4.0918,-4.0996,0.0,0.0,0.0,-4.2715,-4.2148,-4.1777,0.0,0.0,0.0,0.0,0.0,0.0,0.0,0.0,0.0,0.0,0.0,0.0,0.0,0.0,0.0,0.0,0.0,-5.1914,-5.1875,-5.1172,-5.0391,-4.957,-4.9531,-4.9503,-4.9216,-4.9216,-5.0439,-5.2724,-5.2724,-5.3948,-5.6204,-5.8266,-5.9737,-6.0579,-6.277,-6.3651,-6.3601,-6.3726,-6.3425,-6.2847,-6.2898,-6.2923,-6.3023,-6.4002,-6.4454,-6.468,-6.566,-6.6061,-6.6112,0.0,0.0,0.0,0.0,0.0,0.0,0.0,0.0,0.0,0.0,0.0,0.0,0.0,0.0,0.0,0.0,0.0,0.0,0.0,0.0,0.0,0.0,0.0,0.0,0.0,0.0,0.0,0.0,0.0,0.0,0.0,0.0,0.0,0.0,0.0,0.0,0.0,0.0,0.0,-4.4609,-4.5625,0.0,-4.9922,-5.1016,-5.207,-5.2969,-5.2891,-5.293,-5.2734,0.0,-4.9199,-4.7519,0.0,0.0,0.0,0.0,0.0,0.0,0.0,0.0,0.0,0.0,0.0,0.0,-4.082,-4.0644,-4.0996,0.0,0.0,0.0,0.0,0.0,0.0,0.0,0.0,0.0,0.0,0.0,0.0,0.0,0.0,0.0,0.0,0.0,-5.0918,-5.0586,-5.0391,-5.0078,-4.9551,-4.9531,-5.0205,-5.1688,-5.1667,-5.2902,-5.5158,-5.518,-5.6377,-5.8606,-5.9138,-6.041,-6.2316,-6.331,-6.345,-6.3048,-6.3927,-6.3751,-6.2873,-6.3324,-6.3525,-6.355,-6.3751,-6.4379,-6.5157,-6.5383,-6.5735,-6.6112,0.0,0.0,0.0,0.0,0.0,0.0,0.0,0.0,0.0,0.0,0.0,0.0,0.0,0.0,0.0,0.0,0.0,0.0,0.0,0.0,0.0,0.0,0.0,0.0,0.0,0.0,0.0,0.0,0.0,0.0,0.0,0.0,0.0,0.0,0.0,0.0,0.0,0.0,-4.2109,-4.3359,-4.6387,0.0,-5.1289,-5.2793,-5.4023,-5.4922,-5.4492,-5.4336,-5.3926,-5.1113,-4.9883,0.0,0.0,-4.4551,-4.4082,0.0,-4.2129,-4.1992,0.0,0.0,0.0,-4.1484,0.0,0.0,0.0,-4.0332,-4.0117,-4.0976,0.0,0.0,0.0,0.0,0.0,0.0,0.0,0.0,0.0,0.0,0.0,0.0,0.0,0.0,0.0,0.0,-5.0312,-4.9883,-4.9844,-5.019,-5.0986,-5.0965,-5.1915,-5.4146,-5.4125,-5.5158,-5.7583,-5.7583,-5.8799,-6.1076,-6.1076,-6.1746,-6.3274,-6.355,-6.3525,-6.3299,-6.3827,-6.3601,-6.2847,-6.3149,-6.3249,-6.3299,-6.3576,-6.4028,-6.4555,-6.5082,-6.5459,-6.5735,0.0,0.0,0.0,0.0,0.0,0.0,0.0,0.0,0.0,0.0,0.0,0.0,0.0,0.0,0.0,0.0,0.0,0.0,0.0,0.0,0.0,0.0,0.0,-4.0234,0.0,0.0,0.0,0.0,0.0,0.0,0.0,0.0,0.0,0.0,0.0,0.0,0.0,0.0,0.0,-4.2812,0.0,-4.9961,-5.125,-5.373,-5.5215,-5.5937,-5.5742,-5.541,-5.457,-5.1445,0.0,-5.0058,-4.6601,-4.5703,0.0,0.0,0.0,0.0,0.0,0.0,0.0,0.0,0.0,-4.1426,0.0,0.0,0.0,-4.0312,0.0,0.0,0.0,0.0,0.0,0.0,0.0,0.0,0.0,0.0,0.0,0.0,0.0,0.0,0.0,0.0,-4.9866,-4.9394,-4.9531,-5.0397,-5.2387,-5.2387,-5.3593,-5.64,-5.6573,-5.7606,-6.0003,-6.0003,-6.0886,-6.2822,-6.2822,-6.3073,-6.3525,-6.3651,-6.3626,-6.3525,-6.3651,-6.3375,-6.2822,-6.2822,-6.2822,-6.2873,-6.335,-6.3651,-6.3927,-6.4705,-6.5107,-6.5358,-3.4785,-3.5488,0.0,0.0,0.0,0.0,0.0,0.0,0.0,0.0,0.0,0.0,0.0,0.0,0.0,0.0,0.0,0.0,-4.3926,0.0,0.0,0.0,0.0,0.0,-4.0937,0.0,0.0,0.0,0.0,0.0,0.0,0.0,0.0,0.0,-4.0918,0.0,0.0,0.0,-4.2812,0.0,-4.7363,-4.7793,0.0,-5.1055,-5.2988,-5.4023,-5.6211,-5.6719,-5.6074,0.0,-5.3027,-5.1816,0.0,-4.7051,-4.6445,-4.4746,0.0,0.0,0.0,0.0,0.0,0.0,-4.3203,0.0,0.0,0.0,-4.1211,-4.0176,0.0,0.0,0.0,0.0,0.0,0.0,0.0,0.0,0.0,0.0,0.0,0.0,0.0,0.0,0.0,0.0,0.0,-4.9032,-4.9429,-5.0642,-5.2324,-5.2387,-5.4456,-5.8799,-5.8969,-6.0027,-6.2306,-6.247,-6.2495,-6.2822,-6.2822,-6.2873,-6.2948,-6.345,-6.3425,-6.2948,-6.3475,-6.3375,-6.2822,-6.2822,-6.2822,-6.2847,-6.2898,-6.3525,-6.4329,-6.4002,-6.4479,-6.5308,-3.4336,-3.5254,0.0,0.0,0.0,0.0,0.0,0.0,0.0,0.0,0.0,0.0,0.0,0.0,0.0,0.0,0.0,-4.4141,0.0,0.0,0.0,0.0,0.0,0.0,0.0,0.0,0.0,0.0,-4.1172,0.0,0.0,0.0,0.0,0.0,-4.1094,0.0,-4.166,0.0,0.0,0.0,0.0,0.0,0.0,-5.1816,-5.4492,-5.5371,-5.6465,-5.6894,-5.6601,0.0,-5.3398,0.0,0.0,0.0,0.0,0.0,0.0,0.0,0.0,0.0,0.0,0.0,0.0,0.0,-4.2031,0.0,-4.0976,0.0,0.0,0.0,0.0,0.0,0.0,0.0,0.0,0.0,0.0,0.0,0.0,0.0,0.0,0.0,0.0,0.0,0.0,0.0,0.0,-5.244,-5.4874,-5.5631,-5.7623,-6.1242,-6.1242,-6.1763,-6.2822,-6.2822,-6.2822,-6.2822,-6.2822,-6.2822,-6.2847,-6.3073,-6.3048,-6.2847,-6.3099,-6.3048,-6.2822,-6.2822,-6.2822,-6.2822,-6.2822,-6.3099,-6.3525,-6.3651,-6.3977,-6.4404,-3.4219,0.0,0.0,0.0,0.0,0.0,0.0,0.0,0.0,0.0,0.0,0.0,-4.9316,-4.8633,0.0,0.0,0.0,-4.6348,0.0,0.0,-4.3008,0.0,0.0,0.0,0.0,0.0,0.0,0.0,0.0,0.0,0.0,0.0,0.0,0.0,0.0,-4.209,-4.2812,0.0,0.0,-4.4375,-4.6504,-4.7558,-4.832,-5.2754,-5.5332,-5.6582,-5.6582,-5.6777,-5.6719,-5.4609,-5.3828,0.0,-5.1348,0.0,0.0,0.0,0.0,0.0,-4.4336,0.0,0.0,0.0,0.0,0.0,0.0,0.0,0.0,0.0,0.0,0.0,0.0,0.0,0.0,0.0,0.0,0.0,0.0,0.0,0.0,0.0,0.0,0.0,0.0,0.0,0.0,0.0,-5.0792,0.0,-5.6363,-5.7241,-5.9297,-6.2408,-6.2747,-6.2822,-6.2822,-6.2822,-6.2822,-6.2822,-6.2822,-6.2822,-6.2822,-6.2822,-6.2822,-6.2822,-6.2822,-6.2822,-6.2822,-6.2822,-6.2822,-6.2822,-6.2822,-6.2822,-6.2873,-6.3299,-6.355,-6.3751,-3.459,-3.5078,0.0,0.0,0.0,0.0,0.0,0.0,0.0,0.0,0.0,0.0,0.0,0.0,0.0,0.0,0.0,-4.8926,-4.9336,0.0,-4.3769,0.0,0.0,-4.1582,0.0,0.0,0.0,0.0,0.0,0.0,0.0,0.0,0.0,0.0,0.0,-4.3262,-4.375,-4.5039,-4.6777,-4.873,-4.9668,-5.2031,-5.4765,0.0,-5.4023,-5.6582,-5.6582,0.0,0.0,-5.5547,-5.498,0.0,0.0,0.0,0.0,0.0,0.0,0.0,0.0,0.0,0.0,-4.3711,0.0,0.0,0.0,0.0,-4.2773,0.0,0.0,0.0,0.0,0.0,0.0,0.0,0.0,0.0,0.0,0.0,0.0,0.0,0.0,0.0,0.0,0.0,0.0,-5.0872,-5.0972,0.0,-5.5178,-5.5818,-5.7831,-6.1969,-6.2546,-6.2822,-6.2822,-6.2822,-6.2822,-6.2822,-6.2822,-6.2822,-6.2822,-6.2822,-6.2822,-6.2822,-6.2822,-6.2822,-6.2822,-6.2822,-6.2822,-6.2822,-6.2822,-6.2822,-6.2822,-6.2847,-6.3199,-6.3701,0.0,0.0,0.0,0.0,0.0,0.0,0.0,-4.2891,0.0,0.0,0.0,0.0,0.0,0.0,-5.4414,0.0,0.0,-5.2695,-5.1699,-4.9219,0.0,0.0,0.0,-4.3867,0.0,0.0,0.0,0.0,0.0,0.0,0.0,0.0,0.0,0.0,0.0,-4.3223,0.0,0.0,0.0,0.0,0.0,-5.2988,-5.5293,0.0,0.0,-5.6582,-5.6582,-5.6758,0.0,-5.6348,-5.5683,-5.4941,-5.4082,-5.2519,-5.0879,-5.0176,-4.9238,0.0,0.0,0.0,-4.7949,-4.5078,0.0,0.0,0.0,0.0,0.0,0.0,0.0,0.0,0.0,0.0,0.0,-4.0996,0.0,0.0,0.0,0.0,0.0,0.0,0.0,0.0,0.0,0.0,0.0,-4.8696,-5.06,-5.2632,0.0,-5.6421,-5.8384,-6.0839,-6.1793,-6.2446,-6.2822,-6.2822,-6.2822,-6.2822,-6.2822,-6.2822,-6.2822,-6.2822,-6.2822,-6.2822,-6.2822,-6.2822,-6.2822,-6.2822,-6.2822,-6.2822,-6.2822,-6.2822,-6.2822,-6.2822,-6.2948,-6.3224,-3.6582,0.0,0.0,0.0,0.0,0.0,0.0,0.0,0.0,0.0,-5.1074,0.0,-5.6289,0.0,-5.7363,0.0,-5.7383,-5.5781,-5.3105,-5.1797,0.0,-4.8301,-4.7031,0.0,0.0,0.0,0.0,0.0,0.0,-4.1621,0.0,0.0,0.0,0.0,0.0,-4.3613,-4.498,0.0,-4.8379,0.0,0.0,-5.3848,0.0,0.0,-5.6328,0.0,0.0,-5.6504,-5.6953,-5.668,-5.6113,-5.5449,-5.5039,-5.3535,-5.1836,-5.125,-5.0469,-4.9609,-4.875,-4.9219,0.0,0.0,-4.6348,0.0,-4.373,0.0,0.0,0.0,0.0,0.0,0.0,0.0,0.0,-4.1465,-4.0547,-3.9629,0.0,-3.9195,0.0,0.0,0.0,0.0,0.0,0.0,-4.8691,-4.7678,-4.9914,-5.2026,0.0,0.0,-5.765,-5.9684,-6.1014,-6.1969,-6.2521,-6.2722,-6.2822,-6.2822,-6.2822,-6.2822,-6.2822,-6.2822,-6.2822,-6.2822,-6.2822,-6.2822,-6.2822,-6.2822,-6.2822,-6.2822,-6.2822,-6.2822,-6.2822,-6.2822,-6.2822,-6.2948,0.0,0.0,0.0,0.0,-4.0,0.0,0.0,0.0,-4.8516,0.0,-5.2734,-5.5703,-5.7871,-5.8906,-5.959,-5.998,-5.998,0.0,-5.3984,-5.4023,0.0,0.0,-4.8965,-4.8535,-4.7246,0.0,0.0,0.0,0.0,0.0,0.0,0.0,0.0,0.0,-4.2969,0.0,-4.5781,-4.7969,-5.0137,-5.2226,-5.3965,-5.4668,-5.4726,-5.5078,0.0,-5.6445,-5.5605,-5.584,-5.6562,-5.6562,-5.6269,-5.584,-5.5449,-5.4746,-5.3867,-5.2988,-5.2734,-5.2383,-5.0723,-5.0586,-5.043,-4.8281,0.0,0.0,0.0,0.0,-4.6777,0.0,0.0,0.0,0.0,0.0,0.0,-4.1855,-4.0703,-3.9414,0.0,0.0,0.0,0.0,0.0,0.0,0.0,-4.9643,-4.9636,-4.8074,-4.8854,-5.0469,0.0,0.0,0.0,-5.8504,-6.0186,-6.1366,-6.1994,-6.2521,-6.2797,-6.2822,-6.2822,-6.2822,-6.2822,-6.2822,-6.2822,-6.2822,-6.2822,-6.2822,-6.2822,-6.2822,-6.2822,-6.2822,-6.2822,-6.2822,-6.2822,-6.2822,-6.2822,-6.2923,-3.7643,-3.8789,-3.9531,0.0,-3.9648,-4.0391,0.0,0.0,0.0,0.0,-5.539,-5.8594,-6.1426,-6.2461,-6.293,-6.2715,-6.207,0.0,0.0,0.0,0.0,-5.4512,-5.3633,-5.2578,-5.125,-4.9258,0.0,-4.6426,0.0,0.0,-4.2578,0.0,0.0,0.0,0.0,0.0,-4.5351,-4.7812,-5.0117,-5.2207,-5.3633,-5.4394,0.0,0.0,-5.4785,-5.6035,-5.5488,-5.5644,-5.6094,-5.6094,-5.582,-5.5508,-5.5703,-5.498,-5.3926,-5.3359,-5.3203,-5.2969,-5.1894,-5.2129,-5.2266,-5.043,-4.9746,-4.9082,0.0,0.0,0.0,0.0,0.0,0.0,0.0,0.0,0.0,-4.1562,-4.0234,-3.916,0.0,0.0,0.0,-4.3595,0.0,0.0,-4.6109,-4.7961,-4.8885,-4.7926,-4.8158,0.0,0.0,0.0,0.0,-5.6771,-5.8478,-6.0211,-6.1994,-6.2144,-6.2421,-6.2822,-6.2822,-6.2822,-6.2822,-6.2822,-6.2822,-6.2822,-6.2822,-6.2822,-6.2822,-6.2822,-6.2822,-6.2822,-6.2822,-6.2822,-6.2822,-6.2822,-6.2822,-6.2923,-3.8224,0.0,0.0,-4.1035,0.0,0.0,-4.2161,0.0,0.0,-5.0987,-5.5648,0.0,-6.1152,-6.3457,-6.4551,-6.375,-6.3398,0.0,0.0,0.0,0.0,-5.668,-5.625,-5.5371,-5.3867,-5.1504,0.0,-4.8144,0.0,0.0,-4.3047,0.0,0.0,0.0,0.0,-4.4433,-4.5234,-4.8379,-5.0508,-5.1894,-5.3008,0.0,0.0,-5.3476,-5.4082,-5.5078,-5.4844,-5.5254,-5.5957,-5.6152,-5.582,-5.5351,-5.5586,-5.5039,-5.4219,-5.3789,-5.3652,-5.3516,-5.2832,-5.3125,-5.332,-5.1973,-5.1601,-5.1172,-4.9609,-4.9512,-4.9414,0.0,0.0,0.0,0.0,0.0,0.0,-4.1191,-4.0117,0.0,0.0,0.0,0.0,0.0,-4.5866,0.0,-4.6421,-4.7356,-4.7658,-4.6535,0.0,0.0,0.0,0.0,0.0,-5.544,-5.76,-5.9433,-6.0889,-6.1868,-6.2395,-6.2471,-6.2722,-6.2822,-6.2822,-6.2822,-6.2822,-6.2822,-6.2822,-6.2822,-6.2822,-6.2822,-6.2822,-6.2822,-6.2822,-6.2822,-6.2822,-6.2822,-6.2998,-6.3249,0.0,0.0,0.0,0.0,0.0,0.0,0.0,-4.589,0.0,-4.9835,0.0,-5.9883,-6.0,-6.3457,-6.5293,-6.414,0.0,-6.3164,-6.0058,-6.1191,-6.0566,-5.7402,-5.791,-5.7519,-5.5859,-5.3535,0.0,0.0,0.0,0.0,-4.3047,0.0,0.0,0.0,0.0,0.0,0.0,-4.9043,-5.082,-5.1328,-5.2129,-5.2558,-5.2734,-5.3008,-5.3496,-5.4023,-5.3965,-5.4726,-5.582,-5.6211,-5.5801,-5.5176,-5.5332,-5.5058,-5.4609,-5.4297,-5.4199,-5.4082,-5.3574,-5.3769,-5.3926,-5.3086,-5.3164,-5.3144,-5.1953,-5.1348,-5.082,-5.0019,-4.8828,0.0,0.0,0.0,0.0,-4.0859,0.0,0.0,0.0,0.0,0.0,0.0,0.0,0.0,0.0,-4.7583,-4.6737,0.0,0.0,0.0,0.0,0.0,0.0,0.0,-5.6972,0.0,-5.9483,0.0,-6.237,-6.2119,-6.2521,-6.2747,-6.2822,-6.2822,-6.2822,-6.2822,-6.2822,-6.2822,-6.2822,-6.2822,-6.2822,-6.2822,-6.2822,-6.2822,-6.2822,-6.2822,-6.3249,-6.3776,0.0,0.0,0.0,0.0,0.0,-4.2484,-4.2291,-4.7008,-5.1973,-5.618,-6.0746,0.0,-6.4375,-6.5762,-6.6406,-6.582,-6.5527,0.0,0.0,0.0,0.0,-6.0898,-6.0625,-5.9883,-5.8555,-5.5332,-5.2793,0.0,-4.6992,-4.4355,-4.3047,0.0,0.0,0.0,0.0,0.0,-4.6719,-4.8457,0.0,-5.0449,-5.0937,-5.1777,-5.2637,-5.2012,-5.2715,-5.3984,-5.3613,-5.4101,-5.4922,-5.498,-5.4668,-5.4433,-5.5488,-5.5293,-5.4726,-5.5,-5.5078,-5.4922,-5.4121,-5.4238,-5.4453,-5.3926,-5.3848,-5.375,-5.3164,-5.2695,-5.2246,-5.1738,-5.0625,-4.9414,-4.8398,0.0,0.0,0.0,0.0,0.0,0.0,0.0,0.0,0.0,0.0,0.0,0.0,0.0,0.0,0.0,0.0,0.0,0.0,0.0,0.0,0.0,0.0,0.0,0.0,0.0,0.0,-6.2672,-6.232,-6.2395,-6.2822,-6.2822,-6.2822,-6.2822,-6.2822,-6.2822,-6.2822,-6.2822,-6.2822,-6.2822,-6.2822,-6.2822,-6.2822,-6.2822,-6.3475,-6.4203,0.0,0.0,0.0,0.0,0.0,0.0,0.0,-4.9537,0.0,-5.312,-5.8646,-6.2695,-6.2871,-6.5293,-6.6523,-6.5644,-6.5762,-6.5351,-6.4082,-6.3808,-6.3105,-6.1777,-6.1074,0.0,-5.918,-5.623,-5.3828,-5.209,-4.7793,-4.5019,0.0,0.0,0.0,-4.123,0.0,-4.457,0.0,0.0,0.0,-4.959,-5.0683,-5.1504,-5.2051,-5.209,-5.2617,-5.3379,-5.3613,-5.3984,-5.4414,-5.4863,-5.4726,-5.4473,-5.5098,-5.5,-5.4668,-5.4648,-5.4648,-5.4551,-5.4141,-5.418,-5.4297,-5.4082,-5.4023,-5.3848,-5.3183,-5.2851,-5.2461,-5.1601,-5.0937,-4.9961,-4.8203,-4.5449,0.0,0.0,0.0,0.0,0.0,0.0,0.0,0.0,0.0,0.0,0.0,0.0,0.0,0.0,0.0,0.0,0.0,0.0,0.0,0.0,0.0,0.0,0.0,0.0,0.0,-6.1969,-6.1994,-6.2295,-6.2822,-6.2822,-6.2822,-6.2822,-6.2822,-6.2822,-6.2822,-6.2822,-6.2822,-6.2822,-6.2822,-6.2822,-6.2873,-6.3174,-6.3601,-6.4002,0.0,-4.4636,0.0,0.0,-4.2889,0.0,0.0,-5.1414,-5.1642,-5.1619,-5.7586,-6.1719,-6.1543,-6.4648,-6.6328,-6.5293,-6.582,-6.5586,-6.4199,-6.3926,-6.3281,-6.2051,-6.1074,-6.0215,-5.9473,-5.6914,-5.4551,0.0,-4.8672,0.0,0.0,0.0,0.0,0.0,0.0,0.0,0.0,0.0,-4.8516,-4.9141,-5.0683,-5.1348,-5.1504,-5.2187,-5.25,-5.2676,-5.3476,-5.375,-5.3887,-5.4746,-5.4824,-5.4551,-5.4648,-5.4687,-5.4609,-5.4277,-5.416,-5.4141,-5.4062,-5.4023,-5.4023,-5.4023,-5.3965,-5.3711,-5.3008,-5.2715,-5.2285,-5.1289,-5.0937,-5.0137,-4.7988,-4.6211,0.0,0.0,0.0,0.0,0.0,0.0,0.0,0.0,0.0,0.0,0.0,0.0,0.0,0.0,0.0,-4.8937,-4.8937,-5.0419,0.0,0.0,0.0,0.0,-5.7022,0.0,-6.1014,0.0,-6.1793,-6.2295,-6.2822,-6.2822,-6.2822,-6.2822,-6.2822,-6.2822,-6.2822,-6.2822,-6.2822,-6.2822,-6.2822,-6.2822,-6.2898,-6.3475,-6.3751,-6.3852,0.0,0.0,0.0,0.0,0.0,0.0,0.0,-5.0747,-5.4904,-6.1809,-6.3606,-6.4316,-6.5019,-6.582,-6.6211,-6.6094,-6.6152,-6.5996,-6.5469,-6.4668,-6.3848,-6.2969,-6.1719,-6.0801,-6.0332,-5.7793,-5.4844,0.0,0.0,-4.6953,0.0,0.0,0.0,0.0,0.0,0.0,0.0,-4.7324,-4.8691,-4.9551,-5.0488,-5.1094,-5.1445,-5.1523,-5.1797,-5.2207,-5.2656,-5.2832,-5.2969,-5.3848,-5.4121,-5.416,-5.4551,-5.4687,-5.4668,-5.4629,-5.4629,-5.4531,-5.4141,-5.4023,-5.4023,-5.4023,-5.373,-5.3398,-5.332,-5.2695,-5.2109,-5.1992,-5.1348,-5.0137,-4.7988,-4.7422,-4.6504,0.0,0.0,0.0,0.0,0.0,0.0,-4.1502,0.0,0.0,0.0,0.0,0.0,0.0,0.0,-4.9515,-4.9515,-5.0645,-5.1297,-5.1348,0.0,-5.6018,-5.7022,-5.878,0.0,-6.1943,-6.1994,-6.2295,-6.2822,-6.2822,-6.2822,-6.2822,-6.2822,-6.2822,-6.2822,-6.2822,-6.2822,-6.2822,-6.2822,-6.2822,-6.2898,-6.3475,-6.4002,-6.4404,0.0,0.0,0.0,0.0,0.0,0.0,0.0,-5.1589,-5.5407,-6.3373,-6.4531,-6.5,-6.5879,-6.6348,-6.6504,-6.623,-6.6445,-6.6211,-6.5234,-6.4883,-6.4199,-6.3086,-6.2012,-6.1133,-6.0449,-5.8652,-5.6191,0.0,0.0,0.0,0.0,0.0,0.0,0.0,0.0,-4.4394,-4.625,-4.7617,-4.8711,-4.9629,-5.0742,-5.1289,-5.1465,-5.1719,-5.1933,-5.2168,-5.2851,-5.293,-5.2812,-5.3418,-5.3633,-5.3711,-5.4141,-5.4297,-5.4297,-5.4297,-5.4297,-5.4258,-5.4082,-5.4023,-5.4023,-5.4023,-5.3887,-5.3691,-5.3418,-5.2891,-5.2383,-5.2129,-5.1406,-5.0469,-4.9336,-4.8281,-4.7246,0.0,0.0,0.0,0.0,0.0,0.0,-4.1328,0.0,-4.3826,0.0,0.0,0.0,0.0,0.0,-4.959,-4.959,-5.067,-5.1272,-5.1272,0.0,-5.6244,-5.7022,-5.9006,-6.0663,-6.1994,-6.1994,-6.2295,-6.2822,-6.2822,-6.2822,-6.2822,-6.2822,-6.2822,-6.2822,-6.2822,-6.2822,-6.2822,-6.2822,-6.2822,-6.2898,-6.3475,-6.4028,-6.4505,-4.3082,0.0,-4.2925,0.0,-4.1914,-4.3842,-5.0942,-5.2328,-5.5303,-6.3547,-6.4531,-6.4941,-6.5937,-6.6406,-6.6504,-6.6055,-6.6328,-6.6055,-6.5,-6.4707,-6.4121,-6.3086,-6.2187,0.0,-6.0449,-5.9297,-5.7363,-5.459,-5.2558,0.0,0.0,0.0,0.0,0.0,-4.418,-4.5293,-4.7187,-4.832,-4.9219,-5.0,-5.1016,-5.1426,-5.1465,-5.1777,-5.1894,-5.1992,-5.2715,-5.2793,-5.2617,-5.3164,-5.3359,-5.3398,-5.3574,-5.373,-5.3828,-5.3828,-5.3926,-5.4023,-5.4023,-5.4023,-5.4023,-5.4023,-5.3828,-5.3555,-5.3242,-5.2734,-5.2246,-5.1953,-5.1406,-5.0859,-5.0449,-4.9355,-4.8359,0.0,0.0,0.0,0.0,0.0,0.0,0.0,-4.2403,-4.3784,-4.5533,0.0,0.0,0.0,0.0,0.0,-5.0092,-5.0845,0.0,0.0,0.0,0.0,0.0,0.0,-6.0814,-6.1768,-6.2094,-6.2446,-6.2822,-6.2822,-6.2822,-6.2822,-6.2822,-6.2822,-6.2822,-6.2822,-6.2822,-6.2822,-6.2822,-6.2923,-6.3149,-6.3701,-6.4254,-6.4781,-3.9303,-4.1165,-4.2554,-4.1534,-4.1537,-4.4399,-5.1661,-5.2461,-5.5096,-6.3875,-6.4199,-6.4199,-6.5469,-6.5976,-6.6055,-6.5644,-6.5586,-6.541,-6.4941,-6.414,-6.3515,0.0,0.0,-6.1308,-6.0449,-5.959,-5.8086,-5.5918,0.0,0.0,-5.0078,0.0,0.0,-4.5058,-4.6328,-4.7129,-4.7695,-4.9414,-5.0391,-5.082,-5.125,-5.1426,-5.1426,-5.1445,-5.1445,-5.1504,-5.1933,-5.209,-5.2226,-5.3066,-5.3359,-5.3281,-5.2851,-5.3027,-5.3359,-5.3359,-5.3691,-5.4023,-5.4023,-5.4023,-5.4023,-5.4023,-5.3379,-5.2715,-5.2715,-5.2051,-5.1445,-5.1445,-5.1426,-5.1289,-5.0879,-5.0781,-5.0195,-4.8476,0.0,0.0,0.0,0.0,0.0,-4.2051,-4.3555,-4.5126,-4.6089,0.0,0.0,0.0,0.0,0.0,0.0,0.0,0.0,-5.2879,-5.4536,0.0,-5.7022,-5.9207,-6.0613,-6.1215,-6.2295,-6.2822,-6.2822,-6.2822,-6.2822,-6.2822,-6.2822,-6.2822,-6.2822,-6.2822,-6.2822,-6.2822,-6.2822,-6.3174,-6.3751,-6.4279,-6.4806,-6.5358,-4.0442,-4.1371,-4.2066,-4.1799,-4.383,-4.6998,-5.1613,-5.4437,-5.7863,-6.3054,-6.418,-6.4707,-6.5117,-6.5801,-6.6055,0.0,-6.5879,-6.5703,0.0,-6.4433,-6.3789,-6.3086,-6.2461,-6.1601,-6.0449,-6.0156,-5.8984,-5.6797,0.0,0.0,0.0,-4.8711,-4.7891,-4.7637,-4.7754,-4.8535,-4.9824,-5.0371,-5.0859,-5.125,-5.1387,-5.1426,-5.1426,-5.1426,-5.1426,-5.1484,-5.1933,-5.1894,-5.1719,-5.2305,-5.2285,-5.2012,-5.1875,-5.2754,-5.3808,-5.3808,-5.3926,-5.4023,-5.4023,-5.4023,-5.4023,-5.4023,-5.3808,-5.3535,-5.3223,-5.248,-5.1797,-5.1484,-5.1426,-5.1308,-5.0879,-5.0801,-5.043,-4.9297,0.0,0.0,0.0,0.0,0.0,-4.3392,-4.4763,-4.6334,0.0,-4.9576,0.0,0.0,0.0,0.0,0.0,0.0,0.0,0.0,-5.5064,0.0,-5.8704,-6.0161,-6.1391,-6.2295,-6.2672,-6.2822,-6.2822,-6.2822,-6.2822,-6.2822,-6.2822,-6.2822,-6.2822,-6.2822,-6.3048,-6.3425,-6.3425,-6.3751,-6.4254,-6.4404,-6.4806,-6.5478,-4.1163,-4.1537,-4.1817,-4.1924,-4.4776,-4.8371,-5.1678,-5.5513,-5.9164,-6.2725,-6.3965,-6.4531,-6.4707,-6.5351,0.0,-6.5586,-6.5703,-6.5508,-6.5,-6.4414,-6.3789,-6.3086,-6.2598,-6.1777,-6.0449,0.0,0.0,-5.7969,-5.6601,-5.4453,-5.1601,-5.0547,-4.998,-4.9805,-4.9531,-4.9941,-5.082,-5.0976,-5.1191,-5.1426,-5.1426,-5.1426,-5.1426,-5.1426,-5.1426,-5.1465,-5.1738,-5.1777,-5.1719,-5.1992,-5.2109,-5.2129,-5.1953,-5.2891,-5.3965,-5.3633,-5.3652,-5.3808,-5.3984,-5.4023,-5.4023,-5.4023,-5.3906,-5.3613,-5.3008,-5.2461,-5.1953,-5.1523,-5.1426,-5.1348,-5.1094,-5.0918,-5.0586,-4.9883,0.0,-4.7969,-4.5391,0.0,0.0,0.0,0.0,0.0,0.0,-5.1108,0.0,0.0,0.0,0.0,0.0,0.0,0.0,-5.4285,-5.5968,0.0,-5.9483,-6.0814,-6.1843,-6.2521,-6.2722,-6.2822,-6.2822,-6.2822,-6.2822,-6.2822,-6.2822,-6.2822,-6.2822,-6.2822,-6.3174,-6.3701,-6.3701,-6.4128,-6.4781,-6.4781,-6.5588,-6.7029,-4.175,-4.179,0.0,0.0,-4.5154,0.0,-5.248,-5.5756,-5.9276,-6.3256,-6.3691,-6.3867,-6.4258,-6.4648,-6.5058,-6.5527,0.0,0.0,0.0,-6.4082,-6.3457,-6.3047,-6.2578,0.0,-6.0449,-6.043,-6.0039,-5.9121,-5.7109,-5.5469,-5.418,-5.293,-5.209,-5.1601,-5.1582,-5.1328,-5.0957,-5.1348,-5.1523,-5.1523,-5.1484,-5.1484,-5.1465,-5.1445,-5.1426,-5.1426,-5.1426,-5.1699,-5.2031,-5.2031,-5.2578,-5.3144,-5.2754,-5.3203,-5.375,-5.2988,-5.3066,-5.3496,-5.3926,-5.4023,-5.4023,-5.3984,-5.3633,-5.3066,-5.2266,-5.2051,-5.1914,-5.1523,-5.1426,-5.1426,-5.1426,-5.1113,-5.0703,-5.0254,-4.9414,-4.793,-4.5391,0.0,0.0,0.0,0.0,0.0,0.0,-5.2428,-5.3607,0.0,0.0,0.0,0.0,0.0,0.0,-5.544,-5.7097,-5.8504,-5.9659,-6.1215,-6.2019,-6.2069,-6.2571,-6.2822,-6.2822,-6.2822,-6.2822,-6.2822,-6.2822,-6.2822,-6.2822,-6.2822,-6.3174,-6.3701,-6.3726,-6.4379,-6.5283,-6.5333,-6.7106,-6.9274,0.0,0.0,-4.2867,-4.5375,-4.8788,-5.2414,-5.5721,-5.9683,-6.2582,-6.3183,-6.373,-6.4082,-6.3867,-6.4199,-6.4648,-6.5058,-6.5,-6.4824,-6.4492,-6.3672,-6.3144,-6.3027,-6.2285,-6.1426,-6.0449,-6.043,-5.9863,-5.8711,-5.8183,-5.7246,-5.5957,-5.5332,-5.4453,-5.3398,-5.3047,-5.2656,-5.2266,-5.2363,-5.2402,-5.2383,-5.2051,-5.1933,-5.1894,-5.1562,-5.1426,-5.1426,-5.1426,-5.1504,-5.1582,-5.1582,-5.1719,-5.1875,-5.1777,-5.2109,-5.2637,-5.3086,-5.3516,-5.3887,-5.4004,-5.4023,-5.3945,-5.3613,-5.2949,-5.2324,-5.2129,-5.1816,-5.1562,-5.1445,-5.1426,-5.1426,-5.1426,-5.1348,-5.1035,-5.0293,-4.916,-4.7578,-4.5332,-4.5347,0.0,0.0,-4.8736,-5.1319,-5.3261,-5.3978,-5.4662,0.0,0.0,0.0,0.0,0.0,-5.5817,-5.662,-5.7851,-5.9433,-6.1391,-6.1793,-6.222,-6.2647,-6.2772,-6.2822,-6.2822,-6.2822,-6.2822,-6.2822,-6.2822,-6.2822,-6.2822,-6.2822,-6.3174,-6.3726,-6.4128,-6.4705,-6.5333,-6.576,-6.7272,-6.9603,-4.1964,-4.2218,-4.2872,-4.4696,-4.9237,-5.3434,-5.4992,-6.0129,-6.3515,-6.3086,-6.3789,-6.414,-6.373,-6.3906,-6.414,-6.4355,-6.4531,-6.4551,-6.4316,-6.3496,-6.293,-6.2754,-6.1894,-6.1133,-6.043,-6.0254,-5.9707,-5.8828,-5.8652,-5.8066,-5.7148,-5.6523,-5.5644,-5.459,-5.416,-5.3711,-5.332,-5.332,-5.3086,-5.2695,-5.2676,-5.2305,-5.1777,-5.1738,-5.1719,-5.1699,-5.1504,-5.168,-5.1992,-5.1797,-5.1992,-5.2285,-5.207,-5.2461,-5.3027,-5.3281,-5.3535,-5.373,-5.373,-5.3867,-5.3926,-5.3476,-5.2851,-5.2324,-5.2129,-5.1894,-5.168,-5.1465,-5.1426,-5.1367,-5.1172,-5.0996,-5.0449,-4.9199,-4.8066,-4.6914,-4.5543,-4.555,0.0,-4.9171,-5.0943,-5.3107,-5.5847,-5.6093,-5.6118,-5.6219,0.0,0.0,-5.5742,-5.6771,-5.7374,-5.7424,-5.8981,-6.0537,-6.1994,-6.2245,-6.2521,-6.2822,-6.2822,-6.2822,-6.2822,-6.2822,-6.2822,-6.2822,-6.2822,-6.2822,-6.2822,-6.2822,-6.3299,-6.4078,-6.4354,-6.4957,-6.571,-6.6011,-6.8022,-7.088,-4.2218,-4.2967,-4.3557,-4.3747,-4.9392,-5.3931,-5.4068,-5.9572,-6.3437,-6.2988,-6.3613,-6.3965,-6.3633,-6.3633,-6.3691,-6.3789,-6.4082,-6.4258,-6.414,-6.3379,-6.2754,-6.2363,-6.1543,-6.0898,-6.043,-5.998,-5.9531,-5.918,-5.8828,-5.8359,-5.7851,-5.7109,-5.6289,-5.539,-5.5019,-5.4629,-5.4219,-5.4219,-5.3789,-5.3125,-5.3359,-5.2812,-5.1836,-5.2012,-5.2129,-5.2109,-5.1601,-5.1933,-5.2558,-5.2207,-5.2558,-5.3105,-5.2812,-5.3281,-5.3848,-5.3476,-5.3418,-5.3457,-5.3457,-5.3633,-5.373,-5.3359,-5.2891,-5.2422,-5.207,-5.1973,-5.1875,-5.1504,-5.1426,-5.1328,-5.0957,-5.0547,-4.9746,-4.8144,-4.6933,-4.6174,-4.6218,0.0,-4.7488,-5.197,-5.3072,-5.4616,-5.7825,-5.8152,-5.7801,-5.7022,-5.7097,0.0,0.0,-5.8252,-5.8905,-5.8529,-6.0337,-6.1567,-6.2119,-6.2672,-6.2948,-6.2948,-6.2873,-6.2873,-6.2948,-6.2873,-6.2822,-6.2822,-6.2822,-6.2822,-6.2847,-6.2923,-6.35,-6.4354,-6.453,-6.5157,-6.5986,-6.6404,-6.9162,-7.2506,-4.2218,-4.467,-4.7757,-5.0127,-5.4312,-5.8141,-6.045,-6.206,-6.2988,-6.2539,-6.293,-6.3203,-6.3144,-6.3457,-6.3848,-6.4199,-6.4258,-6.4023,-6.3262,-6.2754,-6.2422,-6.2363,-6.1543,-6.0898,-6.043,-5.9687,-5.9238,-5.918,-5.9121,-5.8672,-5.7871,-5.7734,-5.7012,-5.584,-5.5762,-5.5508,-5.5117,-5.5117,-5.5039,-5.4844,-5.418,-5.3808,-5.3516,-5.248,-5.2305,-5.25,-5.1719,-5.1758,-5.2168,-5.2109,-5.2168,-5.2324,-5.2617,-5.3047,-5.3457,-5.3379,-5.3633,-5.3926,-5.3926,-5.3437,-5.2891,-5.2832,-5.2207,-5.1621,-5.1543,-5.1523,-5.1523,-5.1445,-5.1426,-5.1406,-5.1348,-5.0996,-5.0391,-4.9394,-4.7285,-4.6055,0.0,0.0,-4.9292,-5.2119,-5.5628,-5.8124,-5.9182,-5.9257,-5.9583,-6.0337,-5.8755,-5.8328,-5.9608,-6.0387,-6.0964,-6.1341,-6.1692,-6.2144,-6.2697,-6.3274,-6.355,-6.355,-6.3048,-6.3099,-6.355,-6.3048,-6.2822,-6.2822,-6.2822,-6.2822,-6.2873,-6.335,-6.3651,-6.3902,-6.4806,-6.5258,-6.5629,-6.8008,-7.0421,-7.2822,-4.4403,-4.6416,-4.8475,-5.1564,-5.5287,-5.8402,-5.9477,-6.1718,-6.3164,-6.248,-6.2949,-6.3281,-6.3047,-6.2988,-6.3164,-6.3574,-6.3398,-6.2988,-6.2344,-6.2578,-6.2519,-6.2012,-6.1191,-6.0449,-5.9765,-5.9355,-5.918,-5.918,-5.918,-5.8848,-5.8203,-5.7969,-5.7422,-5.6601,-5.6133,-5.5957,-5.5976,-5.5742,-5.5508,-5.5273,-5.4883,-5.4297,-5.3594,-5.3008,-5.2891,-5.2969,-5.2344,-5.2402,-5.2773,-5.2773,-5.2773,-5.2851,-5.3281,-5.3555,-5.373,-5.373,-5.3691,-5.373,-5.3965,-5.3379,-5.2715,-5.2715,-5.2246,-5.1777,-5.1777,-5.1601,-5.1504,-5.1738,-5.1601,-5.1367,-5.1133,-5.0742,-5.0039,-4.8691,-4.7539,0.0,0.0,-4.9982,-5.208,-5.582,-5.827,-6.001,-6.119,-6.1014,-6.0939,-6.1165,-6.0236,-6.0136,-6.1165,-6.1768,-6.2446,-6.3299,-6.3324,-6.345,-6.3701,-6.3977,-6.3977,-6.3701,-6.3701,-6.3701,-6.3701,-6.3701,-6.355,-6.3299,-6.3576,-6.355,-6.335,-6.3877,-6.4279,-6.4605,-6.5107,-6.6255,-6.766,-6.8865,-7.1363,-7.4379,-4.5404,-4.7357,-4.947,-5.1547,-5.5928,-5.8739,-5.8575,-6.1287,-6.2988,-6.2305,-6.2812,-6.3164,-6.293,-6.2656,-6.2695,-6.3144,-6.2949,-6.2598,-6.2051,-6.2578,-6.2461,-6.1601,-6.0742,-5.9922,-5.918,-5.918,-5.918,-5.918,-5.918,-5.8945,-5.8535,-5.8086,-5.7637,-5.7168,-5.6308,-5.6113,-5.6406,-5.6074,-5.5683,-5.5312,-5.5312,-5.459,-5.3496,-5.3398,-5.3359,-5.3301,-5.2871,-5.2988,-5.3359,-5.3359,-5.3359,-5.3437,-5.3887,-5.3965,-5.3867,-5.3867,-5.3633,-5.3437,-5.3789,-5.3301,-5.2695,-5.2598,-5.2324,-5.209,-5.209,-5.1816,-5.168,-5.2012,-5.1738,-5.1328,-5.1016,-5.0605,-4.9785,-4.8144,0.0,0.0,0.0,-5.2279,-5.4872,-5.9428,-6.0387,-6.1366,-6.3048,-6.2722,-6.227,-6.1969,-6.1943,-6.2119,-6.2546,-6.3099,-6.3852,-6.4831,-6.4731,-6.4605,-6.4454,-6.458,-6.4454,-6.4053,-6.4228,-6.4128,-6.3877,-6.4153,-6.4002,-6.3525,-6.4178,-6.4178,-6.3751,-6.4379,-6.4906,-6.5308,-6.6061,-6.7493,-6.9439,-7.0394,-7.2766,-7.5628,-4.2471,-4.787,-5.2169,-5.2035,-5.7692,-6.2011,-6.1368,-6.1602,-6.1836,-6.1777,-6.1836,-6.2012,-6.2363,-6.2754,-6.3164,-6.3613,-6.3965,-6.3789,-6.2988,-6.2598,-6.2012,-6.1152,-6.0332,-5.9648,-5.918,-5.918,-5.918,-5.918,-5.918,-5.8945,-5.8535,-5.8086,-5.7637,-5.7168,-5.6308,-5.5957,-5.5976,-5.5937,-5.5683,-5.5312,-5.5312,-5.4765,-5.3945,-5.3516,-5.3359,-5.3301,-5.2871,-5.2988,-5.3359,-5.3359,-5.3359,-5.3437,-5.3887,-5.375,-5.3418,-5.3418,-5.3379,-5.3359,-5.3398,-5.3066,-5.2617,-5.2226,-5.2109,-5.209,-5.209,-5.2051,-5.2051,-5.207,-5.1738,-5.1426,-5.1387,-5.1035,-5.0312,-4.8984,0.0,0.0,-5.1878,-5.3952,-5.6964,-6.068,-6.1542,-6.2521,-6.4178,-6.3877,-6.3751,-6.4178,-6.4228,-6.4228,-6.4279,-6.4806,-6.5383,-6.5961,-6.5484,-6.4982,-6.4479,-6.4982,-6.5208,-6.5157,-6.4203,-6.3977,-6.4404,-6.3952,-6.3425,-6.2948,-6.4002,-6.4178,-6.3776,-6.4806,-6.5258,-6.5503,-6.8071,-6.9083,-6.9768,-7.3704,-7.5297,-7.593,-4.7366,-5.0388,-5.335,-5.7347,-6.0136,-6.2012,-6.2129,-6.2129,-6.2129,-6.2129,-6.2129,-6.2305,-6.2754,-6.2695,-6.293,-6.3633,-6.3574,-6.3262,-6.2656,-6.2187,-6.1484,-6.0332,-5.998,-5.9629,-5.918,-5.918,-5.918,-5.918,-5.918,-5.8945,-5.8535,-5.8086,-5.7637,-5.7168,-5.6308,-5.6074,-5.6308,-5.5781,-5.5605,-5.5644,-5.5137,-5.4726,-5.4394,-5.3945,-5.3594,-5.3379,-5.3496,-5.3281,-5.3047,-5.3594,-5.3594,-5.3437,-5.3887,-5.373,-5.3359,-5.3359,-5.3359,-5.3359,-5.3359,-5.3437,-5.3418,-5.2988,-5.2871,-5.2871,-5.2871,-5.2461,-5.2148,-5.2422,-5.1914,-5.1426,-5.1426,-5.1094,-5.1099,-5.1738,0.0,-5.3499,-5.6105,-5.8144,-6.0019,-6.2521,-6.3199,-6.3776,-6.4404,-6.4279,-6.4254,-6.4454,-6.4781,-6.4982,-6.4982,-6.5509,-6.5886,-6.6112,-6.5911,-6.571,-6.5484,-6.5685,-6.5459,-6.4781,-6.5057,-6.4781,-6.4002,-6.4831,-6.4705,-6.3902,-6.5007,-6.5183,-6.4731,-6.5484,-6.6586,-6.7878,-6.8891,-7.088,-7.3393,-7.4992,-7.6409,-7.7681,-4.9557,-5.2228,-5.4903,-5.9532,-6.0979,-6.1836,-6.2129,-6.2305,-6.2305,-6.2187,-6.2305,-6.2422,-6.2578,-6.2578,-6.2812,-6.3437,-6.334,-6.3047,-6.2598,-6.1777,-6.0859,-5.9863,-5.9687,-5.9473,-5.918,-5.918,-5.918,-5.918,-5.918,-5.8945,-5.8535,-5.8203,-5.7734,-5.7187,-5.6465,-5.623,-5.6348,-5.5742,-5.5527,-5.5508,-5.5058,-5.4629,-5.4238,-5.3926,-5.3555,-5.3203,-5.3496,-5.3223,-5.2793,-5.3418,-5.3496,-5.3418,-5.373,-5.3516,-5.3183,-5.332,-5.3262,-5.3223,-5.3496,-5.3789,-5.3887,-5.3301,-5.3262,-5.3359,-5.3359,-5.291,-5.2558,-5.2851,-5.2226,-5.1641,-5.1641,-5.183,-5.2458,-5.3466,-5.5115,-5.702,-5.9304,-6.1039,-6.2521,-6.4028,-6.4354,-6.4605,-6.4957,-6.4831,-6.4806,-6.4982,-6.5333,-6.5534,-6.5534,-6.5911,-6.6112,-6.6112,-6.6112,-6.6112,-6.6112,-6.5936,-6.5484,-6.4731,-6.5157,-6.4781,-6.3726,-6.4831,-6.4931,-6.4279,-6.5383,-6.5634,-6.5333,-6.5886,-6.7374,-6.9301,-7.0095,-7.2451,-7.5628,-7.6409,-7.7505,-7.8789,-4.7103,-5.2471,-5.6853,-5.6871,-5.9514,-6.1719,-6.1719,-6.207,-6.2187,-6.1777,-6.207,-6.2187,-6.1777,-6.2519,-6.3027,-6.3027,-6.3437,-6.3496,-6.3047,-6.1406,-6.0254,-5.9805,-5.9414,-5.918,-5.918,-5.918,-5.918,-5.918,-5.918,-5.8945,-5.8535,-5.8535,-5.8066,-5.7187,-5.6777,-5.6348,-5.5937,-5.5937,-5.5449,-5.4726,-5.5137,-5.4531,-5.3359,-5.3359,-5.3086,-5.2715,-5.2715,-5.2715,-5.2715,-5.2715,-5.3008,-5.3359,-5.3359,-5.3066,-5.2793,-5.3242,-5.3047,-5.291,-5.3789,-5.4023,-5.3808,-5.2949,-5.3047,-5.3359,-5.3359,-5.3359,-5.3359,-5.3359,-5.2676,-5.209,-5.207,-5.3752,-5.48,-5.3877,-5.7669,-6.071,-6.0357,-6.2268,-6.4103,-6.5183,-6.4806,-6.4906,-6.6011,-6.5609,-6.5534,-6.6061,-6.6112,-6.6112,-6.6112,-6.6112,-6.6112,-6.6112,-6.6112,-6.6112,-6.6112,-6.5559,-6.5283,-6.5283,-6.4203,-6.3701,-6.3701,-6.3701,-6.3701,-6.3776,-6.4831,-6.5308,-6.5333,-6.5886,-6.7374,-6.9603,-7.1711,-7.3732,-7.593,-7.8004,-7.8789,-7.8789,-4.9557,-5.2228,-5.4903,-5.9532,-6.0979,-6.1933,-6.2519,-6.2226,-6.207,-6.2578,-6.248,-6.2305,-6.2187,-6.2695,-6.3027,-6.3027,-6.2871,-6.2305,-6.1289,-6.0723,-6.0098,-5.9414,-5.9238,-5.918,-5.918,-5.918,-5.918,-5.918,-5.918,-5.8945,-5.8535,-5.8535,-5.8066,-5.7207,-5.707,-5.6797,-5.6367,-5.6055,-5.5625,-5.5117,-5.4941,-5.4453,-5.3789,-5.3476,-5.3281,-5.3164,-5.3164,-5.2969,-5.2812,-5.3437,-5.3516,-5.3359,-5.3359,-5.3262,-5.3203,-5.332,-5.3262,-5.3301,-5.3867,-5.4023,-5.3965,-5.3711,-5.373,-5.3828,-5.3828,-5.3594,-5.3281,-5.2969,-5.2461,-5.1992,-5.168,-5.3548,-5.5468,-5.6509,-5.9284,-6.1922,-6.357,-6.4443,-6.5082,-6.5785,-6.5735,-6.576,-6.6086,-6.5961,-6.5936,-6.6086,-6.6112,-6.6112,-6.6112,-6.6112,-6.6112,-6.6112,-6.6112,-6.6112,-6.6112,-6.5936,-6.5484,-6.4731,-6.5183,-6.4781,-6.3726,-6.4881,-6.5183,-6.4856,-6.5559,-6.586,-6.6032,-6.7634,-6.963,-7.1683,-7.3887,-7.593,-7.7974,-7.8614,-7.8789,-7.8789,-5.1271,-5.4164,-5.7091,-6.0979,-6.1719,-6.1894,-6.2402,-6.2187,-6.2109,-6.2461,-6.2422,-6.2305,-6.2129,-6.2519,-6.2754,-6.2754,-6.2539,-6.1836,-6.0508,-6.043,-6.0039,-5.9238,-5.918,-5.918,-5.918,-5.918,-5.918,-5.918,-5.918,-5.8945,-5.8535,-5.8711,-5.832,-5.748,-5.748,-5.7226,-5.6797,-5.6191,-5.5781,-5.5508,-5.4922,-5.4531,-5.4199,-5.3398,-5.3105,-5.3086,-5.291,-5.2676,-5.2558,-5.3262,-5.3437,-5.3398,-5.3574,-5.3496,-5.3398,-5.3574,-5.3496,-5.3457,-5.3906,-5.4023,-5.4023,-5.4023,-5.4023,-5.4023,-5.4023,-5.3808,-5.3555,-5.3281,-5.2891,-5.2837,-5.3341,-5.5324,-5.7448,-5.9543,-6.1794,-6.3964,-6.5439,-6.581,-6.5986,-6.6086,-6.6312,-6.6363,-6.6137,-6.6112,-6.6112,-6.6112,-6.6112,-6.6112,-6.6112,-6.6112,-6.6112,-6.6112,-6.6112,-6.6112,-6.6112,-6.5886,-6.5333,-6.4479,-6.5132,-6.4831,-6.3726,-6.4931,-6.5409,-6.5308,-6.5634,-6.6398,-6.7543,-6.8804,-7.1041,-7.3915,-7.5145,-7.6885,-7.8789,-7.8789,-7.8789,-7.8789,-5.1936,-5.7073,-6.1252,-6.1699,-6.1719,-6.1719,-6.1777,-6.207,-6.2187,-6.1836,-6.2129,-6.2187,-6.1777,-6.2129,-6.2363,-6.2305,-6.2246,-6.1719,-6.0508,-6.039,-6.0039,-5.9238,-5.918,-5.918,-5.918,-5.918,-5.918,-5.918,-5.918,-5.9004,-5.8594,-5.9004,-5.873,-5.791,-5.7871,-5.7617,-5.7168,-5.6348,-5.5976,-5.5859,-5.5098,-5.4746,-5.4551,-5.3301,-5.2832,-5.2773,-5.2344,-5.2207,-5.2246,-5.2637,-5.3066,-5.3496,-5.3906,-5.375,-5.3496,-5.3906,-5.373,-5.3516,-5.3926,-5.4023,-5.4023,-5.4023,-5.4023,-5.4023,-5.4023,-5.4023,-5.4004,-5.4169,-5.4038,-5.4365,-5.6348,-5.8366,-6.0341,-6.2208,-6.4527,-6.6162,-6.6112,-6.6564,-6.6714,-6.6237,-6.6614,-6.6714,-6.6237,-6.6137,-6.6112,-6.6112,-6.6112,-6.6112,-6.6112,-6.6112,-6.6112,-6.6112,-6.6112,-6.6112,-6.6112,-6.5609,-6.5082,-6.453,-6.4479,-6.4254,-6.3852,-6.4329,-6.4831,-6.5358,-6.5308,-6.6861,-6.9274,-6.9333,-7.1865,-7.5542,-7.5693,-7.6945,-7.8699,-7.8759,-7.8789,-7.8789,-5.1122,-5.4968,-5.8787,-6.1232,-6.1719,-6.1836,-6.2187,-6.2012,-6.1953,-6.2187,-6.2305,-6.2187,-6.1777,-6.2129,-6.2246,-6.1894,-6.1543,-6.1094,-6.0488,-6.0156,-5.9707,-5.918,-5.918,-5.918,-5.918,-5.918,-5.918,-5.918,-5.918,-5.9121,-5.9062,-5.9121,-5.8887,-5.8359,-5.8027,-5.7617,-5.7187,-5.666,-5.625,-5.5918,-5.5742,-5.5273,-5.4609,-5.3984,-5.375,-5.3691,-5.3242,-5.3086,-5.3105,-5.3183,-5.3516,-5.3906,-5.4004,-5.3965,-5.3906,-5.4004,-5.3965,-5.3906,-5.4004,-5.4023,-5.4023,-5.4023,-5.4023,-5.4023,-5.4023,-5.4023,-5.4516,-5.626,-5.6469,-5.692,-5.8532,-6.1211,-6.2996,-6.2612,-6.4846,-6.6639,-6.6187,-6.6212,-6.6413,-6.6739,-6.6488,-6.6438,-6.6764,-6.6388,-6.6112,-6.6112,-6.6112,-6.6112,-6.6112,-6.6112,-6.6112,-6.6112,-6.6112,-6.6112,-6.6112,-6.5986,-6.566,-6.5107,-6.468,-6.463,-6.4957,-6.5057,-6.5409,-6.5911,-6.5484,-6.6861,-6.9386,-7.004,-7.212,-7.5087,-7.6622,-7.7551,-7.8071,-7.8609,-7.8789,-7.8789,-5.3409,-5.6564,-5.9749,-6.1446,-6.1719,-6.1777,-6.2012,-6.1836,-6.1777,-6.2012,-6.207,-6.1953,-6.1719,-6.1894,-6.1953,-6.1719,-6.1328,-6.0898,-6.0449,-6.0039,-5.9629,-5.918,-5.918,-5.918,-5.918,-5.918,-5.918,-5.918,-5.918,-5.918,-5.918,-5.918,-5.9062,-5.8828,-5.8379,-5.791,-5.748,-5.6855,-5.6445,-5.6211,-5.5801,-5.5371,-5.4902,-5.4277,-5.3887,-5.3672,-5.3437,-5.3496,-5.3672,-5.3672,-5.3828,-5.4023,-5.4023,-5.4023,-5.4023,-5.4023,-5.4023,-5.4023,-5.4023,-5.4023,-5.4023,-5.4023,-5.5001,-5.5588,-5.4208,-5.5001,-5.609,-5.7373,-5.8297,-5.9688,-6.1646,-6.3054,-6.4235,-6.4982,-6.6217,-6.6965,-6.6915,-6.6915,-6.694,-6.6965,-6.694,-6.6815,-6.6589,-6.6287,-6.6112,-6.6112,-6.6112,-6.6112,-6.6112,-6.6112,-6.6112,-6.6112,-6.6112,-6.6112,-6.6112,-6.586,-6.571,-6.5685,-6.5383,-6.5258,-6.5308,-6.5559,-6.5835,-6.6086,-6.581,-6.7441,-7.0421,-7.0905,-7.3189,-7.627,-7.7343,-7.8011,-7.831,-7.8669,-7.8579,-7.828,-5.6167,-5.9155,-6.166,-6.1719,-6.1719,-6.1719,-6.1719,-6.1719,-6.1719,-6.1719,-6.1719,-6.1719,-6.1719,-6.1719,-6.1719,-6.1719,-6.125,-6.084,-6.0449,-5.998,-5.9531,-5.918,-5.918,-5.918,-5.918,-5.918,-5.918,-5.918,-5.918,-5.918,-5.918,-5.918,-5.918,-5.918,-5.8711,-5.8301,-5.7812,-5.7031,-5.666,-5.6523,-5.5723,-5.5371,-5.5215,-5.4433,-5.3867,-5.3476,-5.3476,-5.3711,-5.4023,-5.4023,-5.4023,-5.4023,-5.4023,-5.4023,-5.4023,-5.4023,-5.3965,-5.3926,-5.4004,-5.4352,-5.4516,-5.4595,-5.6553,-5.7906,-5.5769,-5.6932,-5.8655,-5.8963,-6.0408,-6.2425,-6.4912,-6.5039,-6.5548,-6.7441,-6.7493,-6.7392,-6.7744,-6.7719,-6.7518,-6.7166,-6.7442,-6.7241,-6.6212,-6.6112,-6.6112,-6.6112,-6.6112,-6.6112,-6.6112,-6.6112,-6.6112,-6.6112,-6.6112,-6.6112,-6.6112,-6.566,-6.566,-6.6112,-6.6112,-6.5886,-6.5434,-6.581,-6.6183,-6.6575,-6.6499,-6.8576,-7.2061,-7.1839,-7.4092,-7.7502,-7.7502,-7.7891,-7.846,-7.8579,-7.834,-7.7861,-5.577,-5.8721,-6.1269,-6.166,-6.1719,-6.1719,-6.1719,-6.1719,-6.1719,-6.1719,-6.1719,-6.1719,-6.1719,-6.1719,-6.1719,-6.1719,-6.0957,-6.0488,-6.043,-5.9707,-5.9238,-5.918,-5.918,-5.918,-5.918,-5.918,-5.918,-5.918,-5.918,-5.918,-5.918,-5.918,-5.918,-5.918,-5.8711,-5.8301,-5.7812,-5.7344,-5.6914,-5.6543,-5.6055,-5.5625,-5.5254,-5.4765,-5.4316,-5.3945,-5.3945,-5.3984,-5.4023,-5.4023,-5.4023,-5.4023,-5.4023,-5.4023,-5.4023,-5.4023,-5.375,-5.3535,-5.3926,-5.5266,-5.6791,-5.7206,-5.9245,-6.117,-6.0783,-6.0977,-6.1637,-6.3502,-6.446,-6.5413,-6.7132,-6.8061,-6.8515,-6.7945,-6.8145,-6.8271,-6.7869,-6.7392,-6.7241,-6.7643,-6.7342,-6.684,-6.6187,-6.6112,-6.6112,-6.6112,-6.6112,-6.6112,-6.6112,-6.6112,-6.6112,-6.6112,-6.6112,-6.6112,-6.6112,-6.6036,-6.6036,-6.6112,-6.6112,-6.6061,-6.5986,-6.5584,-6.6602,-6.8778,-6.8306,-7.0415,-7.4171,-7.3083,-7.4023,-7.6155,-7.6155,-7.6544,-7.7173,-7.7741,-7.825,-7.8489,-5.8019,-5.9802,-6.1211,-6.166,-6.1719,-6.1719,-6.1719,-6.1719,-6.1719,-6.1719,-6.1719,-6.1719,-6.1719,-6.1719,-6.1719,-6.1719,-6.1133,-6.0683,-6.0449,-5.9863,-5.9414,-5.918,-5.918,-5.918,-5.918,-5.918,-5.918,-5.918,-5.918,-5.918,-5.918,-5.918,-5.918,-5.918,-5.8711,-5.8301,-5.7851,-5.7402,-5.6973,-5.6562,-5.6367,-5.6035,-5.5605,-5.5195,-5.4765,-5.4355,-5.4121,-5.3867,-5.3652,-5.3652,-5.3496,-5.334,-5.3574,-5.3496,-5.3379,-5.3887,-5.3711,-5.3841,-5.5648,-5.6788,-5.8007,-5.9572,-6.1941,-6.3778,-6.35,-6.4576,-6.5478,-6.4871,-6.5899,-6.7144,-6.8093,-6.8648,-6.8924,-6.8748,-6.8396,-6.8196,-6.8246,-6.7518,-6.7066,-6.7317,-6.684,-6.6388,-6.6137,-6.6112,-6.6112,-6.6112,-6.6112,-6.6112,-6.6112,-6.6112,-6.6112,-6.6112,-6.6112,-6.6112,-6.6112,-6.6112,-6.6112,-6.6112,-6.6112,-6.6112,-6.6112,-6.7118,-6.8263,-6.9248,-6.9965,-7.1712,-7.4131,-7.3209,-7.4047,-7.5946,-7.6275,-7.6814,-7.7322,-7.6904,-7.6933,-7.7023]}]]